<?xml version="1.0"?>
<gpx xmlns="http://www.topografix.com/GPX/1/1" xmlns:xsi="http://www.w3.org/2001/XMLSchema-instance" xmlns:wptx1="http://www.garmin.com/xmlschemas/WaypointExtension/v1" xmlns:gpxtrx="http://www.garmin.com/xmlschemas/GpxExtensions/v3" xmlns:gpxtpx="http://www.garmin.com/xmlschemas/TrackPointExtension/v1" xmlns:gpxx="http://www.garmin.com/xmlschemas/GpxExtensions/v3" xmlns:trp="http://www.garmin.com/xmlschemas/TripExtensions/v1" xmlns:adv="http://www.garmin.com/xmlschemas/AdventuresExtensions/v1" xmlns:prs="http://www.garmin.com/xmlschemas/PressureExtension/v1" xmlns:tmd="http://www.garmin.com/xmlschemas/TripMetaDataExtensions/v1" xmlns:vptm="http://www.garmin.com/xmlschemas/ViaPointTransportationModeExtensions/v1" xmlns:ctx="http://www.garmin.com/xmlschemas/CreationTimeExtension/v1" creator="Garmin Desktop App" version="1.1" xsi:schemaLocation="http://www.topografix.com/GPX/1/1 http://www.topografix.com/GPX/1/1/gpx.xsd http://www.garmin.com/xmlschemas/WaypointExtension/v1 http://www8.garmin.com/xmlschemas/WaypointExtensionv1.xsd http://www.garmin.com/xmlschemas/TrackPointExtension/v1 http://www.garmin.com/xmlschemas/TrackPointExtensionv1.xsd http://www.garmin.com/xmlschemas/GpxExtensions/v3 http://www8.garmin.com/xmlschemas/GpxExtensionsv3.xsd http://www.garmin.com/xmlschemas/ActivityExtension/v1 http://www8.garmin.com/xmlschemas/ActivityExtensionv1.xsd http://www.garmin.com/xmlschemas/AdventuresExtensions/v1 http://www8.garmin.com/xmlschemas/AdventuresExtensionv1.xsd http://www.garmin.com/xmlschemas/PressureExtension/v1 http://www.garmin.com/xmlschemas/PressureExtensionv1.xsd http://www.garmin.com/xmlschemas/TripExtensions/v1 http://www.garmin.com/xmlschemas/TripExtensionsv1.xsd http://www.garmin.com/xmlschemas/TripMetaDataExtensions/v1 http://www.garmin.com/xmlschemas/TripMetaDataExtensionsv1.xsd http://www.garmin.com/xmlschemas/ViaPointTransportationModeExtensions/v1 http://www.garmin.com/xmlschemas/ViaPointTransportationModeExtensionsv1.xsd http://www.garmin.com/xmlschemas/CreationTimeExtensions/v1 http://www.garmin.com/xmlschemas/CreationTimeExtensionsv1.xsd">

  <metadata>
    <link href="http://www.garmin.com">
      <text>Garmin International</text>
    </link>
    <time>2013-12-29T14:23:22Z</time>
    <bounds maxlat="47.48239659704268" maxlon="11.106565939262509" minlat="47.440107967704535" minlon="11.057161241769791"/>
  </metadata>

  <trk>
    <name>Osterfelder 2013.12.29</name>
    <extensions>
      <gpxx:TrackExtension>
        <gpxx:DisplayColor>DarkMagenta</gpxx:DisplayColor>
      </gpxx:TrackExtension>
    </extensions>
    <trkseg>
      <trkpt lat="47.48239659704268" lon="11.091948905959725">
        <ele>726.413330078125</ele>
        <time>2013-12-29T08:12:51Z</time>
      </trkpt>
      <trkpt lat="47.482396513223648" lon="11.091948822140694">
        <ele>726.413330078125</ele>
        <time>2013-12-29T08:12:53Z</time>
      </trkpt>
      <trkpt lat="47.482396513223648" lon="11.091948822140694">
        <ele>727.855224609375</ele>
        <time>2013-12-29T08:12:55Z</time>
      </trkpt>
      <trkpt lat="47.482394082471728" lon="11.091954354196787">
        <ele>728.3359375</ele>
        <time>2013-12-29T08:13:28Z</time>
      </trkpt>
      <trkpt lat="47.482328535988927" lon="11.091988133266568">
        <ele>727.855224609375</ele>
        <time>2013-12-29T08:13:53Z</time>
      </trkpt>
      <trkpt lat="47.482306743040681" lon="11.092005567625165">
        <ele>726.89404296875</ele>
        <time>2013-12-29T08:14:06Z</time>
      </trkpt>
      <trkpt lat="47.482295343652368" lon="11.092018224298954">
        <ele>728.816650390625</ele>
        <time>2013-12-29T08:14:24Z</time>
      </trkpt>
      <trkpt lat="47.482292745262384" lon="11.092020319774747">
        <ele>727.855224609375</ele>
        <time>2013-12-29T08:14:29Z</time>
      </trkpt>
      <trkpt lat="47.482310850173235" lon="11.092016296461225">
        <ele>727.855224609375</ele>
        <time>2013-12-29T08:14:45Z</time>
      </trkpt>
      <trkpt lat="47.482312694191933" lon="11.092023504897952">
        <ele>727.855224609375</ele>
        <time>2013-12-29T08:14:47Z</time>
      </trkpt>
      <trkpt lat="47.482318729162216" lon="11.092059127986431">
        <ele>728.3359375</ele>
        <time>2013-12-29T08:14:50Z</time>
      </trkpt>
      <trkpt lat="47.482301127165556" lon="11.092115035280585">
        <ele>728.3359375</ele>
        <time>2013-12-29T08:14:54Z</time>
      </trkpt>
      <trkpt lat="47.482154527679086" lon="11.092235650867224">
        <ele>728.816650390625</ele>
        <time>2013-12-29T08:15:06Z</time>
      </trkpt>
      <trkpt lat="47.481976160779595" lon="11.092344615608454">
        <ele>728.816650390625</ele>
        <time>2013-12-29T08:15:20Z</time>
      </trkpt>
      <trkpt lat="47.481835428625345" lon="11.092513175681233">
        <ele>729.77783203125</ele>
        <time>2013-12-29T08:15:34Z</time>
      </trkpt>
      <trkpt lat="47.481795782223344" lon="11.092828502878547">
        <ele>729.77783203125</ele>
        <time>2013-12-29T08:15:51Z</time>
      </trkpt>
      <trkpt lat="47.481809696182609" lon="11.09312329441309">
        <ele>731.219970703125</ele>
        <time>2013-12-29T08:16:07Z</time>
      </trkpt>
      <trkpt lat="47.481841882690787" lon="11.093500647693872">
        <ele>732.662109375</ele>
        <time>2013-12-29T08:16:27Z</time>
      </trkpt>
      <trkpt lat="47.481864346191287" lon="11.093832487240434">
        <ele>733.623291015625</ele>
        <time>2013-12-29T08:16:45Z</time>
      </trkpt>
      <trkpt lat="47.481852946802974" lon="11.093993000686169">
        <ele>733.623291015625</ele>
        <time>2013-12-29T08:16:55Z</time>
      </trkpt>
      <trkpt lat="47.481742892414331" lon="11.094034826382995">
        <ele>734.584716796875</ele>
        <time>2013-12-29T08:17:07Z</time>
      </trkpt>
      <trkpt lat="47.481728559359908" lon="11.094043711200356">
        <ele>734.584716796875</ele>
        <time>2013-12-29T08:17:15Z</time>
      </trkpt>
      <trkpt lat="47.481656726449728" lon="11.094059804454446">
        <ele>736.50732421875</ele>
        <time>2013-12-29T08:17:27Z</time>
      </trkpt>
      <trkpt lat="47.481664940714836" lon="11.094096098095179">
        <ele>737.468505859375</ele>
        <time>2013-12-29T08:17:35Z</time>
      </trkpt>
      <trkpt lat="47.481709029525518" lon="11.094060139730573">
        <ele>737.94921875</ele>
        <time>2013-12-29T08:17:51Z</time>
      </trkpt>
      <trkpt lat="47.481678184121847" lon="11.093960730358958">
        <ele>736.98779296875</ele>
        <time>2013-12-29T08:17:58Z</time>
      </trkpt>
      <trkpt lat="47.481719423085451" lon="11.093720253556967">
        <ele>737.468505859375</ele>
        <time>2013-12-29T08:18:24Z</time>
      </trkpt>
      <trkpt lat="47.481573913246393" lon="11.093591339886189">
        <ele>737.468505859375</ele>
        <time>2013-12-29T08:18:55Z</time>
      </trkpt>
      <trkpt lat="47.481438461691141" lon="11.093556471168995">
        <ele>737.468505859375</ele>
        <time>2013-12-29T08:19:29Z</time>
      </trkpt>
      <trkpt lat="47.481404095888138" lon="11.093517579138279">
        <ele>737.468505859375</ele>
        <time>2013-12-29T08:19:53Z</time>
      </trkpt>
      <trkpt lat="47.48131818138063" lon="11.093389671295881">
        <ele>737.468505859375</ele>
        <time>2013-12-29T08:20:16Z</time>
      </trkpt>
      <trkpt lat="47.481291359290481" lon="11.0933299921453">
        <ele>737.468505859375</ele>
        <time>2013-12-29T08:20:34Z</time>
      </trkpt>
      <trkpt lat="47.481334358453751" lon="11.093527050688863">
        <ele>737.468505859375</ele>
        <time>2013-12-29T08:21:35Z</time>
      </trkpt>
      <trkpt lat="47.481474336236715" lon="11.093859644606709">
        <ele>735.0654296875</ele>
        <time>2013-12-29T08:21:47Z</time>
      </trkpt>
      <trkpt lat="47.481753705069423" lon="11.094125602394342">
        <ele>733.142578125</ele>
        <time>2013-12-29T08:21:57Z</time>
      </trkpt>
      <trkpt lat="47.481810785830021" lon="11.09407271258533">
        <ele>733.142578125</ele>
        <time>2013-12-29T08:22:05Z</time>
      </trkpt>
      <trkpt lat="47.481825537979603" lon="11.094022085890174">
        <ele>733.623291015625</ele>
        <time>2013-12-29T08:22:10Z</time>
      </trkpt>
      <trkpt lat="47.481934502720833" lon="11.094106491655111">
        <ele>733.142578125</ele>
        <time>2013-12-29T08:22:21Z</time>
      </trkpt>
      <trkpt lat="47.482030978426337" lon="11.094320565462112">
        <ele>734.10400390625</ele>
        <time>2013-12-29T08:22:34Z</time>
      </trkpt>
      <trkpt lat="47.482061153277755" lon="11.094502788037062">
        <ele>734.584716796875</ele>
        <time>2013-12-29T08:22:44Z</time>
      </trkpt>
      <trkpt lat="47.482083784416318" lon="11.094697499647737">
        <ele>734.10400390625</ele>
        <time>2013-12-29T08:22:55Z</time>
      </trkpt>
      <trkpt lat="47.482074648141861" lon="11.094759777188301">
        <ele>734.584716796875</ele>
        <time>2013-12-29T08:22:59Z</time>
      </trkpt>
      <trkpt lat="47.481920253485441" lon="11.094852983951569">
        <ele>735.0654296875</ele>
        <time>2013-12-29T08:23:12Z</time>
      </trkpt>
      <trkpt lat="47.481825286522508" lon="11.094830855727196">
        <ele>734.584716796875</ele>
        <time>2013-12-29T08:23:21Z</time>
      </trkpt>
      <trkpt lat="47.48181514441967" lon="11.094829179346561">
        <ele>735.0654296875</ele>
        <time>2013-12-29T08:23:30Z</time>
      </trkpt>
      <trkpt lat="47.481813048943877" lon="11.094824736937881">
        <ele>735.5458984375</ele>
        <time>2013-12-29T08:23:56Z</time>
      </trkpt>
      <trkpt lat="47.481808271259069" lon="11.094825156033039">
        <ele>734.584716796875</ele>
        <time>2013-12-29T08:24:19Z</time>
      </trkpt>
      <trkpt lat="47.481804331764579" lon="11.094823060557246">
        <ele>735.0654296875</ele>
        <time>2013-12-29T08:24:29Z</time>
      </trkpt>
      <trkpt lat="47.481801146641374" lon="11.094823898747563">
        <ele>735.5458984375</ele>
        <time>2013-12-29T08:24:30Z</time>
      </trkpt>
      <trkpt lat="47.481670472770929" lon="11.094891792163253">
        <ele>736.026611328125</ele>
        <time>2013-12-29T08:24:44Z</time>
      </trkpt>
      <trkpt lat="47.481665192171931" lon="11.094931354746222">
        <ele>736.026611328125</ele>
        <time>2013-12-29T08:24:48Z</time>
      </trkpt>
      <trkpt lat="47.481620265170932" lon="11.094944346696138">
        <ele>736.98779296875</ele>
        <time>2013-12-29T08:24:53Z</time>
      </trkpt>
      <trkpt lat="47.481509875506163" lon="11.094998996704817">
        <ele>738.91064453125</ele>
        <time>2013-12-29T08:25:07Z</time>
      </trkpt>
      <trkpt lat="47.481368640437722" lon="11.095045264810324">
        <ele>742.275146484375</ele>
        <time>2013-12-29T08:25:23Z</time>
      </trkpt>
      <trkpt lat="47.481172503903508" lon="11.095234276726842">
        <ele>744.67822265625</ele>
        <time>2013-12-29T08:25:45Z</time>
      </trkpt>
      <trkpt lat="47.481041997671127" lon="11.09537785872817">
        <ele>746.120361328125</ele>
        <time>2013-12-29T08:26:00Z</time>
      </trkpt>
      <trkpt lat="47.480877628549933" lon="11.095477268099785">
        <ele>749.00439453125</ele>
        <time>2013-12-29T08:26:17Z</time>
      </trkpt>
      <trkpt lat="47.480688448995352" lon="11.095650605857372">
        <ele>750.446533203125</ele>
        <time>2013-12-29T08:26:37Z</time>
      </trkpt>
      <trkpt lat="47.480519888922572" lon="11.095839785411954">
        <ele>749.9658203125</ele>
        <time>2013-12-29T08:26:55Z</time>
      </trkpt>
      <trkpt lat="47.480319393798709" lon="11.095952019095421">
        <ele>752.849609375</ele>
        <time>2013-12-29T08:27:15Z</time>
      </trkpt>
      <trkpt lat="47.480148151516914" lon="11.096048075705767">
        <ele>756.214111328125</ele>
        <time>2013-12-29T08:27:33Z</time>
      </trkpt>
      <trkpt lat="47.479932149872184" lon="11.096162656322122">
        <ele>759.578857421875</ele>
        <time>2013-12-29T08:27:55Z</time>
      </trkpt>
      <trkpt lat="47.479776749387383" lon="11.096242954954505">
        <ele>761.982177734375</ele>
        <time>2013-12-29T08:28:11Z</time>
      </trkpt>
      <trkpt lat="47.479589497670531" lon="11.096320152282715">
        <ele>763.904541015625</ele>
        <time>2013-12-29T08:28:29Z</time>
      </trkpt>
      <trkpt lat="47.47940911911428" lon="11.096398858353496">
        <ele>767.26953125</ele>
        <time>2013-12-29T08:28:48Z</time>
      </trkpt>
      <trkpt lat="47.479252796620131" lon="11.0964694339782">
        <ele>770.634033203125</ele>
        <time>2013-12-29T08:29:05Z</time>
      </trkpt>
      <trkpt lat="47.479162523522973" lon="11.096511511132121">
        <ele>769.6728515625</ele>
        <time>2013-12-29T08:29:15Z</time>
      </trkpt>
      <trkpt lat="47.47914819046855" lon="11.096515115350485">
        <ele>772.075927734375</ele>
        <time>2013-12-29T08:29:18Z</time>
      </trkpt>
      <trkpt lat="47.478969404473901" lon="11.09660723246634">
        <ele>772.556640625</ele>
        <time>2013-12-29T08:29:36Z</time>
      </trkpt>
      <trkpt lat="47.478715935721993" lon="11.096772607415915">
        <ele>774.9599609375</ele>
        <time>2013-12-29T08:30:00Z</time>
      </trkpt>
      <trkpt lat="47.478508315980434" lon="11.096940748393536">
        <ele>777.36328125</ele>
        <time>2013-12-29T08:30:21Z</time>
      </trkpt>
      <trkpt lat="47.478305557742715" lon="11.097156247124076">
        <ele>778.80517578125</ele>
        <time>2013-12-29T08:30:43Z</time>
      </trkpt>
      <trkpt lat="47.478192402049899" lon="11.097268648445606">
        <ele>782.169921875</ele>
        <time>2013-12-29T08:30:56Z</time>
      </trkpt>
      <trkpt lat="47.478026021271944" lon="11.097394376993179">
        <ele>783.131103515625</ele>
        <time>2013-12-29T08:31:13Z</time>
      </trkpt>
      <trkpt lat="47.477868273854256" lon="11.097519183531404">
        <ele>784.092529296875</ele>
        <time>2013-12-29T08:31:29Z</time>
      </trkpt>
      <trkpt lat="47.477757381275296" lon="11.097613144665956">
        <ele>786.01513671875</ele>
        <time>2013-12-29T08:31:41Z</time>
      </trkpt>
      <trkpt lat="47.477660989388824" lon="11.097702160477638">
        <ele>789.379638671875</ele>
        <time>2013-12-29T08:31:56Z</time>
      </trkpt>
      <trkpt lat="47.477604327723384" lon="11.097765695303679">
        <ele>792.744384765625</ele>
        <time>2013-12-29T08:32:07Z</time>
      </trkpt>
      <trkpt lat="47.47755135409534" lon="11.097825122997165">
        <ele>794.666748046875</ele>
        <time>2013-12-29T08:32:17Z</time>
      </trkpt>
      <trkpt lat="47.477478096261621" lon="11.097891675308347">
        <ele>798.03173828125</ele>
        <time>2013-12-29T08:32:29Z</time>
      </trkpt>
      <trkpt lat="47.477404000237584" lon="11.097935428842902">
        <ele>800.91552734375</ele>
        <time>2013-12-29T08:32:40Z</time>
      </trkpt>
      <trkpt lat="47.47737935744226" lon="11.09796023927629">
        <ele>801.396240234375</ele>
        <time>2013-12-29T08:32:44Z</time>
      </trkpt>
      <trkpt lat="47.477358654141426" lon="11.097972225397825">
        <ele>802.357421875</ele>
        <time>2013-12-29T08:32:53Z</time>
      </trkpt>
      <trkpt lat="47.477279277518392" lon="11.098021175712347">
        <ele>805.241455078125</ele>
        <time>2013-12-29T08:33:05Z</time>
      </trkpt>
      <trkpt lat="47.477159332484007" lon="11.098073478788137">
        <ele>808.60595703125</ele>
        <time>2013-12-29T08:33:20Z</time>
      </trkpt>
      <trkpt lat="47.477038549259305" lon="11.098081190139055">
        <ele>811.970703125</ele>
        <time>2013-12-29T08:33:35Z</time>
      </trkpt>
      <trkpt lat="47.476916424930096" lon="11.098134163767099">
        <ele>814.3740234375</ele>
        <time>2013-12-29T08:33:51Z</time>
      </trkpt>
      <trkpt lat="47.476799162104726" lon="11.09819870442152">
        <ele>817.738525390625</ele>
        <time>2013-12-29T08:34:06Z</time>
      </trkpt>
      <trkpt lat="47.476717354729772" lon="11.098241116851568">
        <ele>819.661376953125</ele>
        <time>2013-12-29T08:34:16Z</time>
      </trkpt>
      <trkpt lat="47.476615011692047" lon="11.098272548988461">
        <ele>822.064453125</ele>
        <time>2013-12-29T08:34:28Z</time>
      </trkpt>
      <trkpt lat="47.476501688361168" lon="11.098340777680278">
        <ele>824.948486328125</ele>
        <time>2013-12-29T08:34:43Z</time>
      </trkpt>
      <trkpt lat="47.476409487426281" lon="11.098440438508987">
        <ele>828.313232421875</ele>
        <time>2013-12-29T08:34:58Z</time>
      </trkpt>
      <trkpt lat="47.476327931508422" lon="11.098515288904309">
        <ele>831.677734375</ele>
        <time>2013-12-29T08:35:11Z</time>
      </trkpt>
      <trkpt lat="47.47630094178021" lon="11.098530627787113">
        <ele>832.158447265625</ele>
        <time>2013-12-29T08:35:15Z</time>
      </trkpt>
      <trkpt lat="47.476234724745154" lon="11.098586451262236">
        <ele>835.52294921875</ele>
        <time>2013-12-29T08:35:27Z</time>
      </trkpt>
      <trkpt lat="47.476168926805258" lon="11.098682591691613">
        <ele>838.406982421875</ele>
        <time>2013-12-29T08:35:42Z</time>
      </trkpt>
      <trkpt lat="47.476158449426293" lon="11.098693488165736">
        <ele>839.3681640625</ele>
        <time>2013-12-29T08:35:44Z</time>
      </trkpt>
      <trkpt lat="47.476086029782891" lon="11.098772110417485">
        <ele>842.73291015625</ele>
        <time>2013-12-29T08:35:58Z</time>
      </trkpt>
      <trkpt lat="47.476066248491406" lon="11.098790131509304">
        <ele>843.694091796875</ele>
        <time>2013-12-29T08:36:02Z</time>
      </trkpt>
      <trkpt lat="47.475982094183564" lon="11.098841764032841">
        <ele>847.058837890625</ele>
        <time>2013-12-29T08:36:16Z</time>
      </trkpt>
      <trkpt lat="47.475892324000597" lon="11.098866406828165">
        <ele>849.94287109375</ele>
        <time>2013-12-29T08:36:29Z</time>
      </trkpt>
      <trkpt lat="47.475816635414958" lon="11.098890295252204">
        <ele>853.307373046875</ele>
        <time>2013-12-29T08:36:41Z</time>
      </trkpt>
      <trkpt lat="47.475764751434326" lon="11.098906556144357">
        <ele>856.191162109375</ele>
        <time>2013-12-29T08:36:50Z</time>
      </trkpt>
      <trkpt lat="47.475669113919139" lon="11.098932288587093">
        <ele>859.555908203125</ele>
        <time>2013-12-29T08:37:04Z</time>
      </trkpt>
      <trkpt lat="47.475568614900112" lon="11.098913680762053">
        <ele>863.4013671875</ele>
        <time>2013-12-29T08:37:18Z</time>
      </trkpt>
      <trkpt lat="47.475561155006289" lon="11.098910830914974">
        <ele>863.8818359375</ele>
        <time>2013-12-29T08:37:19Z</time>
      </trkpt>
      <trkpt lat="47.475522262975574" lon="11.098900102078915">
        <ele>863.8818359375</ele>
        <time>2013-12-29T08:37:28Z</time>
      </trkpt>
      <trkpt lat="47.475480856373906" lon="11.098890043795109">
        <ele>864.362548828125</ele>
        <time>2013-12-29T08:38:04Z</time>
      </trkpt>
      <trkpt lat="47.475402150303125" lon="11.098858276382089">
        <ele>867.72705078125</ele>
        <time>2013-12-29T08:38:14Z</time>
      </trkpt>
      <trkpt lat="47.475312380120158" lon="11.098858024924994">
        <ele>870.611083984375</ele>
        <time>2013-12-29T08:38:26Z</time>
      </trkpt>
      <trkpt lat="47.475220765918493" lon="11.098858779296279">
        <ele>873.9755859375</ele>
        <time>2013-12-29T08:38:38Z</time>
      </trkpt>
      <trkpt lat="47.47513753362" lon="11.098828017711639">
        <ele>876.85986328125</ele>
        <time>2013-12-29T08:38:51Z</time>
      </trkpt>
      <trkpt lat="47.475044243037701" lon="11.098769595846534">
        <ele>880.224365234375</ele>
        <time>2013-12-29T08:39:05Z</time>
      </trkpt>
      <trkpt lat="47.47494257055223" lon="11.098694913089275">
        <ele>884.069580078125</ele>
        <time>2013-12-29T08:39:19Z</time>
      </trkpt>
      <trkpt lat="47.474832180887461" lon="11.098583769053221">
        <ele>887.43408203125</ele>
        <time>2013-12-29T08:39:36Z</time>
      </trkpt>
      <trkpt lat="47.474772417917848" lon="11.0985192283988">
        <ele>887.914794921875</ele>
        <time>2013-12-29T08:39:50Z</time>
      </trkpt>
      <trkpt lat="47.474760264158249" lon="11.098504643887281">
        <ele>891.279296875</ele>
        <time>2013-12-29T08:40:00Z</time>
      </trkpt>
      <trkpt lat="47.474668817594647" lon="11.098430631682277">
        <ele>893.682861328125</ele>
        <time>2013-12-29T08:40:14Z</time>
      </trkpt>
      <trkpt lat="47.474581226706505" lon="11.098342621698976">
        <ele>896.56689453125</ele>
        <time>2013-12-29T08:40:27Z</time>
      </trkpt>
      <trkpt lat="47.474489444866776" lon="11.098275734111667">
        <ele>899.45068359375</ele>
        <time>2013-12-29T08:40:41Z</time>
      </trkpt>
      <trkpt lat="47.474411157891154" lon="11.098173893988132">
        <ele>903.2958984375</ele>
        <time>2013-12-29T08:40:56Z</time>
      </trkpt>
      <trkpt lat="47.474350221455097" lon="11.098104827105999">
        <ele>906.1796875</ele>
        <time>2013-12-29T08:41:07Z</time>
      </trkpt>
      <trkpt lat="47.474273191764951" lon="11.098039615899324">
        <ele>909.544677734375</ele>
        <time>2013-12-29T08:41:18Z</time>
      </trkpt>
      <trkpt lat="47.474211165681481" lon="11.097992928698659">
        <ele>910.986572265625</ele>
        <time>2013-12-29T08:41:29Z</time>
      </trkpt>
      <trkpt lat="47.474172357469797" lon="11.097954288125038">
        <ele>912.9091796875</ele>
        <time>2013-12-29T08:41:54Z</time>
      </trkpt>
      <trkpt lat="47.474063560366631" lon="11.097864601761103">
        <ele>915.793212890625</ele>
        <time>2013-12-29T08:42:09Z</time>
      </trkpt>
      <trkpt lat="47.473950907588005" lon="11.097770389169455">
        <ele>919.15771484375</ele>
        <time>2013-12-29T08:42:24Z</time>
      </trkpt>
      <trkpt lat="47.47382752597332" lon="11.09766511246562">
        <ele>922.04150390625</ele>
        <time>2013-12-29T08:42:41Z</time>
      </trkpt>
      <trkpt lat="47.473710682243109" lon="11.097563607618213">
        <ele>923.964111328125</ele>
        <time>2013-12-29T08:42:57Z</time>
      </trkpt>
      <trkpt lat="47.473628036677837" lon="11.097490265965462">
        <ele>927.3291015625</ele>
        <time>2013-12-29T08:43:10Z</time>
      </trkpt>
      <trkpt lat="47.473537931218743" lon="11.097408374771476">
        <ele>929.732177734375</ele>
        <time>2013-12-29T08:43:23Z</time>
      </trkpt>
      <trkpt lat="47.473445646464825" lon="11.097332518547773">
        <ele>932.6162109375</ele>
        <time>2013-12-29T08:43:36Z</time>
      </trkpt>
      <trkpt lat="47.473353194072843" lon="11.097233863547444">
        <ele>934.05810546875</ele>
        <time>2013-12-29T08:43:49Z</time>
      </trkpt>
      <trkpt lat="47.473350847139955" lon="11.097231181338429">
        <ele>935.01953125</ele>
        <time>2013-12-29T08:43:52Z</time>
      </trkpt>
      <trkpt lat="47.473312877118587" lon="11.097190529108047">
        <ele>934.538818359375</ele>
        <time>2013-12-29T08:44:05Z</time>
      </trkpt>
      <trkpt lat="47.473191423341632" lon="11.097119618207216">
        <ele>937.422607421875</ele>
        <time>2013-12-29T08:44:19Z</time>
      </trkpt>
      <trkpt lat="47.47306720353663" lon="11.097063207998872">
        <ele>940.306884765625</ele>
        <time>2013-12-29T08:44:35Z</time>
      </trkpt>
      <trkpt lat="47.472956478595734" lon="11.097019035369158">
        <ele>943.67138671875</ele>
        <time>2013-12-29T08:44:48Z</time>
      </trkpt>
      <trkpt lat="47.472884813323617" lon="11.096973773092031">
        <ele>946.07470703125</ele>
        <time>2013-12-29T08:45:00Z</time>
      </trkpt>
      <trkpt lat="47.472853967919946" lon="11.096929768100381">
        <ele>947.035888671875</ele>
        <time>2013-12-29T08:45:31Z</time>
      </trkpt>
      <trkpt lat="47.472824044525623" lon="11.096884002909064">
        <ele>947.997314453125</ele>
        <time>2013-12-29T08:45:39Z</time>
      </trkpt>
      <trkpt lat="47.472752965986729" lon="11.096821893006563">
        <ele>951.36181640625</ele>
        <time>2013-12-29T08:45:51Z</time>
      </trkpt>
      <trkpt lat="47.472665794193745" lon="11.096734553575516">
        <ele>954.726318359375</ele>
        <time>2013-12-29T08:46:06Z</time>
      </trkpt>
      <trkpt lat="47.47258541174233" lon="11.096686525270343">
        <ele>957.610595703125</ele>
        <time>2013-12-29T08:46:19Z</time>
      </trkpt>
      <trkpt lat="47.472529839724302" lon="11.096640340983868">
        <ele>958.09130859375</ele>
        <time>2013-12-29T08:46:31Z</time>
      </trkpt>
      <trkpt lat="47.47248524799943" lon="11.096612010151148">
        <ele>960.494384765625</ele>
        <time>2013-12-29T08:46:48Z</time>
      </trkpt>
      <trkpt lat="47.472389442846179" lon="11.096542943269014">
        <ele>964.339599609375</ele>
        <time>2013-12-29T08:47:03Z</time>
      </trkpt>
      <trkpt lat="47.47228735126555" lon="11.096454095095396">
        <ele>966.742919921875</ele>
        <time>2013-12-29T08:47:19Z</time>
      </trkpt>
      <trkpt lat="47.472222140058875" lon="11.096390644088387">
        <ele>969.626953125</ele>
        <time>2013-12-29T08:47:30Z</time>
      </trkpt>
      <trkpt lat="47.472152318805456" lon="11.096329037100077">
        <ele>972.510986328125</ele>
        <time>2013-12-29T08:47:42Z</time>
      </trkpt>
      <trkpt lat="47.472080066800117" lon="11.096271872520447">
        <ele>974.914306640625</ele>
        <time>2013-12-29T08:47:54Z</time>
      </trkpt>
      <trkpt lat="47.472037905827165" lon="11.096231052652001">
        <ele>977.317626953125</ele>
        <time>2013-12-29T08:48:01Z</time>
      </trkpt>
      <trkpt lat="47.471966911107302" lon="11.096172044053674">
        <ele>979.720703125</ele>
        <time>2013-12-29T08:48:13Z</time>
      </trkpt>
      <trkpt lat="47.471904465928674" lon="11.096140695735812">
        <ele>983.085205078125</ele>
        <time>2013-12-29T08:48:23Z</time>
      </trkpt>
      <trkpt lat="47.47182659804821" lon="11.096053691580892">
        <ele>985.488525390625</ele>
        <time>2013-12-29T08:48:38Z</time>
      </trkpt>
      <trkpt lat="47.471791226416826" lon="11.096012536436319">
        <ele>987.4111328125</ele>
        <time>2013-12-29T08:48:52Z</time>
      </trkpt>
      <trkpt lat="47.471714280545712" lon="11.095926370471716">
        <ele>991.256591796875</ele>
        <time>2013-12-29T08:49:05Z</time>
      </trkpt>
      <trkpt lat="47.471708664670587" lon="11.095919664949179">
        <ele>991.256591796875</ele>
        <time>2013-12-29T08:49:06Z</time>
      </trkpt>
      <trkpt lat="47.471629790961742" lon="11.095818663015962">
        <ele>994.62109375</ele>
        <time>2013-12-29T08:49:20Z</time>
      </trkpt>
      <trkpt lat="47.471549911424518" lon="11.0957320779562">
        <ele>997.98583984375</ele>
        <time>2013-12-29T08:49:33Z</time>
      </trkpt>
      <trkpt lat="47.471471540629864" lon="11.095613976940513">
        <ele>1000.86962890625</ele>
        <time>2013-12-29T08:49:47Z</time>
      </trkpt>
      <trkpt lat="47.471429966390133" lon="11.095535354688764">
        <ele>1002.3115234375</ele>
        <time>2013-12-29T08:49:55Z</time>
      </trkpt>
      <trkpt lat="47.471395684406161" lon="11.095429826527834">
        <ele>1003.753662109375</ele>
        <time>2013-12-29T08:50:09Z</time>
      </trkpt>
      <trkpt lat="47.471394259482622" lon="11.09542915597558">
        <ele>1003.753662109375</ele>
        <time>2013-12-29T08:50:14Z</time>
      </trkpt>
      <trkpt lat="47.471291162073612" lon="11.095133358612657">
        <ele>1005.19580078125</ele>
        <time>2013-12-29T08:50:36Z</time>
      </trkpt>
      <trkpt lat="47.471212120726705" lon="11.094919787719846">
        <ele>1007.118408203125</ele>
        <time>2013-12-29T08:50:52Z</time>
      </trkpt>
      <trkpt lat="47.471129894256592" lon="11.094727506861091">
        <ele>1009.521728515625</ele>
        <time>2013-12-29T08:51:09Z</time>
      </trkpt>
      <trkpt lat="47.471085637807846" lon="11.094601107761264">
        <ele>1012.88623046875</ele>
        <time>2013-12-29T08:51:21Z</time>
      </trkpt>
      <trkpt lat="47.470978852361441" lon="11.094420310109854">
        <ele>1015.770263671875</ele>
        <time>2013-12-29T08:51:40Z</time>
      </trkpt>
      <trkpt lat="47.470930991694331" lon="11.094365576282144">
        <ele>1015.770263671875</ele>
        <time>2013-12-29T08:51:46Z</time>
      </trkpt>
      <trkpt lat="47.470827139914036" lon="11.094252420589328">
        <ele>1015.770263671875</ele>
        <time>2013-12-29T08:51:59Z</time>
      </trkpt>
      <trkpt lat="47.47071985155344" lon="11.094131385907531">
        <ele>1015.770263671875</ele>
        <time>2013-12-29T08:52:11Z</time>
      </trkpt>
      <trkpt lat="47.470627231523395" lon="11.094042118638754">
        <ele>1015.770263671875</ele>
        <time>2013-12-29T08:52:22Z</time>
      </trkpt>
      <trkpt lat="47.470513405278325" lon="11.093930723145604">
        <ele>1016.250732421875</ele>
        <time>2013-12-29T08:52:33Z</time>
      </trkpt>
      <trkpt lat="47.470379546284676" lon="11.09379761852324">
        <ele>1016.7314453125</ele>
        <time>2013-12-29T08:52:46Z</time>
      </trkpt>
      <trkpt lat="47.470268234610558" lon="11.093737352639437">
        <ele>1018.654052734375</ele>
        <time>2013-12-29T08:52:59Z</time>
      </trkpt>
      <trkpt lat="47.470200005918741" lon="11.093674404546618">
        <ele>1022.018798828125</ele>
        <time>2013-12-29T08:53:11Z</time>
      </trkpt>
      <trkpt lat="47.470112079754472" lon="11.093616234138608">
        <ele>1024.90283203125</ele>
        <time>2013-12-29T08:53:23Z</time>
      </trkpt>
      <trkpt lat="47.47000596486032" lon="11.093514980748296">
        <ele>1027.30615234375</ele>
        <time>2013-12-29T08:53:42Z</time>
      </trkpt>
      <trkpt lat="47.469966318458319" lon="11.093494528904557">
        <ele>1028.748046875</ele>
        <time>2013-12-29T08:53:54Z</time>
      </trkpt>
      <trkpt lat="47.469875207170844" lon="11.093402076512575">
        <ele>1032.112548828125</ele>
        <time>2013-12-29T08:54:06Z</time>
      </trkpt>
      <trkpt lat="47.469768840819597" lon="11.09327576123178">
        <ele>1034.515869140625</ele>
        <time>2013-12-29T08:54:22Z</time>
      </trkpt>
      <trkpt lat="47.469699354842305" lon="11.093110805377364">
        <ele>1037.880615234375</ele>
        <time>2013-12-29T08:54:39Z</time>
      </trkpt>
      <trkpt lat="47.4696443695575" lon="11.092857085168362">
        <ele>1040.283935546875</ele>
        <time>2013-12-29T08:54:59Z</time>
      </trkpt>
      <trkpt lat="47.46962777338922" lon="11.092553492635489">
        <ele>1043.167724609375</ele>
        <time>2013-12-29T08:55:19Z</time>
      </trkpt>
      <trkpt lat="47.469613021239638" lon="11.092229364439845">
        <ele>1045.09033203125</ele>
        <time>2013-12-29T08:55:41Z</time>
      </trkpt>
      <trkpt lat="47.469611428678036" lon="11.092062732204795">
        <ele>1047.974365234375</ele>
        <time>2013-12-29T08:55:54Z</time>
      </trkpt>
      <trkpt lat="47.469621822237968" lon="11.091879922896624">
        <ele>1050.858154296875</ele>
        <time>2013-12-29T08:56:10Z</time>
      </trkpt>
      <trkpt lat="47.46961067430675" lon="11.091651683673263">
        <ele>1052.781005859375</ele>
        <time>2013-12-29T08:56:25Z</time>
      </trkpt>
      <trkpt lat="47.469569351524115" lon="11.091372901573777">
        <ele>1054.22314453125</ele>
        <time>2013-12-29T08:56:43Z</time>
      </trkpt>
      <trkpt lat="47.469550995156169" lon="11.091172406449914">
        <ele>1056.626220703125</ele>
        <time>2013-12-29T08:56:58Z</time>
      </trkpt>
      <trkpt lat="47.469536494463682" lon="11.091014323756099">
        <ele>1059.99072265625</ele>
        <time>2013-12-29T08:57:12Z</time>
      </trkpt>
      <trkpt lat="47.469531800597906" lon="11.090911142528057">
        <ele>1062.874755859375</ele>
        <time>2013-12-29T08:57:23Z</time>
      </trkpt>
      <trkpt lat="47.469550911337137" lon="11.090826988220215">
        <ele>1064.79736328125</ele>
        <time>2013-12-29T08:57:37Z</time>
      </trkpt>
      <trkpt lat="47.46952417306602" lon="11.090748449787498">
        <ele>1066.719970703125</ele>
        <time>2013-12-29T08:57:53Z</time>
      </trkpt>
      <trkpt lat="47.469497350975871" lon="11.090627750381827">
        <ele>1069.604248046875</ele>
        <time>2013-12-29T08:58:06Z</time>
      </trkpt>
      <trkpt lat="47.469442784786224" lon="11.090451730415225">
        <ele>1072.00732421875</ele>
        <time>2013-12-29T08:58:22Z</time>
      </trkpt>
      <trkpt lat="47.469350919127464" lon="11.090316949412227">
        <ele>1074.891357421875</ele>
        <time>2013-12-29T08:58:36Z</time>
      </trkpt>
      <trkpt lat="47.469258634373546" lon="11.090226927772164">
        <ele>1078.255859375</ele>
        <time>2013-12-29T08:58:50Z</time>
      </trkpt>
      <trkpt lat="47.469224352389574" lon="11.090107318013906">
        <ele>1082.10107421875</ele>
        <time>2013-12-29T08:59:06Z</time>
      </trkpt>
      <trkpt lat="47.469230890274048" lon="11.089973961934447">
        <ele>1085.4658203125</ele>
        <time>2013-12-29T08:59:20Z</time>
      </trkpt>
      <trkpt lat="47.469196105375886" lon="11.089839851483703">
        <ele>1088.83056640625</ele>
        <time>2013-12-29T08:59:35Z</time>
      </trkpt>
      <trkpt lat="47.469178754836321" lon="11.089760977774858">
        <ele>1090.7529296875</ele>
        <time>2013-12-29T08:59:55Z</time>
      </trkpt>
      <trkpt lat="47.469168864190578" lon="11.089618904516101">
        <ele>1094.11767578125</ele>
        <time>2013-12-29T09:00:07Z</time>
      </trkpt>
      <trkpt lat="47.469180515035987" lon="11.089497534558177">
        <ele>1097.482177734375</ele>
        <time>2013-12-29T09:00:20Z</time>
      </trkpt>
      <trkpt lat="47.46917481534183" lon="11.089367279782891">
        <ele>1100.846923828125</ele>
        <time>2013-12-29T09:00:33Z</time>
      </trkpt>
      <trkpt lat="47.469168193638325" lon="11.089275665581226">
        <ele>1104.692138671875</ele>
        <time>2013-12-29T09:00:42Z</time>
      </trkpt>
      <trkpt lat="47.469171714037657" lon="11.08921229839325">
        <ele>1104.692138671875</ele>
        <time>2013-12-29T09:00:56Z</time>
      </trkpt>
      <trkpt lat="47.469166684895754" lon="11.089143231511116">
        <ele>1107.095458984375</ele>
        <time>2013-12-29T09:01:06Z</time>
      </trkpt>
      <trkpt lat="47.469153692945838" lon="11.088974000886083">
        <ele>1109.979248046875</ele>
        <time>2013-12-29T09:01:19Z</time>
      </trkpt>
      <trkpt lat="47.469126367941499" lon="11.088865119963884">
        <ele>1111.902099609375</ele>
        <time>2013-12-29T09:01:34Z</time>
      </trkpt>
      <trkpt lat="47.46912888251245" lon="11.088870484381914">
        <ele>1110.4599609375</ele>
        <time>2013-12-29T09:01:37Z</time>
      </trkpt>
      <trkpt lat="47.469129553064704" lon="11.088871154934168">
        <ele>1112.86328125</ele>
        <time>2013-12-29T09:01:40Z</time>
      </trkpt>
      <trkpt lat="47.469129133969545" lon="11.088870400562882">
        <ele>1112.382568359375</ele>
        <time>2013-12-29T09:01:52Z</time>
      </trkpt>
      <trkpt lat="47.468969374895096" lon="11.088954051956534">
        <ele>1113.824462890625</ele>
        <time>2013-12-29T09:02:09Z</time>
      </trkpt>
      <trkpt lat="47.468826295807958" lon="11.088927648961544">
        <ele>1114.785888671875</ele>
        <time>2013-12-29T09:02:22Z</time>
      </trkpt>
      <trkpt lat="47.468699980527163" lon="11.088817594572902">
        <ele>1116.708740234375</ele>
        <time>2013-12-29T09:02:37Z</time>
      </trkpt>
      <trkpt lat="47.468607444316149" lon="11.088688764721155">
        <ele>1119.5927734375</ele>
        <time>2013-12-29T09:02:50Z</time>
      </trkpt>
      <trkpt lat="47.468555308878422" lon="11.08860544860363">
        <ele>1120.553955078125</ele>
        <time>2013-12-29T09:02:58Z</time>
      </trkpt>
      <trkpt lat="47.468416001647711" lon="11.088440073654056">
        <ele>1121.51513671875</ele>
        <time>2013-12-29T09:03:14Z</time>
      </trkpt>
      <trkpt lat="47.46825716458261" lon="11.088233208283782">
        <ele>1121.51513671875</ele>
        <time>2013-12-29T09:03:32Z</time>
      </trkpt>
      <trkpt lat="47.468085754662752" lon="11.087998934090137">
        <ele>1121.51513671875</ele>
        <time>2013-12-29T09:03:51Z</time>
      </trkpt>
      <trkpt lat="47.467909986153245" lon="11.087800785899162">
        <ele>1121.995849609375</ele>
        <time>2013-12-29T09:04:10Z</time>
      </trkpt>
      <trkpt lat="47.467788616195321" lon="11.08770489692688">
        <ele>1121.995849609375</ele>
        <time>2013-12-29T09:04:22Z</time>
      </trkpt>
      <trkpt lat="47.467701947316527" lon="11.087659383192658">
        <ele>1122.957275390625</ele>
        <time>2013-12-29T09:04:32Z</time>
      </trkpt>
      <trkpt lat="47.467611841857433" lon="11.087600039318204">
        <ele>1123.91845703125</ele>
        <time>2013-12-29T09:04:41Z</time>
      </trkpt>
      <trkpt lat="47.467478318139911" lon="11.087549747899175">
        <ele>1125.841064453125</ele>
        <time>2013-12-29T09:04:53Z</time>
      </trkpt>
      <trkpt lat="47.467443700879812" lon="11.087520495057106">
        <ele>1126.802490234375</ele>
        <time>2013-12-29T09:04:59Z</time>
      </trkpt>
      <trkpt lat="47.467421991750598" lon="11.087438771501184">
        <ele>1126.32177734375</ele>
        <time>2013-12-29T09:05:09Z</time>
      </trkpt>
      <trkpt lat="47.467362228780985" lon="11.08742494136095">
        <ele>1127.283203125</ele>
        <time>2013-12-29T09:05:18Z</time>
      </trkpt>
      <trkpt lat="47.467275224626064" lon="11.087403064593673">
        <ele>1128.72509765625</ele>
        <time>2013-12-29T09:05:28Z</time>
      </trkpt>
      <trkpt lat="47.46722811833024" lon="11.087389402091503">
        <ele>1130.1669921875</ele>
        <time>2013-12-29T09:05:37Z</time>
      </trkpt>
      <trkpt lat="47.467098198831081" lon="11.087328130379319">
        <ele>1132.08984375</ele>
        <time>2013-12-29T09:05:52Z</time>
      </trkpt>
      <trkpt lat="47.466936260461807" lon="11.08724414370954">
        <ele>1134.973876953125</ele>
        <time>2013-12-29T09:06:08Z</time>
      </trkpt>
      <trkpt lat="47.466820171102881" lon="11.087183207273483">
        <ele>1135.93505859375</ele>
        <time>2013-12-29T09:06:19Z</time>
      </trkpt>
      <trkpt lat="47.466745907440782" lon="11.087084049358964">
        <ele>1137.376953125</ele>
        <time>2013-12-29T09:06:30Z</time>
      </trkpt>
      <trkpt lat="47.466733250766993" lon="11.087043480947614">
        <ele>1138.33837890625</ele>
        <time>2013-12-29T09:06:36Z</time>
      </trkpt>
      <trkpt lat="47.466700645163655" lon="11.086962847039104">
        <ele>1139.7802734375</ele>
        <time>2013-12-29T09:06:46Z</time>
      </trkpt>
      <trkpt lat="47.466677762567997" lon="11.08679655008018">
        <ele>1142.18359375</ele>
        <time>2013-12-29T09:07:00Z</time>
      </trkpt>
      <trkpt lat="47.466615736484528" lon="11.086650956422091">
        <ele>1144.586669921875</ele>
        <time>2013-12-29T09:07:12Z</time>
      </trkpt>
      <trkpt lat="47.466598972678185" lon="11.086456915363669">
        <ele>1146.02880859375</ele>
        <time>2013-12-29T09:07:26Z</time>
      </trkpt>
      <trkpt lat="47.466555889695883" lon="11.086258767172694">
        <ele>1149.3935546875</ele>
        <time>2013-12-29T09:07:41Z</time>
      </trkpt>
      <trkpt lat="47.466483302414417" lon="11.086055170744658">
        <ele>1151.316162109375</ele>
        <time>2013-12-29T09:07:55Z</time>
      </trkpt>
      <trkpt lat="47.466468550264835" lon="11.085971519351006">
        <ele>1152.27734375</ele>
        <time>2013-12-29T09:08:00Z</time>
      </trkpt>
      <trkpt lat="47.466454971581697" lon="11.085746549069881">
        <ele>1153.719482421875</ele>
        <time>2013-12-29T09:08:14Z</time>
      </trkpt>
      <trkpt lat="47.466414738446474" lon="11.085557201877236">
        <ele>1154.6806640625</ele>
        <time>2013-12-29T09:08:26Z</time>
      </trkpt>
      <trkpt lat="47.466388503089547" lon="11.08534044586122">
        <ele>1155.64208984375</ele>
        <time>2013-12-29T09:08:39Z</time>
      </trkpt>
      <trkpt lat="47.466317256912589" lon="11.085179261863232">
        <ele>1156.12255859375</ele>
        <time>2013-12-29T09:08:50Z</time>
      </trkpt>
      <trkpt lat="47.466218937188387" lon="11.085078846663237">
        <ele>1156.12255859375</ele>
        <time>2013-12-29T09:09:00Z</time>
      </trkpt>
      <trkpt lat="47.466157078742981" lon="11.085017491132021">
        <ele>1155.64208984375</ele>
        <time>2013-12-29T09:09:08Z</time>
      </trkpt>
      <trkpt lat="47.466070577502251" lon="11.084896959364414">
        <ele>1156.12255859375</ele>
        <time>2013-12-29T09:09:59Z</time>
      </trkpt>
      <trkpt lat="47.466065967455506" lon="11.0846973862499">
        <ele>1156.12255859375</ele>
        <time>2013-12-29T09:10:11Z</time>
      </trkpt>
      <trkpt lat="47.466077534481883" lon="11.084477109834552">
        <ele>1155.64208984375</ele>
        <time>2013-12-29T09:10:22Z</time>
      </trkpt>
      <trkpt lat="47.4660524725914" lon="11.08428843319416">
        <ele>1155.161376953125</ele>
        <time>2013-12-29T09:10:32Z</time>
      </trkpt>
      <trkpt lat="47.465982483699918" lon="11.084006214514375">
        <ele>1155.161376953125</ele>
        <time>2013-12-29T09:10:46Z</time>
      </trkpt>
      <trkpt lat="47.466022968292236" lon="11.083754757419229">
        <ele>1154.6806640625</ele>
        <time>2013-12-29T09:10:58Z</time>
      </trkpt>
      <trkpt lat="47.466011065989733" lon="11.083452757447958">
        <ele>1155.161376953125</ele>
        <time>2013-12-29T09:11:13Z</time>
      </trkpt>
      <trkpt lat="47.466031098738313" lon="11.083217561244965">
        <ele>1156.603271484375</ele>
        <time>2013-12-29T09:11:26Z</time>
      </trkpt>
      <trkpt lat="47.466041659936309" lon="11.08300088904798">
        <ele>1157.083984375</ele>
        <time>2013-12-29T09:11:39Z</time>
      </trkpt>
      <trkpt lat="47.466021291911602" lon="11.082732668146491">
        <ele>1158.52587890625</ele>
        <time>2013-12-29T09:11:55Z</time>
      </trkpt>
      <trkpt lat="47.466004528105259" lon="11.082663517445326">
        <ele>1159.4873046875</ele>
        <time>2013-12-29T09:11:59Z</time>
      </trkpt>
      <trkpt lat="47.465959265828133" lon="11.082438044250011">
        <ele>1160.92919921875</ele>
        <time>2013-12-29T09:12:13Z</time>
      </trkpt>
      <trkpt lat="47.465950967743993" lon="11.082309130579233">
        <ele>1161.890625</ele>
        <time>2013-12-29T09:12:24Z</time>
      </trkpt>
      <trkpt lat="47.46593227609992" lon="11.08223469927907">
        <ele>1162.37109375</ele>
        <time>2013-12-29T09:12:35Z</time>
      </trkpt>
      <trkpt lat="47.465924061834812" lon="11.082150796428323">
        <ele>1163.81298828125</ele>
        <time>2013-12-29T09:12:43Z</time>
      </trkpt>
      <trkpt lat="47.465911572799087" lon="11.081995563581586">
        <ele>1166.697265625</ele>
        <time>2013-12-29T09:12:55Z</time>
      </trkpt>
      <trkpt lat="47.46588240377605" lon="11.081871259957552">
        <ele>1168.619873046875</ele>
        <time>2013-12-29T09:13:06Z</time>
      </trkpt>
      <trkpt lat="47.465804200619459" lon="11.081731282174587">
        <ele>1171.023193359375</ele>
        <time>2013-12-29T09:13:19Z</time>
      </trkpt>
      <trkpt lat="47.465693559497595" lon="11.081681912764907">
        <ele>1173.906982421875</ele>
        <time>2013-12-29T09:13:33Z</time>
      </trkpt>
      <trkpt lat="47.46562147513032" lon="11.081717452034354">
        <ele>1177.271728515625</ele>
        <time>2013-12-29T09:13:44Z</time>
      </trkpt>
      <trkpt lat="47.465563723817468" lon="11.081743435934186">
        <ele>1179.194091796875</ele>
        <time>2013-12-29T09:13:57Z</time>
      </trkpt>
      <trkpt lat="47.465540925040841" lon="11.081796241924167">
        <ele>1179.6748046875</ele>
        <time>2013-12-29T09:14:49Z</time>
      </trkpt>
      <trkpt lat="47.465516533702612" lon="11.081909062340856">
        <ele>1179.6748046875</ele>
        <time>2013-12-29T09:15:00Z</time>
      </trkpt>
      <trkpt lat="47.465511001646519" lon="11.082087596878409">
        <ele>1180.636474609375</ele>
        <time>2013-12-29T09:15:12Z</time>
      </trkpt>
      <trkpt lat="47.465506307780743" lon="11.082291025668383">
        <ele>1183.520263671875</ele>
        <time>2013-12-29T09:15:28Z</time>
      </trkpt>
      <trkpt lat="47.465492812916636" lon="11.082449443638325">
        <ele>1186.884765625</ele>
        <time>2013-12-29T09:15:42Z</time>
      </trkpt>
      <trkpt lat="47.465438498184085" lon="11.082594953477383">
        <ele>1188.8076171875</ele>
        <time>2013-12-29T09:15:56Z</time>
      </trkpt>
      <trkpt lat="47.465387787669897" lon="11.082752784714103">
        <ele>1192.172119140625</ele>
        <time>2013-12-29T09:16:11Z</time>
      </trkpt>
      <trkpt lat="47.465352416038513" lon="11.082857809960842">
        <ele>1195.055908203125</ele>
        <time>2013-12-29T09:16:23Z</time>
      </trkpt>
      <trkpt lat="47.465307572856545" lon="11.082999212667346">
        <ele>1197.45947265625</ele>
        <time>2013-12-29T09:16:39Z</time>
      </trkpt>
      <trkpt lat="47.465261472389102" lon="11.083087557926774">
        <ele>1200.343505859375</ele>
        <time>2013-12-29T09:16:52Z</time>
      </trkpt>
      <trkpt lat="47.465221239253879" lon="11.083184452727437">
        <ele>1203.227294921875</ele>
        <time>2013-12-29T09:17:05Z</time>
      </trkpt>
      <trkpt lat="47.465181006118655" lon="11.083280425518751">
        <ele>1205.630615234375</ele>
        <time>2013-12-29T09:17:17Z</time>
      </trkpt>
      <trkpt lat="47.465142533183098" lon="11.083380086347461">
        <ele>1208.514404296875</ele>
        <time>2013-12-29T09:17:29Z</time>
      </trkpt>
      <trkpt lat="47.465103892609477" lon="11.083471281453967">
        <ele>1210.917724609375</ele>
        <time>2013-12-29T09:17:40Z</time>
      </trkpt>
      <trkpt lat="47.465062737464905" lon="11.083588292822242">
        <ele>1214.282470703125</ele>
        <time>2013-12-29T09:17:53Z</time>
      </trkpt>
      <trkpt lat="47.46500289067626" lon="11.083702202886343">
        <ele>1217.64697265625</ele>
        <time>2013-12-29T09:18:07Z</time>
      </trkpt>
      <trkpt lat="47.464963495731354" lon="11.08378509990871">
        <ele>1219.56982421875</ele>
        <time>2013-12-29T09:18:17Z</time>
      </trkpt>
      <trkpt lat="47.464908258989453" lon="11.083919797092676">
        <ele>1222.934326171875</ele>
        <time>2013-12-29T09:18:32Z</time>
      </trkpt>
      <trkpt lat="47.464852770790458" lon="11.084025828167796">
        <ele>1224.85693359375</ele>
        <time>2013-12-29T09:18:45Z</time>
      </trkpt>
      <trkpt lat="47.464795103296638" lon="11.084149377420545">
        <ele>1228.702392578125</ele>
        <time>2013-12-29T09:18:59Z</time>
      </trkpt>
      <trkpt lat="47.46475612744689" lon="11.084289774298668">
        <ele>1230.625</ele>
        <time>2013-12-29T09:19:13Z</time>
      </trkpt>
      <trkpt lat="47.464726204052567" lon="11.084421621635556">
        <ele>1233.989501953125</ele>
        <time>2013-12-29T09:19:26Z</time>
      </trkpt>
      <trkpt lat="47.464713547378778" lon="11.084470152854919">
        <ele>1235.431396484375</ele>
        <time>2013-12-29T09:19:31Z</time>
      </trkpt>
      <trkpt lat="47.464679600670934" lon="11.084597809240222">
        <ele>1238.3154296875</ele>
        <time>2013-12-29T09:19:44Z</time>
      </trkpt>
      <trkpt lat="47.464658226817846" lon="11.084701577201486">
        <ele>1241.19921875</ele>
        <time>2013-12-29T09:19:55Z</time>
      </trkpt>
      <trkpt lat="47.46465596370399" lon="11.084709959104657">
        <ele>1241.19921875</ele>
        <time>2013-12-29T09:19:56Z</time>
      </trkpt>
      <trkpt lat="47.464628471061587" lon="11.084855888038874">
        <ele>1244.56396484375</ele>
        <time>2013-12-29T09:20:10Z</time>
      </trkpt>
      <trkpt lat="47.464625369757414" lon="11.084915148094296">
        <ele>1245.525390625</ele>
        <time>2013-12-29T09:20:21Z</time>
      </trkpt>
      <trkpt lat="47.464613132178783" lon="11.084965355694294">
        <ele>1246.96728515625</ele>
        <time>2013-12-29T09:20:37Z</time>
      </trkpt>
      <trkpt lat="47.464595614001155" lon="11.085137855261564">
        <ele>1249.37060546875</ele>
        <time>2013-12-29T09:20:55Z</time>
      </trkpt>
      <trkpt lat="47.464578850194812" lon="11.085340529680252">
        <ele>1252.735107421875</ele>
        <time>2013-12-29T09:21:11Z</time>
      </trkpt>
      <trkpt lat="47.46457926928997" lon="11.085366848856211">
        <ele>1253.696533203125</ele>
        <time>2013-12-29T09:21:13Z</time>
      </trkpt>
      <trkpt lat="47.464603744447231" lon="11.085558123886585">
        <ele>1255.138427734375</ele>
        <time>2013-12-29T09:21:27Z</time>
      </trkpt>
      <trkpt lat="47.464617323130369" lon="11.085778148844838">
        <ele>1258.0224609375</ele>
        <time>2013-12-29T09:21:42Z</time>
      </trkpt>
      <trkpt lat="47.464613132178783" lon="11.085939081385732">
        <ele>1260.42578125</ele>
        <time>2013-12-29T09:21:55Z</time>
      </trkpt>
      <trkpt lat="47.464644480496645" lon="11.086057517677546">
        <ele>1262.348388671875</ele>
        <time>2013-12-29T09:22:07Z</time>
      </trkpt>
      <trkpt lat="47.464659903198481" lon="11.086115939542651">
        <ele>1263.309814453125</ele>
        <time>2013-12-29T09:22:19Z</time>
      </trkpt>
      <trkpt lat="47.46466375887394" lon="11.086132200434804">
        <ele>1263.309814453125</ele>
        <time>2013-12-29T09:22:20Z</time>
      </trkpt>
      <trkpt lat="47.464703908190131" lon="11.086394051089883">
        <ele>1265.713134765625</ele>
        <time>2013-12-29T09:22:37Z</time>
      </trkpt>
      <trkpt lat="47.464695610105991" lon="11.086564874276519">
        <ele>1266.193603515625</ele>
        <time>2013-12-29T09:22:50Z</time>
      </trkpt>
      <trkpt lat="47.464682953432202" lon="11.086627067998052">
        <ele>1266.193603515625</ele>
        <time>2013-12-29T09:23:10Z</time>
      </trkpt>
      <trkpt lat="47.464637691155076" lon="11.086804429069161">
        <ele>1268.596923828125</ele>
        <time>2013-12-29T09:23:23Z</time>
      </trkpt>
      <trkpt lat="47.464597960934043" lon="11.086945831775665">
        <ele>1271.000244140625</ele>
        <time>2013-12-29T09:23:37Z</time>
      </trkpt>
      <trkpt lat="47.464590920135379" lon="11.086983466520905">
        <ele>1271.96142578125</ele>
        <time>2013-12-29T09:23:41Z</time>
      </trkpt>
      <trkpt lat="47.464551273733377" lon="11.087100729346275">
        <ele>1274.845458984375</ele>
        <time>2013-12-29T09:23:54Z</time>
      </trkpt>
      <trkpt lat="47.464520931243896" lon="11.087188655510545">
        <ele>1278.210205078125</ele>
        <time>2013-12-29T09:24:05Z</time>
      </trkpt>
      <trkpt lat="47.464503915980458" lon="11.087227631360292">
        <ele>1278.69091796875</ele>
        <time>2013-12-29T09:24:18Z</time>
      </trkpt>
      <trkpt lat="47.464472986757755" lon="11.087293932214379">
        <ele>1280.1328125</ele>
        <time>2013-12-29T09:24:31Z</time>
      </trkpt>
      <trkpt lat="47.46444440446794" lon="11.087389402091503">
        <ele>1283.97802734375</ele>
        <time>2013-12-29T09:24:42Z</time>
      </trkpt>
      <trkpt lat="47.464420599862933" lon="11.087494092062116">
        <ele>1287.342529296875</ele>
        <time>2013-12-29T09:24:54Z</time>
      </trkpt>
      <trkpt lat="47.464380115270615" lon="11.08759593218565">
        <ele>1289.26513671875</ele>
        <time>2013-12-29T09:25:08Z</time>
      </trkpt>
      <trkpt lat="47.464381540194154" lon="11.087594842538238">
        <ele>1289.745849609375</ele>
        <time>2013-12-29T09:25:55Z</time>
      </trkpt>
      <trkpt lat="47.464380534365773" lon="11.087663574144244">
        <ele>1290.70703125</ele>
        <time>2013-12-29T09:26:24Z</time>
      </trkpt>
      <trkpt lat="47.464368296787143" lon="11.087888376787305">
        <ele>1294.072021484375</ele>
        <time>2013-12-29T09:26:41Z</time>
      </trkpt>
      <trkpt lat="47.464383887127042" lon="11.088036317378283">
        <ele>1296.955810546875</ele>
        <time>2013-12-29T09:26:54Z</time>
      </trkpt>
      <trkpt lat="47.464429065585136" lon="11.08820621855557">
        <ele>1300.320556640625</ele>
        <time>2013-12-29T09:27:11Z</time>
      </trkpt>
      <trkpt lat="47.464476255699992" lon="11.088373437523842">
        <ele>1303.68505859375</ele>
        <time>2013-12-29T09:27:29Z</time>
      </trkpt>
      <trkpt lat="47.464507268741727" lon="11.088463962078094">
        <ele>1305.607666015625</ele>
        <time>2013-12-29T09:27:44Z</time>
      </trkpt>
      <trkpt lat="47.464524200186133" lon="11.088632270693779">
        <ele>1308.01123046875</ele>
        <time>2013-12-29T09:27:59Z</time>
      </trkpt>
      <trkpt lat="47.464537024497986" lon="11.088637886568904">
        <ele>1308.01123046875</ele>
        <time>2013-12-29T09:28:27Z</time>
      </trkpt>
      <trkpt lat="47.464529648423195" lon="11.088722124695778">
        <ele>1308.972412109375</ele>
        <time>2013-12-29T09:28:45Z</time>
      </trkpt>
      <trkpt lat="47.464510286226869" lon="11.088821282610297">
        <ele>1311.8564453125</ele>
        <time>2013-12-29T09:28:56Z</time>
      </trkpt>
      <trkpt lat="47.464508106932044" lon="11.088857157155871">
        <ele>1311.8564453125</ele>
        <time>2013-12-29T09:29:37Z</time>
      </trkpt>
      <trkpt lat="47.464487235993147" lon="11.089007863774896">
        <ele>1314.259521484375</ele>
        <time>2013-12-29T09:29:53Z</time>
      </trkpt>
      <trkpt lat="47.464439962059259" lon="11.089122192934155">
        <ele>1317.6240234375</ele>
        <time>2013-12-29T09:30:06Z</time>
      </trkpt>
      <trkpt lat="47.464420683681965" lon="11.089147673919797">
        <ele>1318.104736328125</ele>
        <time>2013-12-29T09:30:10Z</time>
      </trkpt>
      <trkpt lat="47.464350778609514" lon="11.089224200695753">
        <ele>1320.98876953125</ele>
        <time>2013-12-29T09:30:23Z</time>
      </trkpt>
      <trkpt lat="47.46432127431035" lon="11.089249011129141">
        <ele>1321.949951171875</ele>
        <time>2013-12-29T09:30:33Z</time>
      </trkpt>
      <trkpt lat="47.464268133044243" lon="11.089315228164196">
        <ele>1324.834228515625</ele>
        <time>2013-12-29T09:30:43Z</time>
      </trkpt>
      <trkpt lat="47.464219769462943" lon="11.089329561218619">
        <ele>1328.19873046875</ele>
        <time>2013-12-29T09:30:52Z</time>
      </trkpt>
      <trkpt lat="47.464190935716033" lon="11.089300308376551">
        <ele>1328.19873046875</ele>
        <time>2013-12-29T09:31:00Z</time>
      </trkpt>
      <trkpt lat="47.464121868833899" lon="11.089243646711111">
        <ele>1331.563232421875</ele>
        <time>2013-12-29T09:31:12Z</time>
      </trkpt>
      <trkpt lat="47.464103931561112" lon="11.089225793257356">
        <ele>1331.082763671875</ele>
        <time>2013-12-29T09:31:24Z</time>
      </trkpt>
      <trkpt lat="47.464090855792165" lon="11.089216908439994">
        <ele>1332.0439453125</ele>
        <time>2013-12-29T09:31:28Z</time>
      </trkpt>
      <trkpt lat="47.463977113366127" lon="11.089124036952853">
        <ele>1335.88916015625</ele>
        <time>2013-12-29T09:31:45Z</time>
      </trkpt>
      <trkpt lat="47.463881811127067" lon="11.089049354195595">
        <ele>1337.811767578125</ele>
        <time>2013-12-29T09:32:03Z</time>
      </trkpt>
      <trkpt lat="47.463832860812545" lon="11.089013898745179">
        <ele>1338.773193359375</ele>
        <time>2013-12-29T09:32:26Z</time>
      </trkpt>
      <trkpt lat="47.463711574673653" lon="11.088906107470393">
        <ele>1341.6572265625</ele>
        <time>2013-12-29T09:32:42Z</time>
      </trkpt>
      <trkpt lat="47.463605543598533" lon="11.088756741955876">
        <ele>1345.021728515625</ele>
        <time>2013-12-29T09:33:00Z</time>
      </trkpt>
      <trkpt lat="47.463486604392529" lon="11.088586170226336">
        <ele>1347.425048828125</ele>
        <time>2013-12-29T09:33:18Z</time>
      </trkpt>
      <trkpt lat="47.463424326851964" lon="11.088497573509812">
        <ele>1350.78955078125</ele>
        <time>2013-12-29T09:33:31Z</time>
      </trkpt>
      <trkpt lat="47.463345704600215" lon="11.08839338645339">
        <ele>1353.673583984375</ele>
        <time>2013-12-29T09:33:44Z</time>
      </trkpt>
      <trkpt lat="47.463251994922757" lon="11.088254246860743">
        <ele>1357.038330078125</ele>
        <time>2013-12-29T09:34:00Z</time>
      </trkpt>
      <trkpt lat="47.46312752366066" lon="11.088079567998648">
        <ele>1359.922119140625</ele>
        <time>2013-12-29T09:34:18Z</time>
      </trkpt>
      <trkpt lat="47.46305133216083" lon="11.087948642671108">
        <ele>1360.883544921875</ele>
        <time>2013-12-29T09:34:31Z</time>
      </trkpt>
      <trkpt lat="47.462936667725444" lon="11.087734065949917">
        <ele>1360.883544921875</ele>
        <time>2013-12-29T09:34:48Z</time>
      </trkpt>
      <trkpt lat="47.46283340267837" lon="11.087531559169292">
        <ele>1361.844970703125</ele>
        <time>2013-12-29T09:35:05Z</time>
      </trkpt>
      <trkpt lat="47.462695939466357" lon="11.087341541424394">
        <ele>1362.325439453125</ele>
        <time>2013-12-29T09:35:22Z</time>
      </trkpt>
      <trkpt lat="47.462524445727468" lon="11.087145823985338">
        <ele>1365.20947265625</ele>
        <time>2013-12-29T09:35:44Z</time>
      </trkpt>
      <trkpt lat="47.462395951151848" lon="11.086996626108885">
        <ele>1366.170654296875</ele>
        <time>2013-12-29T09:36:00Z</time>
      </trkpt>
      <trkpt lat="47.462266199290752" lon="11.086851200088859">
        <ele>1368.09326171875</ele>
        <time>2013-12-29T09:36:16Z</time>
      </trkpt>
      <trkpt lat="47.462175423279405" lon="11.08673008158803">
        <ele>1368.09326171875</ele>
        <time>2013-12-29T09:36:30Z</time>
      </trkpt>
      <trkpt lat="47.462148768827319" lon="11.086681634187698">
        <ele>1368.09326171875</ele>
        <time>2013-12-29T09:37:07Z</time>
      </trkpt>
      <trkpt lat="47.462056400254369" lon="11.086466303095222">
        <ele>1368.573974609375</ele>
        <time>2013-12-29T09:37:21Z</time>
      </trkpt>
      <trkpt lat="47.461950201541185" lon="11.086236722767353">
        <ele>1369.535400390625</ele>
        <time>2013-12-29T09:37:38Z</time>
      </trkpt>
      <trkpt lat="47.461823634803295" lon="11.086142426356673">
        <ele>1371.9384765625</ele>
        <time>2013-12-29T09:37:54Z</time>
      </trkpt>
      <trkpt lat="47.461801422759891" lon="11.086119711399078">
        <ele>1371.9384765625</ele>
        <time>2013-12-29T09:38:02Z</time>
      </trkpt>
      <trkpt lat="47.461705282330513" lon="11.086019966751337">
        <ele>1374.342041015625</ele>
        <time>2013-12-29T09:38:14Z</time>
      </trkpt>
      <trkpt lat="47.461583409458399" lon="11.085915947332978">
        <ele>1375.783935546875</ele>
        <time>2013-12-29T09:38:28Z</time>
      </trkpt>
      <trkpt lat="47.461454160511494" lon="11.085845287889242">
        <ele>1378.66796875</ele>
        <time>2013-12-29T09:38:44Z</time>
      </trkpt>
      <trkpt lat="47.461286941543221" lon="11.085769347846508">
        <ele>1381.0712890625</ele>
        <time>2013-12-29T09:39:03Z</time>
      </trkpt>
      <trkpt lat="47.4611602909863" lon="11.085655940696597">
        <ele>1382.99365234375</ele>
        <time>2013-12-29T09:39:18Z</time>
      </trkpt>
      <trkpt lat="47.461022492498159" lon="11.085507748648524">
        <ele>1385.39697265625</ele>
        <time>2013-12-29T09:39:37Z</time>
      </trkpt>
      <trkpt lat="47.460893914103508" lon="11.085357880219817">
        <ele>1388.761962890625</ele>
        <time>2013-12-29T09:39:56Z</time>
      </trkpt>
      <trkpt lat="47.460806239396334" lon="11.085232403129339">
        <ele>1391.645751953125</ele>
        <time>2013-12-29T09:40:11Z</time>
      </trkpt>
      <trkpt lat="47.460705488920212" lon="11.085137771442533">
        <ele>1394.049072265625</ele>
        <time>2013-12-29T09:40:26Z</time>
      </trkpt>
      <trkpt lat="47.460631895810366" lon="11.085062501952052">
        <ele>1397.894287109375</ele>
        <time>2013-12-29T09:40:39Z</time>
      </trkpt>
      <trkpt lat="47.460525613278151" lon="11.084942305460572">
        <ele>1401.739501953125</ele>
        <time>2013-12-29T09:40:57Z</time>
      </trkpt>
      <trkpt lat="47.460442967712879" lon="11.084803501144052">
        <ele>1404.62353515625</ele>
        <time>2013-12-29T09:41:13Z</time>
      </trkpt>
      <trkpt lat="47.460348336026073" lon="11.084713563323021">
        <ele>1407.98828125</ele>
        <time>2013-12-29T09:41:28Z</time>
      </trkpt>
      <trkpt lat="47.460244568064809" lon="11.084555983543396">
        <ele>1410.391357421875</ele>
        <time>2013-12-29T09:41:47Z</time>
      </trkpt>
      <trkpt lat="47.46014004573226" lon="11.084446851164103">
        <ele>1412.31396484375</ele>
        <time>2013-12-29T09:42:01Z</time>
      </trkpt>
      <trkpt lat="47.460024543106556" lon="11.084296898916364">
        <ele>1413.755859375</ele>
        <time>2013-12-29T09:42:16Z</time>
      </trkpt>
      <trkpt lat="47.459910549223423" lon="11.084096990525723">
        <ele>1415.197998046875</ele>
        <time>2013-12-29T09:42:32Z</time>
      </trkpt>
      <trkpt lat="47.459840895608068" lon="11.083919880911708">
        <ele>1415.6787109375</ele>
        <time>2013-12-29T09:42:44Z</time>
      </trkpt>
      <trkpt lat="47.459740731865168" lon="11.083700694143772">
        <ele>1416.1591796875</ele>
        <time>2013-12-29T09:42:59Z</time>
      </trkpt>
      <trkpt lat="47.459652135148644" lon="11.083471952006221">
        <ele>1417.12060546875</ele>
        <time>2013-12-29T09:43:14Z</time>
      </trkpt>
      <trkpt lat="47.459548367187381" lon="11.083241701126099">
        <ele>1417.12060546875</ele>
        <time>2013-12-29T09:43:31Z</time>
      </trkpt>
      <trkpt lat="47.459447868168354" lon="11.083044558763504">
        <ele>1416.639892578125</ele>
        <time>2013-12-29T09:43:45Z</time>
      </trkpt>
      <trkpt lat="47.459356253966689" lon="11.082846242934465">
        <ele>1418.5625</ele>
        <time>2013-12-29T09:44:00Z</time>
      </trkpt>
      <trkpt lat="47.459265058860183" lon="11.082651447504759">
        <ele>1420.966064453125</ele>
        <time>2013-12-29T09:44:17Z</time>
      </trkpt>
      <trkpt lat="47.459175959229469" lon="11.0824731644243">
        <ele>1423.369384765625</ele>
        <time>2013-12-29T09:44:33Z</time>
      </trkpt>
      <trkpt lat="47.45914913713932" lon="11.082315417006612">
        <ele>1427.214599609375</ele>
        <time>2013-12-29T09:44:47Z</time>
      </trkpt>
      <trkpt lat="47.459132121875882" lon="11.082131853327155">
        <ele>1430.5791015625</ele>
        <time>2013-12-29T09:45:01Z</time>
      </trkpt>
      <trkpt lat="47.459099097177386" lon="11.082069994881749">
        <ele>1430.098388671875</ele>
        <time>2013-12-29T09:45:08Z</time>
      </trkpt>
      <trkpt lat="47.459060456603765" lon="11.082070916891098">
        <ele>1431.059814453125</ele>
        <time>2013-12-29T09:45:17Z</time>
      </trkpt>
      <trkpt lat="47.459062552079558" lon="11.082068150863051">
        <ele>1431.540283203125</ele>
        <time>2013-12-29T09:45:20Z</time>
      </trkpt>
      <trkpt lat="47.459061965346336" lon="11.081868913024664">
        <ele>1429.136962890625</ele>
        <time>2013-12-29T09:45:28Z</time>
      </trkpt>
      <trkpt lat="47.459053248167038" lon="11.081611420959234">
        <ele>1427.214599609375</ele>
        <time>2013-12-29T09:45:34Z</time>
      </trkpt>
      <trkpt lat="47.45902449823916" lon="11.081397598609328">
        <ele>1426.73388671875</ele>
        <time>2013-12-29T09:45:44Z</time>
      </trkpt>
      <trkpt lat="47.45886716991663" lon="11.08126868493855">
        <ele>1426.253173828125</ele>
        <time>2013-12-29T09:45:55Z</time>
      </trkpt>
      <trkpt lat="47.458732640370727" lon="11.081223841756582">
        <ele>1425.7724609375</ele>
        <time>2013-12-29T09:46:05Z</time>
      </trkpt>
      <trkpt lat="47.458559134975076" lon="11.081172209233046">
        <ele>1425.7724609375</ele>
        <time>2013-12-29T09:46:16Z</time>
      </trkpt>
      <trkpt lat="47.458475148305297" lon="11.081217555329204">
        <ele>1428.656494140625</ele>
        <time>2013-12-29T09:46:29Z</time>
      </trkpt>
      <trkpt lat="47.458416307345033" lon="11.081342780962586">
        <ele>1432.02099609375</ele>
        <time>2013-12-29T09:46:42Z</time>
      </trkpt>
      <trkpt lat="47.458346486091614" lon="11.081449817866087">
        <ele>1434.905029296875</ele>
        <time>2013-12-29T09:46:55Z</time>
      </trkpt>
      <trkpt lat="47.458305666223168" lon="11.081586526706815">
        <ele>1436.82763671875</ele>
        <time>2013-12-29T09:47:08Z</time>
      </trkpt>
      <trkpt lat="47.458285633474588" lon="11.081615360453725">
        <ele>1438.269775390625</ele>
        <time>2013-12-29T09:47:14Z</time>
      </trkpt>
      <trkpt lat="47.45821438729763" lon="11.081757349893451">
        <ele>1440.6728515625</ele>
        <time>2013-12-29T09:47:28Z</time>
      </trkpt>
      <trkpt lat="47.458162335678935" lon="11.081851981580257">
        <ele>1443.076171875</ele>
        <time>2013-12-29T09:47:40Z</time>
      </trkpt>
      <trkpt lat="47.458116905763745" lon="11.081876205280423">
        <ele>1443.076171875</ele>
        <time>2013-12-29T09:47:47Z</time>
      </trkpt>
      <trkpt lat="47.457968797534704" lon="11.081903027370572">
        <ele>1444.51806640625</ele>
        <time>2013-12-29T09:48:00Z</time>
      </trkpt>
      <trkpt lat="47.457800237461925" lon="11.08180764131248">
        <ele>1444.03759765625</ele>
        <time>2013-12-29T09:48:15Z</time>
      </trkpt>
      <trkpt lat="47.457697056233883" lon="11.081711919978261">
        <ele>1444.998779296875</ele>
        <time>2013-12-29T09:48:26Z</time>
      </trkpt>
      <trkpt lat="47.45758649893105" lon="11.081589795649052">
        <ele>1444.03759765625</ele>
        <time>2013-12-29T09:48:37Z</time>
      </trkpt>
      <trkpt lat="47.45745062828064" lon="11.081507569178939">
        <ele>1444.998779296875</ele>
        <time>2013-12-29T09:48:50Z</time>
      </trkpt>
      <trkpt lat="47.457319116219878" lon="11.081356192007661">
        <ele>1446.44091796875</ele>
        <time>2013-12-29T09:49:06Z</time>
      </trkpt>
      <trkpt lat="47.457249462604523" lon="11.081258039921522">
        <ele>1448.843994140625</ele>
        <time>2013-12-29T09:49:19Z</time>
      </trkpt>
      <trkpt lat="47.457194896414876" lon="11.081140274181962">
        <ele>1450.7666015625</ele>
        <time>2013-12-29T09:49:32Z</time>
      </trkpt>
      <trkpt lat="47.457160111516714" lon="11.080973977223039">
        <ele>1453.170166015625</ele>
        <time>2013-12-29T09:49:46Z</time>
      </trkpt>
      <trkpt lat="47.457108311355114" lon="11.08077616430819">
        <ele>1456.053955078125</ele>
        <time>2013-12-29T09:50:02Z</time>
      </trkpt>
      <trkpt lat="47.457069084048271" lon="11.080660158768296">
        <ele>1457.49609375</ele>
        <time>2013-12-29T09:50:13Z</time>
      </trkpt>
      <trkpt lat="47.457053493708372" lon="11.080597629770637">
        <ele>1458.457275390625</ele>
        <time>2013-12-29T09:50:21Z</time>
      </trkpt>
      <trkpt lat="47.457059361040592" lon="11.080492855980992">
        <ele>1459.418701171875</ele>
        <time>2013-12-29T09:50:30Z</time>
      </trkpt>
      <trkpt lat="47.457038071006536" lon="11.08037643134594">
        <ele>1460.860595703125</ele>
        <time>2013-12-29T09:50:39Z</time>
      </trkpt>
      <trkpt lat="47.457033963873982" lon="11.080356063321233">
        <ele>1459.418701171875</ele>
        <time>2013-12-29T09:50:41Z</time>
      </trkpt>
      <trkpt lat="47.457035221159458" lon="11.080336449667811">
        <ele>1459.899169921875</ele>
        <time>2013-12-29T09:50:46Z</time>
      </trkpt>
      <trkpt lat="47.457032119855285" lon="11.08032857067883">
        <ele>1460.860595703125</ele>
        <time>2013-12-29T09:50:50Z</time>
      </trkpt>
      <trkpt lat="47.457007309421897" lon="11.080279536545277">
        <ele>1461.822021484375</ele>
        <time>2013-12-29T09:50:57Z</time>
      </trkpt>
      <trkpt lat="47.456962717697024" lon="11.080157328397036">
        <ele>1463.263916015625</ele>
        <time>2013-12-29T09:51:10Z</time>
      </trkpt>
      <trkpt lat="47.456938158720732" lon="11.080012656748295">
        <ele>1465.667236328125</ele>
        <time>2013-12-29T09:51:23Z</time>
      </trkpt>
      <trkpt lat="47.456904882565141" lon="11.07989908196032">
        <ele>1466.62841796875</ele>
        <time>2013-12-29T09:51:33Z</time>
      </trkpt>
      <trkpt lat="47.456864817067981" lon="11.079745357856154">
        <ele>1468.55126953125</ele>
        <time>2013-12-29T09:51:46Z</time>
      </trkpt>
      <trkpt lat="47.45686087757349" lon="11.079590208828449">
        <ele>1470.473876953125</ele>
        <time>2013-12-29T09:51:58Z</time>
      </trkpt>
      <trkpt lat="47.456862973049283" lon="11.079477639868855">
        <ele>1471.43505859375</ele>
        <time>2013-12-29T09:52:06Z</time>
      </trkpt>
      <trkpt lat="47.456840425729752" lon="11.079354342073202">
        <ele>1472.396484375</ele>
        <time>2013-12-29T09:52:15Z</time>
      </trkpt>
      <trkpt lat="47.456808909773827" lon="11.07921939343214">
        <ele>1473.83837890625</ele>
        <time>2013-12-29T09:52:26Z</time>
      </trkpt>
      <trkpt lat="47.456763898953795" lon="11.079030046239495">
        <ele>1475.760986328125</ele>
        <time>2013-12-29T09:52:39Z</time>
      </trkpt>
      <trkpt lat="47.456708326935768" lon="11.07878789305687">
        <ele>1474.319091796875</ele>
        <time>2013-12-29T09:52:52Z</time>
      </trkpt>
      <trkpt lat="47.456673961132765" lon="11.07853383757174">
        <ele>1473.83837890625</ele>
        <time>2013-12-29T09:53:05Z</time>
      </trkpt>
      <trkpt lat="47.456649905070662" lon="11.078296545892954">
        <ele>1475.2802734375</ele>
        <time>2013-12-29T09:53:21Z</time>
      </trkpt>
      <trkpt lat="47.456559799611568" lon="11.078165117651224">
        <ele>1477.203125</ele>
        <time>2013-12-29T09:53:34Z</time>
      </trkpt>
      <trkpt lat="47.45644991286099" lon="11.078052632510662">
        <ele>1478.164306640625</ele>
        <time>2013-12-29T09:53:46Z</time>
      </trkpt>
      <trkpt lat="47.456365507096052" lon="11.077898992225528">
        <ele>1480.567626953125</ele>
        <time>2013-12-29T09:53:59Z</time>
      </trkpt>
      <trkpt lat="47.456278838217258" lon="11.077733281999826">
        <ele>1482.009521484375</ele>
        <time>2013-12-29T09:54:14Z</time>
      </trkpt>
      <trkpt lat="47.456211280077696" lon="11.077543767169118">
        <ele>1483.93212890625</ele>
        <time>2013-12-29T09:54:28Z</time>
      </trkpt>
      <trkpt lat="47.456136010587215" lon="11.077363640069962">
        <ele>1483.93212890625</ele>
        <time>2013-12-29T09:54:41Z</time>
      </trkpt>
      <trkpt lat="47.456041965633631" lon="11.077245706692338">
        <ele>1484.893798828125</ele>
        <time>2013-12-29T09:54:53Z</time>
      </trkpt>
      <trkpt lat="47.455915063619614" lon="11.077117966488004">
        <ele>1486.335693359375</ele>
        <time>2013-12-29T09:55:07Z</time>
      </trkpt>
      <trkpt lat="47.455752454698086" lon="11.076954854652286">
        <ele>1485.85498046875</ele>
        <time>2013-12-29T09:55:21Z</time>
      </trkpt>
      <trkpt lat="47.455635694786906" lon="11.076798783615232">
        <ele>1485.374267578125</ele>
        <time>2013-12-29T09:55:34Z</time>
      </trkpt>
      <trkpt lat="47.455556653439999" lon="11.076591750606894">
        <ele>1484.893798828125</ele>
        <time>2013-12-29T09:55:45Z</time>
      </trkpt>
      <trkpt lat="47.455617422237992" lon="11.076393099501729">
        <ele>1486.335693359375</ele>
        <time>2013-12-29T09:55:59Z</time>
      </trkpt>
      <trkpt lat="47.455631839111447" lon="11.076196879148483">
        <ele>1485.374267578125</ele>
        <time>2013-12-29T09:56:09Z</time>
      </trkpt>
      <trkpt lat="47.455573501065373" lon="11.075981045141816">
        <ele>1485.85498046875</ele>
        <time>2013-12-29T09:56:21Z</time>
      </trkpt>
      <trkpt lat="47.455511558800936" lon="11.075784657150507">
        <ele>1486.816162109375</ele>
        <time>2013-12-29T09:56:34Z</time>
      </trkpt>
      <trkpt lat="47.455444922670722" lon="11.07562012039125">
        <ele>1488.739013671875</ele>
        <time>2013-12-29T09:56:47Z</time>
      </trkpt>
      <trkpt lat="47.455411814153194" lon="11.075499840080738">
        <ele>1490.180908203125</ele>
        <time>2013-12-29T09:56:57Z</time>
      </trkpt>
      <trkpt lat="47.455379376187921" lon="11.0753567609936">
        <ele>1493.54541015625</ele>
        <time>2013-12-29T09:57:09Z</time>
      </trkpt>
      <trkpt lat="47.455325396731496" lon="11.075167078524828">
        <ele>1496.429443359375</ele>
        <time>2013-12-29T09:57:25Z</time>
      </trkpt>
      <trkpt lat="47.45530410669744" lon="11.075103627517819">
        <ele>1497.390625</ele>
        <time>2013-12-29T09:57:33Z</time>
      </trkpt>
      <trkpt lat="47.455276278778911" lon="11.075015030801296">
        <ele>1497.871337890625</ele>
        <time>2013-12-29T09:57:44Z</time>
      </trkpt>
      <trkpt lat="47.455252641811967" lon="11.074966080486774">
        <ele>1498.351806640625</ele>
        <time>2013-12-29T09:57:54Z</time>
      </trkpt>
      <trkpt lat="47.455217018723488" lon="11.074921991676092">
        <ele>1499.313232421875</ele>
        <time>2013-12-29T09:58:02Z</time>
      </trkpt>
      <trkpt lat="47.455216767266393" lon="11.074902797117829">
        <ele>1498.83251953125</ele>
        <time>2013-12-29T09:58:14Z</time>
      </trkpt>
      <trkpt lat="47.455214587971568" lon="11.074906317517161">
        <ele>1498.83251953125</ele>
        <time>2013-12-29T09:58:46Z</time>
      </trkpt>
      <trkpt lat="47.455204362049699" lon="11.07488963752985">
        <ele>1498.351806640625</ele>
        <time>2013-12-29T09:58:57Z</time>
      </trkpt>
      <trkpt lat="47.455078130587935" lon="11.074737925082445">
        <ele>1498.83251953125</ele>
        <time>2013-12-29T09:59:10Z</time>
      </trkpt>
      <trkpt lat="47.454933375120163" lon="11.074619572609663">
        <ele>1500.75537109375</ele>
        <time>2013-12-29T09:59:25Z</time>
      </trkpt>
      <trkpt lat="47.454823320731521" lon="11.074504572898149">
        <ele>1502.677978515625</ele>
        <time>2013-12-29T09:59:39Z</time>
      </trkpt>
      <trkpt lat="47.454739836975932" lon="11.074385130777955">
        <ele>1504.6005859375</ele>
        <time>2013-12-29T09:59:52Z</time>
      </trkpt>
      <trkpt lat="47.454674290493131" lon="11.074277507141232">
        <ele>1507.00390625</ele>
        <time>2013-12-29T10:00:03Z</time>
      </trkpt>
      <trkpt lat="47.454591896384954" lon="11.074114982038736">
        <ele>1508.926513671875</ele>
        <time>2013-12-29T10:00:19Z</time>
      </trkpt>
      <trkpt lat="47.454565828666091" lon="11.073938459157944">
        <ele>1511.810546875</ele>
        <time>2013-12-29T10:00:34Z</time>
      </trkpt>
      <trkpt lat="47.454559961333871" lon="11.07390065677464">
        <ele>1511.810546875</ele>
        <time>2013-12-29T10:00:44Z</time>
      </trkpt>
      <trkpt lat="47.454548478126526" lon="11.073824968189001">
        <ele>1513.25244140625</ele>
        <time>2013-12-29T10:01:00Z</time>
      </trkpt>
      <trkpt lat="47.454525260254741" lon="11.073630256578326">
        <ele>1515.175048828125</ele>
        <time>2013-12-29T10:01:13Z</time>
      </trkpt>
      <trkpt lat="47.454493660479784" lon="11.073407465592027">
        <ele>1518.05908203125</ele>
        <time>2013-12-29T10:01:29Z</time>
      </trkpt>
      <trkpt lat="47.454436244443059" lon="11.073209904134274">
        <ele>1521.423583984375</ele>
        <time>2013-12-29T10:01:45Z</time>
      </trkpt>
      <trkpt lat="47.454367764294147" lon="11.073046205565333">
        <ele>1523.826904296875</ele>
        <time>2013-12-29T10:02:00Z</time>
      </trkpt>
      <trkpt lat="47.454267181456089" lon="11.072835400700569">
        <ele>1526.7109375</ele>
        <time>2013-12-29T10:02:18Z</time>
      </trkpt>
      <trkpt lat="47.454158887267113" lon="11.072612358257174">
        <ele>1527.191650390625</ele>
        <time>2013-12-29T10:02:35Z</time>
      </trkpt>
      <trkpt lat="47.454053275287151" lon="11.072395099326968">
        <ele>1528.633544921875</ele>
        <time>2013-12-29T10:02:52Z</time>
      </trkpt>
      <trkpt lat="47.454034248366952" lon="11.072184126824141">
        <ele>1530.55615234375</ele>
        <time>2013-12-29T10:03:07Z</time>
      </trkpt>
      <trkpt lat="47.454014467075467" lon="11.071951445192099">
        <ele>1532.95947265625</ele>
        <time>2013-12-29T10:03:23Z</time>
      </trkpt>
      <trkpt lat="47.454018238931894" lon="11.071747597306967">
        <ele>1534.401611328125</ele>
        <time>2013-12-29T10:03:36Z</time>
      </trkpt>
      <trkpt lat="47.454058891162276" lon="11.071487842127681">
        <ele>1536.8046875</ele>
        <time>2013-12-29T10:03:53Z</time>
      </trkpt>
      <trkpt lat="47.454078001901507" lon="11.071272427216172">
        <ele>1539.688720703125</ele>
        <time>2013-12-29T10:04:09Z</time>
      </trkpt>
      <trkpt lat="47.454075319692492" lon="11.071116691455245">
        <ele>1542.57275390625</ele>
        <time>2013-12-29T10:04:23Z</time>
      </trkpt>
      <trkpt lat="47.454003486782312" lon="11.071015605702996">
        <ele>1544.975830078125</ele>
        <time>2013-12-29T10:04:37Z</time>
      </trkpt>
      <trkpt lat="47.453983034938574" lon="11.070998255163431">
        <ele>1545.937255859375</ele>
        <time>2013-12-29T10:04:40Z</time>
      </trkpt>
      <trkpt lat="47.453937940299511" lon="11.070953328162432">
        <ele>1545.937255859375</ele>
        <time>2013-12-29T10:04:51Z</time>
      </trkpt>
      <trkpt lat="47.453937772661448" lon="11.07095860876143">
        <ele>1546.41796875</ele>
        <time>2013-12-29T10:05:31Z</time>
      </trkpt>
      <trkpt lat="47.453910866752267" lon="11.070935977622867">
        <ele>1546.8984375</ele>
        <time>2013-12-29T10:05:44Z</time>
      </trkpt>
      <trkpt lat="47.453903239220381" lon="11.070897839963436">
        <ele>1547.379150390625</ele>
        <time>2013-12-29T10:05:50Z</time>
      </trkpt>
      <trkpt lat="47.453928468748927" lon="11.070811422541738">
        <ele>1549.78271484375</ele>
        <time>2013-12-29T10:05:58Z</time>
      </trkpt>
      <trkpt lat="47.454002564772964" lon="11.070681167766452">
        <ele>1553.147216796875</ele>
        <time>2013-12-29T10:06:12Z</time>
      </trkpt>
      <trkpt lat="47.45398135855794" lon="11.070561138913035">
        <ele>1555.06982421875</ele>
        <time>2013-12-29T10:06:23Z</time>
      </trkpt>
      <trkpt lat="47.453972976654768" lon="11.070539094507694">
        <ele>1555.06982421875</ele>
        <time>2013-12-29T10:06:25Z</time>
      </trkpt>
      <trkpt lat="47.453918745741248" lon="11.070439768955112">
        <ele>1556.992431640625</ele>
        <time>2013-12-29T10:06:36Z</time>
      </trkpt>
      <trkpt lat="47.453857222571969" lon="11.070407079532743">
        <ele>1558.9150390625</ele>
        <time>2013-12-29T10:06:45Z</time>
      </trkpt>
      <trkpt lat="47.45382939465344" lon="11.070304485037923">
        <ele>1560.35693359375</ele>
        <time>2013-12-29T10:06:53Z</time>
      </trkpt>
      <trkpt lat="47.453827131539583" lon="11.070224270224571">
        <ele>1562.76025390625</ele>
        <time>2013-12-29T10:07:02Z</time>
      </trkpt>
      <trkpt lat="47.453836351633072" lon="11.070149755105376">
        <ele>1562.76025390625</ele>
        <time>2013-12-29T10:07:08Z</time>
      </trkpt>
      <trkpt lat="47.453847080469131" lon="11.070039952173829">
        <ele>1564.68310546875</ele>
        <time>2013-12-29T10:07:16Z</time>
      </trkpt>
      <trkpt lat="47.453782120719552" lon="11.070029139518738">
        <ele>1565.64453125</ele>
        <time>2013-12-29T10:07:25Z</time>
      </trkpt>
      <trkpt lat="47.453694613650441" lon="11.070065433159471">
        <ele>1568.047607421875</ele>
        <time>2013-12-29T10:07:37Z</time>
      </trkpt>
      <trkpt lat="47.453599646687508" lon="11.070095775648952">
        <ele>1570.931640625</ele>
        <time>2013-12-29T10:07:50Z</time>
      </trkpt>
      <trkpt lat="47.453559245914221" lon="11.070122262462974">
        <ele>1572.37353515625</ele>
        <time>2013-12-29T10:08:01Z</time>
      </trkpt>
      <trkpt lat="47.453524628654122" lon="11.070148749276996">
        <ele>1573.3349609375</ele>
        <time>2013-12-29T10:08:20Z</time>
      </trkpt>
      <trkpt lat="47.453471822664142" lon="11.070103654637933">
        <ele>1576.21875</ele>
        <time>2013-12-29T10:08:33Z</time>
      </trkpt>
      <trkpt lat="47.453513145446777" lon="11.069935681298375">
        <ele>1578.6220703125</ele>
        <time>2013-12-29T10:08:46Z</time>
      </trkpt>
      <trkpt lat="47.45353426784277" lon="11.069761170074344">
        <ele>1581.025634765625</ele>
        <time>2013-12-29T10:09:00Z</time>
      </trkpt>
      <trkpt lat="47.453531166538596" lon="11.069592442363501">
        <ele>1583.4287109375</ele>
        <time>2013-12-29T10:09:13Z</time>
      </trkpt>
      <trkpt lat="47.45353820733726" lon="11.069380966946483">
        <ele>1584.870849609375</ele>
        <time>2013-12-29T10:09:27Z</time>
      </trkpt>
      <trkpt lat="47.453474253416061" lon="11.069254400208592">
        <ele>1586.793212890625</ele>
        <time>2013-12-29T10:09:38Z</time>
      </trkpt>
      <trkpt lat="47.453388925641775" lon="11.069182232022285">
        <ele>1589.67724609375</ele>
        <time>2013-12-29T10:09:53Z</time>
      </trkpt>
      <trkpt lat="47.453355900943279" lon="11.069148033857346">
        <ele>1591.119140625</ele>
        <time>2013-12-29T10:09:58Z</time>
      </trkpt>
      <trkpt lat="47.453275350853801" lon="11.069056503474712">
        <ele>1594.96435546875</ele>
        <time>2013-12-29T10:10:12Z</time>
      </trkpt>
      <trkpt lat="47.453258084133267" lon="11.069021299481392">
        <ele>1595.445068359375</ele>
        <time>2013-12-29T10:10:16Z</time>
      </trkpt>
      <trkpt lat="47.453162865713239" lon="11.068933960050344">
        <ele>1598.3291015625</ele>
        <time>2013-12-29T10:10:32Z</time>
      </trkpt>
      <trkpt lat="47.453137384727597" lon="11.068924488499761">
        <ele>1599.771240234375</ele>
        <time>2013-12-29T10:10:50Z</time>
      </trkpt>
      <trkpt lat="47.453011739999056" lon="11.068924153223634">
        <ele>1603.1357421875</ele>
        <time>2013-12-29T10:11:06Z</time>
      </trkpt>
      <trkpt lat="47.452948372811079" lon="11.068833209574223">
        <ele>1605.5390625</ele>
        <time>2013-12-29T10:11:20Z</time>
      </trkpt>
      <trkpt lat="47.452987181022763" lon="11.068702200427651">
        <ele>1608.4228515625</ele>
        <time>2013-12-29T10:11:32Z</time>
      </trkpt>
      <trkpt lat="47.452989611774683" lon="11.068575382232666">
        <ele>1611.306884765625</ele>
        <time>2013-12-29T10:11:46Z</time>
      </trkpt>
      <trkpt lat="47.45292691513896" lon="11.068436745554209">
        <ele>1614.19091796875</ele>
        <time>2013-12-29T10:12:02Z</time>
      </trkpt>
      <trkpt lat="47.452938985079527" lon="11.068342952057719">
        <ele>1615.633056640625</ele>
        <time>2013-12-29T10:12:14Z</time>
      </trkpt>
      <trkpt lat="47.452936470508575" lon="11.068292576819658">
        <ele>1616.59423828125</ele>
        <time>2013-12-29T10:12:23Z</time>
      </trkpt>
      <trkpt lat="47.452878970652819" lon="11.068229293450713">
        <ele>1618.516845703125</ele>
        <time>2013-12-29T10:12:32Z</time>
      </trkpt>
      <trkpt lat="47.452804455533624" lon="11.068181097507477">
        <ele>1619.478271484375</ele>
        <time>2013-12-29T10:12:41Z</time>
      </trkpt>
      <trkpt lat="47.452712673693895" lon="11.068072384223342">
        <ele>1621.88134765625</ele>
        <time>2013-12-29T10:12:55Z</time>
      </trkpt>
      <trkpt lat="47.452655928209424" lon="11.067996360361576">
        <ele>1624.765380859375</ele>
        <time>2013-12-29T10:13:06Z</time>
      </trkpt>
      <trkpt lat="47.452651234343648" lon="11.067897453904152">
        <ele>1626.68798828125</ele>
        <time>2013-12-29T10:13:17Z</time>
      </trkpt>
      <trkpt lat="47.452661627903581" lon="11.06778890825808">
        <ele>1628.61083984375</ele>
        <time>2013-12-29T10:13:26Z</time>
      </trkpt>
      <trkpt lat="47.452623154968023" lon="11.067664101719856">
        <ele>1631.49462890625</ele>
        <time>2013-12-29T10:13:40Z</time>
      </trkpt>
      <trkpt lat="47.45259809307754" lon="11.06754164211452">
        <ele>1634.378662109375</ele>
        <time>2013-12-29T10:13:52Z</time>
      </trkpt>
      <trkpt lat="47.452508741989732" lon="11.067467965185642">
        <ele>1637.262451171875</ele>
        <time>2013-12-29T10:14:06Z</time>
      </trkpt>
      <trkpt lat="47.452418468892574" lon="11.067403256893158">
        <ele>1639.665771484375</ele>
        <time>2013-12-29T10:14:19Z</time>
      </trkpt>
      <trkpt lat="47.452313611283898" lon="11.067383643239737">
        <ele>1643.0302734375</ele>
        <time>2013-12-29T10:14:32Z</time>
      </trkpt>
      <trkpt lat="47.452177153900266" lon="11.067342069000006">
        <ele>1643.99169921875</ele>
        <time>2013-12-29T10:14:48Z</time>
      </trkpt>
      <trkpt lat="47.452131891623139" lon="11.067254394292831">
        <ele>1645.433837890625</ele>
        <time>2013-12-29T10:14:58Z</time>
      </trkpt>
      <trkpt lat="47.452131807804108" lon="11.067214915528893">
        <ele>1646.395263671875</ele>
        <time>2013-12-29T10:15:47Z</time>
      </trkpt>
      <trkpt lat="47.452090065926313" lon="11.06717711314559">
        <ele>1645.91455078125</ele>
        <time>2013-12-29T10:16:32Z</time>
      </trkpt>
      <trkpt lat="47.451995769515634" lon="11.067016515880823">
        <ele>1645.91455078125</ele>
        <time>2013-12-29T10:16:44Z</time>
      </trkpt>
      <trkpt lat="47.451870962977409" lon="11.066888105124235">
        <ele>1645.91455078125</ele>
        <time>2013-12-29T10:16:57Z</time>
      </trkpt>
      <trkpt lat="47.451773397624493" lon="11.066845944151282">
        <ele>1645.433837890625</ele>
        <time>2013-12-29T10:17:07Z</time>
      </trkpt>
      <trkpt lat="47.451616488397121" lon="11.066872933879495">
        <ele>1646.875732421875</ele>
        <time>2013-12-29T10:17:22Z</time>
      </trkpt>
      <trkpt lat="47.451486485078931" lon="11.066904533654451">
        <ele>1647.3564453125</ele>
        <time>2013-12-29T10:17:34Z</time>
      </trkpt>
      <trkpt lat="47.451357906684279" lon="11.066821552813053">
        <ele>1648.79833984375</ele>
        <time>2013-12-29T10:17:48Z</time>
      </trkpt>
      <trkpt lat="47.451240392401814" lon="11.066780397668481">
        <ele>1645.91455078125</ele>
        <time>2013-12-29T10:17:58Z</time>
      </trkpt>
      <trkpt lat="47.451096810400486" lon="11.066750390455127">
        <ele>1643.99169921875</ele>
        <time>2013-12-29T10:18:04Z</time>
      </trkpt>
      <trkpt lat="47.450962448492646" lon="11.06670412234962">
        <ele>1642.069091796875</ele>
        <time>2013-12-29T10:18:12Z</time>
      </trkpt>
      <trkpt lat="47.450884161517024" lon="11.066628266125917">
        <ele>1641.107666015625</ele>
        <time>2013-12-29T10:18:19Z</time>
      </trkpt>
      <trkpt lat="47.450738232582808" lon="11.066535646095872">
        <ele>1640.146484375</ele>
        <time>2013-12-29T10:18:28Z</time>
      </trkpt>
      <trkpt lat="47.450579479336739" lon="11.066465238109231">
        <ele>1636.78173828125</ele>
        <time>2013-12-29T10:18:37Z</time>
      </trkpt>
      <trkpt lat="47.450553579255939" lon="11.066456185653806">
        <ele>1636.78173828125</ele>
        <time>2013-12-29T10:18:38Z</time>
      </trkpt>
      <trkpt lat="47.450291477143764" lon="11.066378317773342">
        <ele>1632.9365234375</ele>
        <time>2013-12-29T10:18:47Z</time>
      </trkpt>
      <trkpt lat="47.450195839628577" lon="11.066335402429104">
        <ele>1631.975341796875</ele>
        <time>2013-12-29T10:18:51Z</time>
      </trkpt>
      <trkpt lat="47.450082851573825" lon="11.066254433244467">
        <ele>1631.01416015625</ele>
        <time>2013-12-29T10:18:59Z</time>
      </trkpt>
      <trkpt lat="47.449973132461309" lon="11.066145803779364">
        <ele>1629.572021484375</ele>
        <time>2013-12-29T10:19:07Z</time>
      </trkpt>
      <trkpt lat="47.449790993705392" lon="11.065994091331959">
        <ele>1627.649169921875</ele>
        <time>2013-12-29T10:19:19Z</time>
      </trkpt>
      <trkpt lat="47.449585553258657" lon="11.065786723047495">
        <ele>1626.68798828125</ele>
        <time>2013-12-29T10:19:36Z</time>
      </trkpt>
      <trkpt lat="47.449512798339128" lon="11.065666023641825">
        <ele>1626.68798828125</ele>
        <time>2013-12-29T10:19:45Z</time>
      </trkpt>
      <trkpt lat="47.449411628767848" lon="11.065483884885907">
        <ele>1627.168701171875</ele>
        <time>2013-12-29T10:19:58Z</time>
      </trkpt>
      <trkpt lat="47.449243236333132" lon="11.065257070586085">
        <ele>1627.168701171875</ele>
        <time>2013-12-29T10:20:15Z</time>
      </trkpt>
      <trkpt lat="47.449088422581553" lon="11.065099155530334">
        <ele>1627.649169921875</ele>
        <time>2013-12-29T10:20:30Z</time>
      </trkpt>
      <trkpt lat="47.44892849586904" lon="11.064909975975752">
        <ele>1629.09130859375</ele>
        <time>2013-12-29T10:20:49Z</time>
      </trkpt>
      <trkpt lat="47.448770245537162" lon="11.064711241051555">
        <ele>1631.975341796875</ele>
        <time>2013-12-29T10:21:09Z</time>
      </trkpt>
      <trkpt lat="47.448623226955533" lon="11.064499765634537">
        <ele>1634.859375</ele>
        <time>2013-12-29T10:21:30Z</time>
      </trkpt>
      <trkpt lat="47.448508646339178" lon="11.064258785918355">
        <ele>1638.223876953125</ele>
        <time>2013-12-29T10:21:51Z</time>
      </trkpt>
      <trkpt lat="47.448423318564892" lon="11.064028535038233">
        <ele>1638.70458984375</ele>
        <time>2013-12-29T10:22:07Z</time>
      </trkpt>
      <trkpt lat="47.448382247239351" lon="11.063924934715033">
        <ele>1638.223876953125</ele>
        <time>2013-12-29T10:22:14Z</time>
      </trkpt>
      <trkpt lat="47.448357185348868" lon="11.063737599179149">
        <ele>1641.107666015625</ele>
        <time>2013-12-29T10:22:29Z</time>
      </trkpt>
      <trkpt lat="47.448309576138854" lon="11.063579935580492">
        <ele>1644.472412109375</ele>
        <time>2013-12-29T10:22:45Z</time>
      </trkpt>
      <trkpt lat="47.448267415165901" lon="11.063388912007213">
        <ele>1645.91455078125</ele>
        <time>2013-12-29T10:23:02Z</time>
      </trkpt>
      <trkpt lat="47.448244700208306" lon="11.063256645575166">
        <ele>1649.279052734375</ele>
        <time>2013-12-29T10:23:13Z</time>
      </trkpt>
      <trkpt lat="47.448238832876086" lon="11.063123121857643">
        <ele>1650.240478515625</ele>
        <time>2013-12-29T10:23:25Z</time>
      </trkpt>
      <trkpt lat="47.448221314698458" lon="11.062926985323429">
        <ele>1650.240478515625</ele>
        <time>2013-12-29T10:23:38Z</time>
      </trkpt>
      <trkpt lat="47.448211340233684" lon="11.062748618423939">
        <ele>1649.759765625</ele>
        <time>2013-12-29T10:23:49Z</time>
      </trkpt>
      <trkpt lat="47.448198180645704" lon="11.062718275934458">
        <ele>1649.759765625</ele>
        <time>2013-12-29T10:24:18Z</time>
      </trkpt>
      <trkpt lat="47.448176555335522" lon="11.062778793275356">
        <ele>1651.682373046875</ele>
        <time>2013-12-29T10:24:27Z</time>
      </trkpt>
      <trkpt lat="47.448166832327843" lon="11.062971660867333">
        <ele>1655.046875</ele>
        <time>2013-12-29T10:24:43Z</time>
      </trkpt>
      <trkpt lat="47.448130790144205" lon="11.063245749101043">
        <ele>1658.89208984375</ele>
        <time>2013-12-29T10:25:05Z</time>
      </trkpt>
      <trkpt lat="47.448111427947879" lon="11.063283132389188">
        <ele>1658.411376953125</ele>
        <time>2013-12-29T10:25:13Z</time>
      </trkpt>
      <trkpt lat="47.448082845658064" lon="11.063210712745786">
        <ele>1660.334228515625</ele>
        <time>2013-12-29T10:25:22Z</time>
      </trkpt>
      <trkpt lat="47.448038337752223" lon="11.06302329339087">
        <ele>1663.69873046875</ele>
        <time>2013-12-29T10:25:40Z</time>
      </trkpt>
      <trkpt lat="47.447981340810657" lon="11.06288499198854">
        <ele>1666.582763671875</ele>
        <time>2013-12-29T10:25:55Z</time>
      </trkpt>
      <trkpt lat="47.447964577004313" lon="11.062849368900061">
        <ele>1666.10205078125</ele>
        <time>2013-12-29T10:26:10Z</time>
      </trkpt>
      <trkpt lat="47.447902048006654" lon="11.06274476274848">
        <ele>1669.466796875</ele>
        <time>2013-12-29T10:26:22Z</time>
      </trkpt>
      <trkpt lat="47.447814457118511" lon="11.062620040029287">
        <ele>1672.3505859375</ele>
        <time>2013-12-29T10:26:39Z</time>
      </trkpt>
      <trkpt lat="47.447734493762255" lon="11.062497748062015">
        <ele>1675.715087890625</ele>
        <time>2013-12-29T10:26:55Z</time>
      </trkpt>
      <trkpt lat="47.447664840146899" lon="11.062383502721786">
        <ele>1678.599365234375</ele>
        <time>2013-12-29T10:27:11Z</time>
      </trkpt>
      <trkpt lat="47.447590492665768" lon="11.062306137755513">
        <ele>1681.9638671875</ele>
        <time>2013-12-29T10:27:24Z</time>
      </trkpt>
      <trkpt lat="47.447519665583968" lon="11.06223707087338">
        <ele>1684.847900390625</ele>
        <time>2013-12-29T10:27:36Z</time>
      </trkpt>
      <trkpt lat="47.447463255375624" lon="11.062227683141828">
        <ele>1686.770263671875</ele>
        <time>2013-12-29T10:27:48Z</time>
      </trkpt>
      <trkpt lat="47.447489993646741" lon="11.062353830784559">
        <ele>1689.173583984375</ele>
        <time>2013-12-29T10:28:01Z</time>
      </trkpt>
      <trkpt lat="47.447559060528874" lon="11.062630768865347">
        <ele>1691.576904296875</ele>
        <time>2013-12-29T10:28:24Z</time>
      </trkpt>
      <trkpt lat="47.447558725252748" lon="11.062841573730111">
        <ele>1694.4609375</ele>
        <time>2013-12-29T10:28:43Z</time>
      </trkpt>
      <trkpt lat="47.447506925091147" lon="11.062787175178528">
        <ele>1696.3837890625</ele>
        <time>2013-12-29T10:28:52Z</time>
      </trkpt>
      <trkpt lat="47.447453113272786" lon="11.062609562650323">
        <ele>1699.267578125</ele>
        <time>2013-12-29T10:29:09Z</time>
      </trkpt>
      <trkpt lat="47.447324702516198" lon="11.062396159395576">
        <ele>1702.632080078125</ele>
        <time>2013-12-29T10:29:31Z</time>
      </trkpt>
      <trkpt lat="47.447239458560944" lon="11.062161130830646">
        <ele>1705.51611328125</ele>
        <time>2013-12-29T10:29:53Z</time>
      </trkpt>
      <trkpt lat="47.447217749431729" lon="11.061916379258037">
        <ele>1707.438720703125</ele>
        <time>2013-12-29T10:30:10Z</time>
      </trkpt>
      <trkpt lat="47.447196124121547" lon="11.061682691797614">
        <ele>1708.880859375</ele>
        <time>2013-12-29T10:30:27Z</time>
      </trkpt>
      <trkpt lat="47.447177432477474" lon="11.061527961865067">
        <ele>1711.764892578125</ele>
        <time>2013-12-29T10:30:41Z</time>
      </trkpt>
      <trkpt lat="47.447151783853769" lon="11.061373148113489">
        <ele>1715.12939453125</ele>
        <time>2013-12-29T10:30:56Z</time>
      </trkpt>
      <trkpt lat="47.447123872116208" lon="11.061195116490126">
        <ele>1718.974609375</ele>
        <time>2013-12-29T10:31:14Z</time>
      </trkpt>
      <trkpt lat="47.447085650637746" lon="11.061040805652738">
        <ele>1721.8583984375</ele>
        <time>2013-12-29T10:31:32Z</time>
      </trkpt>
      <trkpt lat="47.447049356997013" lon="11.0611273907125">
        <ele>1722.81982421875</ele>
        <time>2013-12-29T10:31:41Z</time>
      </trkpt>
      <trkpt lat="47.447009710595012" lon="11.061370046809316">
        <ele>1725.703857421875</ele>
        <time>2013-12-29T10:32:01Z</time>
      </trkpt>
      <trkpt lat="47.446974087506533" lon="11.061505749821663">
        <ele>1726.1845703125</ele>
        <time>2013-12-29T10:32:15Z</time>
      </trkpt>
      <trkpt lat="47.446917425841093" lon="11.061444981023669">
        <ele>1729.549072265625</ele>
        <time>2013-12-29T10:32:25Z</time>
      </trkpt>
      <trkpt lat="47.446868140250444" lon="11.061325203627348">
        <ele>1732.43310546875</ele>
        <time>2013-12-29T10:32:39Z</time>
      </trkpt>
      <trkpt lat="47.446797313168645" lon="11.061239875853062">
        <ele>1735.797607421875</ele>
        <time>2013-12-29T10:32:52Z</time>
      </trkpt>
      <trkpt lat="47.446764120832086" lon="11.061219591647387">
        <ele>1735.797607421875</ele>
        <time>2013-12-29T10:33:03Z</time>
      </trkpt>
      <trkpt lat="47.446762276813388" lon="11.061225039884448">
        <ele>1735.797607421875</ele>
        <time>2013-12-29T10:33:23Z</time>
      </trkpt>
      <trkpt lat="47.44672866538167" lon="11.061193188652396">
        <ele>1736.2783203125</ele>
        <time>2013-12-29T10:34:16Z</time>
      </trkpt>
      <trkpt lat="47.446598242968321" lon="11.0611308272928">
        <ele>1737.239501953125</ele>
        <time>2013-12-29T10:34:30Z</time>
      </trkpt>
      <trkpt lat="47.446435634046793" lon="11.06109319254756">
        <ele>1738.200927734375</ele>
        <time>2013-12-29T10:34:46Z</time>
      </trkpt>
      <trkpt lat="47.44625860825181" lon="11.061104256659746">
        <ele>1740.123779296875</ele>
        <time>2013-12-29T10:35:03Z</time>
      </trkpt>
      <trkpt lat="47.446070434525609" lon="11.061105765402317">
        <ele>1739.642822265625</ele>
        <time>2013-12-29T10:35:20Z</time>
      </trkpt>
      <trkpt lat="47.445873878896236" lon="11.061035022139549">
        <ele>1740.604248046875</ele>
        <time>2013-12-29T10:35:38Z</time>
      </trkpt>
      <trkpt lat="47.445730715990067" lon="11.060947179794312">
        <ele>1742.04638671875</ele>
        <time>2013-12-29T10:35:53Z</time>
      </trkpt>
      <trkpt lat="47.445593504235148" lon="11.06086160056293">
        <ele>1744.449462890625</ele>
        <time>2013-12-29T10:36:09Z</time>
      </trkpt>
      <trkpt lat="47.445485629141331" lon="11.060790186747909">
        <ele>1747.814208984375</ele>
        <time>2013-12-29T10:36:24Z</time>
      </trkpt>
      <trkpt lat="47.445359900593758" lon="11.060731178149581">
        <ele>1750.697998046875</ele>
        <time>2013-12-29T10:36:40Z</time>
      </trkpt>
      <trkpt lat="47.445352775976062" lon="11.060727657750249">
        <ele>1750.697998046875</ele>
        <time>2013-12-29T10:36:51Z</time>
      </trkpt>
      <trkpt lat="47.44530625641346" lon="11.060716593638062">
        <ele>1751.659423828125</ele>
        <time>2013-12-29T10:37:00Z</time>
      </trkpt>
      <trkpt lat="47.445113807916641" lon="11.060730088502169">
        <ele>1754.543212890625</ele>
        <time>2013-12-29T10:37:21Z</time>
      </trkpt>
      <trkpt lat="47.445104168727994" lon="11.060733525082469">
        <ele>1754.543212890625</ele>
        <time>2013-12-29T10:37:22Z</time>
      </trkpt>
      <trkpt lat="47.444914570078254" lon="11.060796473175287">
        <ele>1755.985107421875</ele>
        <time>2013-12-29T10:37:41Z</time>
      </trkpt>
      <trkpt lat="47.444734023883939" lon="11.060825306922197">
        <ele>1757.427490234375</ele>
        <time>2013-12-29T10:37:59Z</time>
      </trkpt>
      <trkpt lat="47.444579042494297" lon="11.06085573323071">
        <ele>1759.35009765625</ele>
        <time>2013-12-29T10:38:15Z</time>
      </trkpt>
      <trkpt lat="47.44444141164422" lon="11.06089236214757">
        <ele>1760.311279296875</ele>
        <time>2013-12-29T10:38:29Z</time>
      </trkpt>
      <trkpt lat="47.444320628419518" lon="11.060870820656419">
        <ele>1762.714599609375</ele>
        <time>2013-12-29T10:38:42Z</time>
      </trkpt>
      <trkpt lat="47.444153660908341" lon="11.060801418498158">
        <ele>1767.04052734375</ele>
        <time>2013-12-29T10:39:01Z</time>
      </trkpt>
      <trkpt lat="47.444143686443567" lon="11.060797730460763">
        <ele>1767.04052734375</ele>
        <time>2013-12-29T10:39:02Z</time>
      </trkpt>
      <trkpt lat="47.444074535742402" lon="11.060763448476791">
        <ele>1767.04052734375</ele>
        <time>2013-12-29T10:39:15Z</time>
      </trkpt>
      <trkpt lat="47.444028267636895" lon="11.060750959441066">
        <ele>1767.04052734375</ele>
        <time>2013-12-29T10:39:25Z</time>
      </trkpt>
      <trkpt lat="47.44398795068264" lon="11.060725897550583">
        <ele>1767.52099609375</ele>
        <time>2013-12-29T10:39:37Z</time>
      </trkpt>
      <trkpt lat="47.443988621234894" lon="11.060728831216693">
        <ele>1767.04052734375</ele>
        <time>2013-12-29T10:40:19Z</time>
      </trkpt>
      <trkpt lat="47.443976383656263" lon="11.060721455141902">
        <ele>1766.559814453125</ele>
        <time>2013-12-29T10:40:42Z</time>
      </trkpt>
      <trkpt lat="47.443958781659603" lon="11.060716090723872">
        <ele>1766.559814453125</ele>
        <time>2013-12-29T10:41:01Z</time>
      </trkpt>
      <trkpt lat="47.443880159407854" lon="11.060634115710855">
        <ele>1768.482421875</ele>
        <time>2013-12-29T10:41:13Z</time>
      </trkpt>
      <trkpt lat="47.443759460002184" lon="11.060492545366287">
        <ele>1770.8857421875</ele>
        <time>2013-12-29T10:41:31Z</time>
      </trkpt>
      <trkpt lat="47.44369525462389" lon="11.060404032468796">
        <ele>1772.327880859375</ele>
        <time>2013-12-29T10:41:43Z</time>
      </trkpt>
      <trkpt lat="47.443703385069966" lon="11.060317447409034">
        <ele>1774.25048828125</ele>
        <time>2013-12-29T10:41:53Z</time>
      </trkpt>
      <trkpt lat="47.44370405562222" lon="11.060233460739255">
        <ele>1776.65380859375</ele>
        <time>2013-12-29T10:42:04Z</time>
      </trkpt>
      <trkpt lat="47.44370455853641" lon="11.060187947005033">
        <ele>1778.095703125</ele>
        <time>2013-12-29T10:42:17Z</time>
      </trkpt>
      <trkpt lat="47.443710174411535" lon="11.060150396078825">
        <ele>1779.056884765625</ele>
        <time>2013-12-29T10:42:34Z</time>
      </trkpt>
      <trkpt lat="47.44371478445828" lon="11.06006171554327">
        <ele>1782.421630859375</ele>
        <time>2013-12-29T10:42:44Z</time>
      </trkpt>
      <trkpt lat="47.443721992895007" lon="11.059946129098535">
        <ele>1785.305419921875</ele>
        <time>2013-12-29T10:42:59Z</time>
      </trkpt>
      <trkpt lat="47.443710006773472" lon="11.059916540980339">
        <ele>1786.266845703125</ele>
        <time>2013-12-29T10:43:12Z</time>
      </trkpt>
      <trkpt lat="47.443662481382489" lon="11.059900615364313">
        <ele>1787.22802734375</ele>
        <time>2013-12-29T10:43:23Z</time>
      </trkpt>
      <trkpt lat="47.443671114742756" lon="11.059890557080507">
        <ele>1787.22802734375</ele>
        <time>2013-12-29T10:43:53Z</time>
      </trkpt>
      <trkpt lat="47.443621661514044" lon="11.059855353087187">
        <ele>1787.708740234375</ele>
        <time>2013-12-29T10:44:01Z</time>
      </trkpt>
      <trkpt lat="47.443519150838256" lon="11.059797769412398">
        <ele>1790.1123046875</ele>
        <time>2013-12-29T10:44:17Z</time>
      </trkpt>
      <trkpt lat="47.443411527201533" lon="11.059726607054472">
        <ele>1792.515625</ele>
        <time>2013-12-29T10:44:36Z</time>
      </trkpt>
      <trkpt lat="47.443398199975491" lon="11.059714201837778">
        <ele>1793.476806640625</ele>
        <time>2013-12-29T10:44:39Z</time>
      </trkpt>
      <trkpt lat="47.443364756181836" lon="11.059683943167329">
        <ele>1794.43798828125</ele>
        <time>2013-12-29T10:44:53Z</time>
      </trkpt>
      <trkpt lat="47.443316644057631" lon="11.059657456353307">
        <ele>1795.880126953125</ele>
        <time>2013-12-29T10:45:07Z</time>
      </trkpt>
      <trkpt lat="47.443286217749119" lon="11.059585455805063">
        <ele>1797.322021484375</ele>
        <time>2013-12-29T10:45:20Z</time>
      </trkpt>
      <trkpt lat="47.443320751190186" lon="11.059503564611077">
        <ele>1800.2060546875</ele>
        <time>2013-12-29T10:45:34Z</time>
      </trkpt>
      <trkpt lat="47.443294180557132" lon="11.059479173272848">
        <ele>1801.167236328125</ele>
        <time>2013-12-29T10:45:46Z</time>
      </trkpt>
      <trkpt lat="47.443217653781176" lon="11.059418488293886">
        <ele>1804.051513671875</ele>
        <time>2013-12-29T10:46:02Z</time>
      </trkpt>
      <trkpt lat="47.443220419809222" lon="11.059414045885205">
        <ele>1803.08984375</ele>
        <time>2013-12-29T10:46:12Z</time>
      </trkpt>
      <trkpt lat="47.443242464214563" lon="11.059386804699898">
        <ele>1805.0126953125</ele>
        <time>2013-12-29T10:46:25Z</time>
      </trkpt>
      <trkpt lat="47.443321673199534" lon="11.059321677312255">
        <ele>1807.896728515625</ele>
        <time>2013-12-29T10:46:42Z</time>
      </trkpt>
      <trkpt lat="47.443360229954123" lon="11.059296447783709">
        <ele>1808.377197265625</ele>
        <time>2013-12-29T10:46:57Z</time>
      </trkpt>
      <trkpt lat="47.443372216075659" lon="11.059291921555996">
        <ele>1809.338623046875</ele>
        <time>2013-12-29T10:47:07Z</time>
      </trkpt>
      <trkpt lat="47.443360649049282" lon="11.059286305680871">
        <ele>1809.819091796875</ele>
        <time>2013-12-29T10:47:17Z</time>
      </trkpt>
      <trkpt lat="47.443266520276666" lon="11.05923836119473">
        <ele>1811.26123046875</ele>
        <time>2013-12-29T10:47:34Z</time>
      </trkpt>
      <trkpt lat="47.443219833076" lon="11.059221094474196">
        <ele>1811.741943359375</ele>
        <time>2013-12-29T10:47:46Z</time>
      </trkpt>
      <trkpt lat="47.443225365132093" lon="11.059216735884547">
        <ele>1812.222412109375</ele>
        <time>2013-12-29T10:48:02Z</time>
      </trkpt>
      <trkpt lat="47.44323743507266" lon="11.059202319011092">
        <ele>1813.183837890625</ele>
        <time>2013-12-29T10:48:15Z</time>
      </trkpt>
      <trkpt lat="47.443278506398201" lon="11.059170216321945">
        <ele>1814.14501953125</ele>
        <time>2013-12-29T10:48:23Z</time>
      </trkpt>
      <trkpt lat="47.44334346614778" lon="11.059131994843483">
        <ele>1815.587158203125</ele>
        <time>2013-12-29T10:48:34Z</time>
      </trkpt>
      <trkpt lat="47.44335369206965" lon="11.059134341776371">
        <ele>1815.587158203125</ele>
        <time>2013-12-29T10:48:44Z</time>
      </trkpt>
      <trkpt lat="47.443359978497028" lon="11.059126127511263">
        <ele>1816.067626953125</ele>
        <time>2013-12-29T10:48:56Z</time>
      </trkpt>
      <trkpt lat="47.443341789767146" lon="11.059106681495905">
        <ele>1817.029052734375</ele>
        <time>2013-12-29T10:49:06Z</time>
      </trkpt>
      <trkpt lat="47.443290408700705" lon="11.059068124741316">
        <ele>1818.95166015625</ele>
        <time>2013-12-29T10:49:19Z</time>
      </trkpt>
      <trkpt lat="47.443255372345448" lon="11.059036524966359">
        <ele>1820.87451171875</ele>
        <time>2013-12-29T10:49:30Z</time>
      </trkpt>
      <trkpt lat="47.443217318505049" lon="11.05898866429925">
        <ele>1821.835693359375</ele>
        <time>2013-12-29T10:49:45Z</time>
      </trkpt>
      <trkpt lat="47.443191334605217" lon="11.0589584056288">
        <ele>1822.797119140625</ele>
        <time>2013-12-29T10:50:12Z</time>
      </trkpt>
      <trkpt lat="47.44317683391273" lon="11.058943569660187">
        <ele>1823.75830078125</ele>
        <time>2013-12-29T10:50:21Z</time>
      </trkpt>
      <trkpt lat="47.443206924945116" lon="11.058913227170706">
        <ele>1824.7197265625</ele>
        <time>2013-12-29T10:50:32Z</time>
      </trkpt>
      <trkpt lat="47.4432906601578" lon="11.058860840275884">
        <ele>1826.16162109375</ele>
        <time>2013-12-29T10:50:50Z</time>
      </trkpt>
      <trkpt lat="47.443370036780834" lon="11.058833347633481">
        <ele>1828.084228515625</ele>
        <time>2013-12-29T10:51:07Z</time>
      </trkpt>
      <trkpt lat="47.443399708718061" lon="11.058802083134651">
        <ele>1829.526123046875</ele>
        <time>2013-12-29T10:51:20Z</time>
      </trkpt>
      <trkpt lat="47.443479085341096" lon="11.058730501681566">
        <ele>1830.487548828125</ele>
        <time>2013-12-29T10:51:36Z</time>
      </trkpt>
      <trkpt lat="47.443505069240928" lon="11.058689430356026">
        <ele>1831.929443359375</ele>
        <time>2013-12-29T10:51:48Z</time>
      </trkpt>
      <trkpt lat="47.443525437265635" lon="11.058647353202105">
        <ele>1833.85205078125</ele>
        <time>2013-12-29T10:51:59Z</time>
      </trkpt>
      <trkpt lat="47.443536669015884" lon="11.058626733720303">
        <ele>1833.85205078125</ele>
        <time>2013-12-29T10:52:05Z</time>
      </trkpt>
      <trkpt lat="47.443535830825567" lon="11.058624051511288">
        <ele>1833.371337890625</ele>
        <time>2013-12-29T10:52:21Z</time>
      </trkpt>
      <trkpt lat="47.443555863574147" lon="11.05859287083149">
        <ele>1833.85205078125</ele>
        <time>2013-12-29T10:52:31Z</time>
      </trkpt>
      <trkpt lat="47.443579081445932" lon="11.058567054569721">
        <ele>1834.8134765625</ele>
        <time>2013-12-29T10:52:39Z</time>
      </trkpt>
      <trkpt lat="47.443624595180154" lon="11.058536879718304">
        <ele>1834.8134765625</ele>
        <time>2013-12-29T10:52:51Z</time>
      </trkpt>
      <trkpt lat="47.443647896870971" lon="11.058503519743681">
        <ele>1836.255615234375</ele>
        <time>2013-12-29T10:53:01Z</time>
      </trkpt>
      <trkpt lat="47.443701876327395" lon="11.058424226939678">
        <ele>1837.697509765625</ele>
        <time>2013-12-29T10:53:15Z</time>
      </trkpt>
      <trkpt lat="47.443703720346093" lon="11.058319620788097">
        <ele>1841.542724609375</ele>
        <time>2013-12-29T10:53:29Z</time>
      </trkpt>
      <trkpt lat="47.443662397563457" lon="11.058250973001122">
        <ele>1842.984619140625</ele>
        <time>2013-12-29T10:53:42Z</time>
      </trkpt>
      <trkpt lat="47.44358922354877" lon="11.058196825906634">
        <ele>1846.349365234375</ele>
        <time>2013-12-29T10:53:56Z</time>
      </trkpt>
      <trkpt lat="47.443540105596185" lon="11.058157430961728">
        <ele>1847.310546875</ele>
        <time>2013-12-29T10:54:11Z</time>
      </trkpt>
      <trkpt lat="47.443491742014885" lon="11.058123065158725">
        <ele>1849.233154296875</ele>
        <time>2013-12-29T10:54:31Z</time>
      </trkpt>
      <trkpt lat="47.44340892881155" lon="11.058073025196791">
        <ele>1852.597900390625</ele>
        <time>2013-12-29T10:54:46Z</time>
      </trkpt>
      <trkpt lat="47.443398870527744" lon="11.058063637465239">
        <ele>1853.07861328125</ele>
        <time>2013-12-29T10:54:55Z</time>
      </trkpt>
      <trkpt lat="47.443399373441935" lon="11.058063972741365">
        <ele>1853.07861328125</ele>
        <time>2013-12-29T10:54:56Z</time>
      </trkpt>
      <trkpt lat="47.443348076194525" lon="11.058025164529681">
        <ele>1854.5205078125</ele>
        <time>2013-12-29T10:55:09Z</time>
      </trkpt>
      <trkpt lat="47.443283284083009" lon="11.057975795120001">
        <ele>1857.88525390625</ele>
        <time>2013-12-29T10:55:22Z</time>
      </trkpt>
      <trkpt lat="47.44320466183126" lon="11.057917373254895">
        <ele>1860.76904296875</ele>
        <time>2013-12-29T10:55:45Z</time>
      </trkpt>
      <trkpt lat="47.443165769800544" lon="11.05789071880281">
        <ele>1861.73046875</ele>
        <time>2013-12-29T10:56:07Z</time>
      </trkpt>
      <trkpt lat="47.44308547116816" lon="11.057827351614833">
        <ele>1865.094970703125</ele>
        <time>2013-12-29T10:56:23Z</time>
      </trkpt>
      <trkpt lat="47.443002238869667" lon="11.057768510654569">
        <ele>1868.459716796875</ele>
        <time>2013-12-29T10:56:39Z</time>
      </trkpt>
      <trkpt lat="47.442928059026599" lon="11.05771922506392">
        <ele>1871.343505859375</ele>
        <time>2013-12-29T10:56:53Z</time>
      </trkpt>
      <trkpt lat="47.44291883893311" lon="11.057713441550732">
        <ele>1870.863037109375</ele>
        <time>2013-12-29T10:57:13Z</time>
      </trkpt>
      <trkpt lat="47.442866787314415" lon="11.057664742693305">
        <ele>1874.2275390625</ele>
        <time>2013-12-29T10:57:26Z</time>
      </trkpt>
      <trkpt lat="47.442797971889377" lon="11.057603470981121">
        <ele>1877.592041015625</ele>
        <time>2013-12-29T10:57:40Z</time>
      </trkpt>
      <trkpt lat="47.442713398486376" lon="11.057534907013178">
        <ele>1880.956787109375</ele>
        <time>2013-12-29T10:57:56Z</time>
      </trkpt>
      <trkpt lat="47.442633183673024" lon="11.057484867051244">
        <ele>1883.840576171875</ele>
        <time>2013-12-29T10:58:14Z</time>
      </trkpt>
      <trkpt lat="47.442609379068017" lon="11.057477071881294">
        <ele>1884.80224609375</ele>
        <time>2013-12-29T10:58:26Z</time>
      </trkpt>
      <trkpt lat="47.442534193396568" lon="11.057475060224533">
        <ele>1887.68603515625</ele>
        <time>2013-12-29T10:58:41Z</time>
      </trkpt>
      <trkpt lat="47.442499995231628" lon="11.057477239519358">
        <ele>1888.6474609375</ele>
        <time>2013-12-29T10:58:55Z</time>
      </trkpt>
      <trkpt lat="47.44249764829874" lon="11.057455278933048">
        <ele>1888.6474609375</ele>
        <time>2013-12-29T10:59:06Z</time>
      </trkpt>
      <trkpt lat="47.442512987181544" lon="11.057400712743402">
        <ele>1889.1279296875</ele>
        <time>2013-12-29T10:59:13Z</time>
      </trkpt>
      <trkpt lat="47.442510556429625" lon="11.057388558983803">
        <ele>1889.608642578125</ele>
        <time>2013-12-29T10:59:22Z</time>
      </trkpt>
      <trkpt lat="47.442482728511095" lon="11.057377830147743">
        <ele>1890.56982421875</ele>
        <time>2013-12-29T10:59:30Z</time>
      </trkpt>
      <trkpt lat="47.442460432648659" lon="11.057373555377126">
        <ele>1891.53125</ele>
        <time>2013-12-29T10:59:37Z</time>
      </trkpt>
      <trkpt lat="47.442450877279043" lon="11.057331478223205">
        <ele>1892.97314453125</ele>
        <time>2013-12-29T10:59:45Z</time>
      </trkpt>
      <trkpt lat="47.442447105422616" lon="11.057323263958097">
        <ele>1893.9345703125</ele>
        <time>2013-12-29T10:59:47Z</time>
      </trkpt>
      <trkpt lat="47.442397149279714" lon="11.057306500151753">
        <ele>1895.857177734375</ele>
        <time>2013-12-29T10:59:56Z</time>
      </trkpt>
      <trkpt lat="47.442356580868363" lon="11.057298453524709">
        <ele>1896.818359375</ele>
        <time>2013-12-29T11:00:04Z</time>
      </trkpt>
      <trkpt lat="47.44230511598289" lon="11.057269619777799">
        <ele>1898.740966796875</ele>
        <time>2013-12-29T11:00:15Z</time>
      </trkpt>
      <trkpt lat="47.442262787371874" lon="11.057240953668952">
        <ele>1899.702392578125</ele>
        <time>2013-12-29T11:00:33Z</time>
      </trkpt>
      <trkpt lat="47.442183662205935" lon="11.057207761332393">
        <ele>1902.58642578125</ele>
        <time>2013-12-29T11:00:45Z</time>
      </trkpt>
      <trkpt lat="47.442139238119125" lon="11.057175407186151">
        <ele>1903.5478515625</ele>
        <time>2013-12-29T11:00:56Z</time>
      </trkpt>
      <trkpt lat="47.442114930599928" lon="11.057161241769791">
        <ele>1903.067138671875</ele>
        <time>2013-12-29T11:01:05Z</time>
      </trkpt>
      <trkpt lat="47.442079391330481" lon="11.05718806385994">
        <ele>1902.58642578125</ele>
        <time>2013-12-29T11:01:13Z</time>
      </trkpt>
      <trkpt lat="47.442068746313453" lon="11.05716953985393">
        <ele>1903.5478515625</ele>
        <time>2013-12-29T11:01:26Z</time>
      </trkpt>
      <trkpt lat="47.442051311954856" lon="11.057164426892996">
        <ele>1903.067138671875</ele>
        <time>2013-12-29T11:01:34Z</time>
      </trkpt>
      <trkpt lat="47.442050725221634" lon="11.057164678350091">
        <ele>1902.58642578125</ele>
        <time>2013-12-29T11:02:19Z</time>
      </trkpt>
      <trkpt lat="47.44205491617322" lon="11.057166270911694">
        <ele>1902.58642578125</ele>
        <time>2013-12-29T11:02:27Z</time>
      </trkpt>
      <trkpt lat="47.442061705514789" lon="11.057179933413863">
        <ele>1902.58642578125</ele>
        <time>2013-12-29T11:02:34Z</time>
      </trkpt>
      <trkpt lat="47.44209305383265" lon="11.057192673906684">
        <ele>1902.105712890625</ele>
        <time>2013-12-29T11:02:44Z</time>
      </trkpt>
      <trkpt lat="47.44214192032814" lon="11.05718563310802">
        <ele>1902.105712890625</ele>
        <time>2013-12-29T11:02:54Z</time>
      </trkpt>
      <trkpt lat="47.442157762125134" lon="11.057183034718037">
        <ele>1901.14453125</ele>
        <time>2013-12-29T11:03:07Z</time>
      </trkpt>
      <trkpt lat="47.442161785438657" lon="11.057183789089322">
        <ele>1901.14453125</ele>
        <time>2013-12-29T11:03:31Z</time>
      </trkpt>
      <trkpt lat="47.442161031067371" lon="11.057177251204848">
        <ele>1901.14453125</ele>
        <time>2013-12-29T11:03:42Z</time>
      </trkpt>
      <trkpt lat="47.442169329151511" lon="11.057174149900675">
        <ele>1900.663818359375</ele>
        <time>2013-12-29T11:03:53Z</time>
      </trkpt>
      <trkpt lat="47.442170167341828" lon="11.057174317538738">
        <ele>1900.663818359375</ele>
        <time>2013-12-29T11:04:25Z</time>
      </trkpt>
      <trkpt lat="47.442172933369875" lon="11.057175574824214">
        <ele>1901.14453125</ele>
        <time>2013-12-29T11:05:03Z</time>
      </trkpt>
      <trkpt lat="47.442280724644661" lon="11.057218322530389">
        <ele>1897.77978515625</ele>
        <time>2013-12-29T11:05:12Z</time>
      </trkpt>
      <trkpt lat="47.442343337461352" lon="11.057240031659603">
        <ele>1896.337890625</ele>
        <time>2013-12-29T11:05:18Z</time>
      </trkpt>
      <trkpt lat="47.442384408786893" lon="11.057274146005511">
        <ele>1893.453857421875</ele>
        <time>2013-12-29T11:05:21Z</time>
      </trkpt>
      <trkpt lat="47.442446518689394" lon="11.057290825992823">
        <ele>1891.53125</ele>
        <time>2013-12-29T11:05:26Z</time>
      </trkpt>
      <trkpt lat="47.442461103200912" lon="11.057283114641905">
        <ele>1891.050537109375</ele>
        <time>2013-12-29T11:05:33Z</time>
      </trkpt>
      <trkpt lat="47.44246487505734" lon="11.057284539565444">
        <ele>1891.050537109375</ele>
        <time>2013-12-29T11:05:37Z</time>
      </trkpt>
      <trkpt lat="47.442515753209591" lon="11.05733566917479">
        <ele>1888.6474609375</ele>
        <time>2013-12-29T11:05:41Z</time>
      </trkpt>
      <trkpt lat="47.442604936659336" lon="11.057356791570783">
        <ele>1886.244140625</ele>
        <time>2013-12-29T11:05:45Z</time>
      </trkpt>
      <trkpt lat="47.442585658282042" lon="11.057341787964106">
        <ele>1885.763427734375</ele>
        <time>2013-12-29T11:05:52Z</time>
      </trkpt>
      <trkpt lat="47.442539054900408" lon="11.057384200394154">
        <ele>1886.724609375</ele>
        <time>2013-12-29T11:06:02Z</time>
      </trkpt>
      <trkpt lat="47.442501252517104" lon="11.057432563975453">
        <ele>1887.205322265625</ele>
        <time>2013-12-29T11:06:12Z</time>
      </trkpt>
      <trkpt lat="47.442492954432964" lon="11.057440023869276">
        <ele>1887.205322265625</ele>
        <time>2013-12-29T11:06:30Z</time>
      </trkpt>
      <trkpt lat="47.442490356042981" lon="11.057434743270278">
        <ele>1887.205322265625</ele>
        <time>2013-12-29T11:07:00Z</time>
      </trkpt>
      <trkpt lat="47.442492200061679" lon="11.057439269497991">
        <ele>1886.724609375</ele>
        <time>2013-12-29T11:07:09Z</time>
      </trkpt>
      <trkpt lat="47.442488512024283" lon="11.057436754927039">
        <ele>1887.205322265625</ele>
        <time>2013-12-29T11:07:44Z</time>
      </trkpt>
      <trkpt lat="47.442488679662347" lon="11.057436503469944">
        <ele>1887.205322265625</ele>
        <time>2013-12-29T11:08:07Z</time>
      </trkpt>
      <trkpt lat="47.442486668005586" lon="11.057441532611847">
        <ele>1886.724609375</ele>
        <time>2013-12-29T11:08:21Z</time>
      </trkpt>
      <trkpt lat="47.442482728511095" lon="11.057442119345069">
        <ele>1887.205322265625</ele>
        <time>2013-12-29T11:08:42Z</time>
      </trkpt>
      <trkpt lat="47.442487170919776" lon="11.05744312517345">
        <ele>1887.205322265625</ele>
        <time>2013-12-29T11:09:04Z</time>
      </trkpt>
      <trkpt lat="47.442438891157508" lon="11.057471204549074">
        <ele>1887.205322265625</ele>
        <time>2013-12-29T11:09:13Z</time>
      </trkpt>
      <trkpt lat="47.442367393523455" lon="11.057516215369105">
        <ele>1887.205322265625</ele>
        <time>2013-12-29T11:09:24Z</time>
      </trkpt>
      <trkpt lat="47.442343253642321" lon="11.057536415755749">
        <ele>1887.68603515625</ele>
        <time>2013-12-29T11:09:31Z</time>
      </trkpt>
      <trkpt lat="47.442329172044992" lon="11.057545468211174">
        <ele>1887.68603515625</ele>
        <time>2013-12-29T11:09:47Z</time>
      </trkpt>
      <trkpt lat="47.442303188145161" lon="11.057563656941056">
        <ele>1887.205322265625</ele>
        <time>2013-12-29T11:09:54Z</time>
      </trkpt>
      <trkpt lat="47.442290112376213" lon="11.05757069773972">
        <ele>1887.205322265625</ele>
        <time>2013-12-29T11:10:01Z</time>
      </trkpt>
      <trkpt lat="47.442281395196915" lon="11.05757312849164">
        <ele>1886.244140625</ele>
        <time>2013-12-29T11:10:12Z</time>
      </trkpt>
      <trkpt lat="47.442282903939486" lon="11.057572877034545">
        <ele>1888.6474609375</ele>
        <time>2013-12-29T11:10:24Z</time>
      </trkpt>
      <trkpt lat="47.442251304164529" lon="11.05758779682219">
        <ele>1885.28271484375</ele>
        <time>2013-12-29T11:10:37Z</time>
      </trkpt>
      <trkpt lat="47.442239904776216" lon="11.057593915611506">
        <ele>1884.80224609375</ele>
        <time>2013-12-29T11:10:38Z</time>
      </trkpt>
      <trkpt lat="47.442199755460024" lon="11.057596765458584">
        <ele>1885.28271484375</ele>
        <time>2013-12-29T11:10:47Z</time>
      </trkpt>
      <trkpt lat="47.442194139584899" lon="11.057592071592808">
        <ele>1884.80224609375</ele>
        <time>2013-12-29T11:10:51Z</time>
      </trkpt>
      <trkpt lat="47.442191708832979" lon="11.057589976117015">
        <ele>1885.763427734375</ele>
        <time>2013-12-29T11:11:00Z</time>
      </trkpt>
      <trkpt lat="47.442166898399591" lon="11.057588970288634">
        <ele>1885.763427734375</ele>
        <time>2013-12-29T11:11:07Z</time>
      </trkpt>
      <trkpt lat="47.442165808752179" lon="11.057599280029535">
        <ele>1885.763427734375</ele>
        <time>2013-12-29T11:11:15Z</time>
      </trkpt>
      <trkpt lat="47.442184835672379" lon="11.057562986388803">
        <ele>1885.763427734375</ele>
        <time>2013-12-29T11:11:22Z</time>
      </trkpt>
      <trkpt lat="47.442228337749839" lon="11.057511605322361">
        <ele>1888.6474609375</ele>
        <time>2013-12-29T11:11:34Z</time>
      </trkpt>
      <trkpt lat="47.442253567278385" lon="11.057482771575451">
        <ele>1888.6474609375</ele>
        <time>2013-12-29T11:11:45Z</time>
      </trkpt>
      <trkpt lat="47.442253483459353" lon="11.057472545653582">
        <ele>1889.608642578125</ele>
        <time>2013-12-29T11:11:51Z</time>
      </trkpt>
      <trkpt lat="47.442236803472042" lon="11.057458212599158">
        <ele>1888.6474609375</ele>
        <time>2013-12-29T11:11:59Z</time>
      </trkpt>
      <trkpt lat="47.442241329699755" lon="11.057438682764769">
        <ele>1890.56982421875</ele>
        <time>2013-12-29T11:12:07Z</time>
      </trkpt>
      <trkpt lat="47.442259602248669" lon="11.057360228151083">
        <ele>1892.97314453125</ele>
        <time>2013-12-29T11:12:21Z</time>
      </trkpt>
      <trkpt lat="47.442280221730471" lon="11.057320330291986">
        <ele>1893.9345703125</ele>
        <time>2013-12-29T11:12:35Z</time>
      </trkpt>
      <trkpt lat="47.442286340519786" lon="11.057299543172121">
        <ele>1894.895751953125</ele>
        <time>2013-12-29T11:12:44Z</time>
      </trkpt>
      <trkpt lat="47.442317185923457" lon="11.057287221774459">
        <ele>1894.895751953125</ele>
        <time>2013-12-29T11:12:53Z</time>
      </trkpt>
      <trkpt lat="47.44233931414783" lon="11.057277079671621">
        <ele>1894.895751953125</ele>
        <time>2013-12-29T11:13:01Z</time>
      </trkpt>
      <trkpt lat="47.442334871739149" lon="11.057276241481304">
        <ele>1895.37646484375</ele>
        <time>2013-12-29T11:13:10Z</time>
      </trkpt>
      <trkpt lat="47.442332524806261" lon="11.057280180975795">
        <ele>1892.97314453125</ele>
        <time>2013-12-29T11:13:24Z</time>
      </trkpt>
      <trkpt lat="47.442332021892071" lon="11.05727850459516">
        <ele>1892.97314453125</ele>
        <time>2013-12-29T11:13:25Z</time>
      </trkpt>
      <trkpt lat="47.442346522584558" lon="11.057272301986814">
        <ele>1893.9345703125</ele>
        <time>2013-12-29T11:13:59Z</time>
      </trkpt>
      <trkpt lat="47.442349959164858" lon="11.057272469624877">
        <ele>1891.050537109375</ele>
        <time>2013-12-29T11:20:11Z</time>
      </trkpt>
      <trkpt lat="47.44235004298389" lon="11.057272553443909">
        <ele>1893.9345703125</ele>
        <time>2013-12-29T11:20:12Z</time>
      </trkpt>
      <trkpt lat="47.442343253642321" lon="11.057272804901004">
        <ele>1892.011962890625</ele>
        <time>2013-12-29T11:20:38Z</time>
      </trkpt>
      <trkpt lat="47.442340152338147" lon="11.057270709425211">
        <ele>1891.050537109375</ele>
        <time>2013-12-29T11:23:19Z</time>
      </trkpt>
      <trkpt lat="47.442341409623623" lon="11.057272218167782">
        <ele>1892.49267578125</ele>
        <time>2013-12-29T11:23:29Z</time>
      </trkpt>
      <trkpt lat="47.442342080175877" lon="11.057269619777799">
        <ele>1892.011962890625</ele>
        <time>2013-12-29T11:24:00Z</time>
      </trkpt>
      <trkpt lat="47.442343924194574" lon="11.057267189025879">
        <ele>1888.6474609375</ele>
        <time>2013-12-29T11:29:20Z</time>
      </trkpt>
      <trkpt lat="47.442343756556511" lon="11.057266518473625">
        <ele>1891.53125</ele>
        <time>2013-12-29T11:29:21Z</time>
      </trkpt>
      <trkpt lat="47.442343505099416" lon="11.057265596464276">
        <ele>1891.53125</ele>
        <time>2013-12-29T11:29:22Z</time>
      </trkpt>
      <trkpt lat="47.44234710931778" lon="11.057261656969786">
        <ele>1890.08935546875</ele>
        <time>2013-12-29T11:29:41Z</time>
      </trkpt>
      <trkpt lat="47.44234710931778" lon="11.057261656969786">
        <ele>1886.724609375</ele>
        <time>2013-12-29T11:29:43Z</time>
      </trkpt>
      <trkpt lat="47.44234710931778" lon="11.057261573150754">
        <ele>1892.011962890625</ele>
        <time>2013-12-29T11:29:44Z</time>
      </trkpt>
      <trkpt lat="47.44234710931778" lon="11.057261573150754">
        <ele>1892.011962890625</ele>
        <time>2013-12-29T11:29:45Z</time>
      </trkpt>
      <trkpt lat="47.442346941679716" lon="11.057261237874627">
        <ele>1890.56982421875</ele>
        <time>2013-12-29T11:29:47Z</time>
      </trkpt>
      <trkpt lat="47.442340319976211" lon="11.057274313643575">
        <ele>1891.050537109375</ele>
        <time>2013-12-29T11:37:14Z</time>
      </trkpt>
      <trkpt lat="47.44233101606369" lon="11.057274481281638">
        <ele>1891.050537109375</ele>
        <time>2013-12-29T11:37:42Z</time>
      </trkpt>
      <trkpt lat="47.442335458472371" lon="11.057287221774459">
        <ele>1890.08935546875</ele>
        <time>2013-12-29T11:37:54Z</time>
      </trkpt>
      <trkpt lat="47.442333279177547" lon="11.057296525686979">
        <ele>1890.08935546875</ele>
        <time>2013-12-29T11:37:56Z</time>
      </trkpt>
      <trkpt lat="47.442355742678046" lon="11.057320581749082">
        <ele>1888.6474609375</ele>
        <time>2013-12-29T11:37:59Z</time>
      </trkpt>
      <trkpt lat="47.442385414615273" lon="11.057335836812854">
        <ele>1888.166748046875</ele>
        <time>2013-12-29T11:38:05Z</time>
      </trkpt>
      <trkpt lat="47.44239061139524" lon="11.057330220937729">
        <ele>1888.166748046875</ele>
        <time>2013-12-29T11:38:21Z</time>
      </trkpt>
      <trkpt lat="47.442441321909428" lon="11.057409346103668">
        <ele>1883.35986328125</ele>
        <time>2013-12-29T11:38:25Z</time>
      </trkpt>
      <trkpt lat="47.442457666620612" lon="11.057430719956756">
        <ele>1882.398681640625</ele>
        <time>2013-12-29T11:38:26Z</time>
      </trkpt>
      <trkpt lat="47.442507119849324" lon="11.057417225092649">
        <ele>1881.91796875</ele>
        <time>2013-12-29T11:38:35Z</time>
      </trkpt>
      <trkpt lat="47.442510221153498" lon="11.057416051626205">
        <ele>1882.398681640625</ele>
        <time>2013-12-29T11:38:37Z</time>
      </trkpt>
      <trkpt lat="47.442526398226619" lon="11.057482436299324">
        <ele>1878.553466796875</ele>
        <time>2013-12-29T11:38:41Z</time>
      </trkpt>
      <trkpt lat="47.442525560036302" lon="11.057511186227202">
        <ele>1878.07275390625</ele>
        <time>2013-12-29T11:38:42Z</time>
      </trkpt>
      <trkpt lat="47.442540228366852" lon="11.057610511779785">
        <ele>1874.708251953125</ele>
        <time>2013-12-29T11:38:45Z</time>
      </trkpt>
      <trkpt lat="47.442566798999906" lon="11.057683853432536">
        <ele>1871.343505859375</ele>
        <time>2013-12-29T11:38:47Z</time>
      </trkpt>
      <trkpt lat="47.442599320784211" lon="11.057749483734369">
        <ele>1867.017578125</ele>
        <time>2013-12-29T11:38:49Z</time>
      </trkpt>
      <trkpt lat="47.442652378231287" lon="11.057777311652899">
        <ele>1866.05615234375</ele>
        <time>2013-12-29T11:38:51Z</time>
      </trkpt>
      <trkpt lat="47.442762348800898" lon="11.057791644707322">
        <ele>1862.2109375</ele>
        <time>2013-12-29T11:38:55Z</time>
      </trkpt>
      <trkpt lat="47.442785231396556" lon="11.05780815705657">
        <ele>1861.73046875</ele>
        <time>2013-12-29T11:38:56Z</time>
      </trkpt>
      <trkpt lat="47.442893944680691" lon="11.057862052693963">
        <ele>1858.846435546875</ele>
        <time>2013-12-29T11:39:00Z</time>
      </trkpt>
      <trkpt lat="47.442952450364828" lon="11.057907901704311">
        <ele>1857.88525390625</ele>
        <time>2013-12-29T11:39:02Z</time>
      </trkpt>
      <trkpt lat="47.442980278283358" lon="11.057938411831856">
        <ele>1854.5205078125</ele>
        <time>2013-12-29T11:39:03Z</time>
      </trkpt>
      <trkpt lat="47.443031072616577" lon="11.058016112074256">
        <ele>1848.75244140625</ele>
        <time>2013-12-29T11:39:05Z</time>
      </trkpt>
      <trkpt lat="47.443074993789196" lon="11.058110995218158">
        <ele>1845.387939453125</ele>
        <time>2013-12-29T11:39:07Z</time>
      </trkpt>
      <trkpt lat="47.443096032366157" lon="11.058249128982425">
        <ele>1841.542724609375</ele>
        <time>2013-12-29T11:39:10Z</time>
      </trkpt>
      <trkpt lat="47.443089494481683" lon="11.05830461718142">
        <ele>1841.06201171875</ele>
        <time>2013-12-29T11:39:14Z</time>
      </trkpt>
      <trkpt lat="47.443115143105388" lon="11.058317944407463">
        <ele>1837.697509765625</ele>
        <time>2013-12-29T11:39:31Z</time>
      </trkpt>
      <trkpt lat="47.4431714694947" lon="11.058420538902283">
        <ele>1833.85205078125</ele>
        <time>2013-12-29T11:39:34Z</time>
      </trkpt>
      <trkpt lat="47.443177755922079" lon="11.058511650189757">
        <ele>1831.44873046875</ele>
        <time>2013-12-29T11:39:36Z</time>
      </trkpt>
      <trkpt lat="47.443173229694366" lon="11.058560432866216">
        <ele>1828.084228515625</ele>
        <time>2013-12-29T11:39:37Z</time>
      </trkpt>
      <trkpt lat="47.443175911903381" lon="11.058649448677897">
        <ele>1825.2001953125</ele>
        <time>2013-12-29T11:39:40Z</time>
      </trkpt>
      <trkpt lat="47.443223018199205" lon="11.05867350474">
        <ele>1823.75830078125</ele>
        <time>2013-12-29T11:39:48Z</time>
      </trkpt>
      <trkpt lat="47.443250427022576" lon="11.058733016252518">
        <ele>1818.95166015625</ele>
        <time>2013-12-29T11:39:51Z</time>
      </trkpt>
      <trkpt lat="47.44327456690371" lon="11.058865785598755">
        <ele>1813.664306640625</ele>
        <time>2013-12-29T11:39:54Z</time>
      </trkpt>
      <trkpt lat="47.443277165293694" lon="11.058989334851503">
        <ele>1809.819091796875</ele>
        <time>2013-12-29T11:39:57Z</time>
      </trkpt>
      <trkpt lat="47.443284541368484" lon="11.059058737009764">
        <ele>1806.45458984375</ele>
        <time>2013-12-29T11:39:59Z</time>
      </trkpt>
      <trkpt lat="47.443279344588518" lon="11.059178682044148">
        <ele>1801.167236328125</ele>
        <time>2013-12-29T11:40:02Z</time>
      </trkpt>
      <trkpt lat="47.443299377337098" lon="11.059257891029119">
        <ele>1797.802734375</ele>
        <time>2013-12-29T11:40:04Z</time>
      </trkpt>
      <trkpt lat="47.443317901343107" lon="11.059282030910254">
        <ele>1797.802734375</ele>
        <time>2013-12-29T11:40:05Z</time>
      </trkpt>
      <trkpt lat="47.443361319601536" lon="11.059279097244143">
        <ele>1796.36083984375</ele>
        <time>2013-12-29T11:40:12Z</time>
      </trkpt>
      <trkpt lat="47.443357212468982" lon="11.059274235740304">
        <ele>1796.36083984375</ele>
        <time>2013-12-29T11:40:43Z</time>
      </trkpt>
      <trkpt lat="47.443360732868314" lon="11.059314217418432">
        <ele>1792.99609375</ele>
        <time>2013-12-29T11:40:45Z</time>
      </trkpt>
      <trkpt lat="47.443337263539433" lon="11.05942846275866">
        <ele>1789.15087890625</ele>
        <time>2013-12-29T11:40:48Z</time>
      </trkpt>
      <trkpt lat="47.443332402035594" lon="11.059522842988372">
        <ele>1786.266845703125</ele>
        <time>2013-12-29T11:40:50Z</time>
      </trkpt>
      <trkpt lat="47.443301388993859" lon="11.059660976752639">
        <ele>1782.421630859375</ele>
        <time>2013-12-29T11:40:53Z</time>
      </trkpt>
      <trkpt lat="47.443261155858636" lon="11.059741778299212">
        <ele>1778.576416015625</ele>
        <time>2013-12-29T11:40:55Z</time>
      </trkpt>
      <trkpt lat="47.443241123110056" lon="11.059766504913568">
        <ele>1778.576416015625</ele>
        <time>2013-12-29T11:40:56Z</time>
      </trkpt>
      <trkpt lat="47.443208349868655" lon="11.059780670329928">
        <ele>1778.095703125</ele>
        <time>2013-12-29T11:40:59Z</time>
      </trkpt>
      <trkpt lat="47.44318756274879" lon="11.059779413044453">
        <ele>1776.65380859375</ele>
        <time>2013-12-29T11:41:06Z</time>
      </trkpt>
      <trkpt lat="47.443151269108057" lon="11.059850659221411">
        <ele>1773.769775390625</ele>
        <time>2013-12-29T11:41:10Z</time>
      </trkpt>
      <trkpt lat="47.443130230531096" lon="11.05988435447216">
        <ele>1773.289306640625</ele>
        <time>2013-12-29T11:41:12Z</time>
      </trkpt>
      <trkpt lat="47.443085890263319" lon="11.059939172118902">
        <ele>1771.3662109375</ele>
        <time>2013-12-29T11:41:16Z</time>
      </trkpt>
      <trkpt lat="47.443049261346459" lon="11.059956941753626">
        <ele>1769.92431640625</ele>
        <time>2013-12-29T11:41:21Z</time>
      </trkpt>
      <trkpt lat="47.443025540560484" lon="11.060041012242436">
        <ele>1766.559814453125</ele>
        <time>2013-12-29T11:41:25Z</time>
      </trkpt>
      <trkpt lat="47.442999221384525" lon="11.060129273682833">
        <ele>1763.1953125</ele>
        <time>2013-12-29T11:41:27Z</time>
      </trkpt>
      <trkpt lat="47.442958569154143" lon="11.060207393020391">
        <ele>1760.7919921875</ele>
        <time>2013-12-29T11:41:29Z</time>
      </trkpt>
      <trkpt lat="47.442909199744463" lon="11.060250895097852">
        <ele>1759.83056640625</ele>
        <time>2013-12-29T11:41:31Z</time>
      </trkpt>
      <trkpt lat="47.442818842828274" lon="11.060333289206028">
        <ele>1755.985107421875</ele>
        <time>2013-12-29T11:41:34Z</time>
      </trkpt>
      <trkpt lat="47.442761845886707" lon="11.060466393828392">
        <ele>1752.62060546875</ele>
        <time>2013-12-29T11:41:36Z</time>
      </trkpt>
      <trkpt lat="47.442754972726107" lon="11.060545854270458">
        <ele>1750.697998046875</ele>
        <time>2013-12-29T11:41:37Z</time>
      </trkpt>
      <trkpt lat="47.442843485623598" lon="11.060795215889812">
        <ele>1748.775390625</ele>
        <time>2013-12-29T11:41:39Z</time>
      </trkpt>
      <trkpt lat="47.442820267751813" lon="11.060950616374612">
        <ele>1747.33349609375</ele>
        <time>2013-12-29T11:41:42Z</time>
      </trkpt>
      <trkpt lat="47.442818842828274" lon="11.061036195605993">
        <ele>1744.449462890625</ele>
        <time>2013-12-29T11:41:45Z</time>
      </trkpt>
      <trkpt lat="47.442826889455318" lon="11.06107659637928">
        <ele>1743.007568359375</ele>
        <time>2013-12-29T11:41:46Z</time>
      </trkpt>
      <trkpt lat="47.442852705717087" lon="11.06117969378829">
        <ele>1742.04638671875</ele>
        <time>2013-12-29T11:41:49Z</time>
      </trkpt>
      <trkpt lat="47.442809622734785" lon="11.0612050909549">
        <ele>1740.604248046875</ele>
        <time>2013-12-29T11:41:58Z</time>
      </trkpt>
      <trkpt lat="47.442612396553159" lon="11.061204420402646">
        <ele>1736.7587890625</ele>
        <time>2013-12-29T11:42:02Z</time>
      </trkpt>
      <trkpt lat="47.442343924194574" lon="11.061018342152238">
        <ele>1731.952392578125</ele>
        <time>2013-12-29T11:42:07Z</time>
      </trkpt>
      <trkpt lat="47.442223811522126" lon="11.061004931107163">
        <ele>1729.549072265625</ele>
        <time>2013-12-29T11:42:10Z</time>
      </trkpt>
      <trkpt lat="47.442019293084741" lon="11.060985401272774">
        <ele>1727.14599609375</ele>
        <time>2013-12-29T11:42:14Z</time>
      </trkpt>
      <trkpt lat="47.441914351657033" lon="11.06101993471384">
        <ele>1725.22314453125</ele>
        <time>2013-12-29T11:42:16Z</time>
      </trkpt>
      <trkpt lat="47.441710587590933" lon="11.061049355193973">
        <ele>1722.339111328125</ele>
        <time>2013-12-29T11:42:20Z</time>
      </trkpt>
      <trkpt lat="47.441476732492447" lon="11.061059078201652">
        <ele>1718.493896484375</ele>
        <time>2013-12-29T11:42:24Z</time>
      </trkpt>
      <trkpt lat="47.441150508821011" lon="11.061032172292471">
        <ele>1713.687255859375</ele>
        <time>2013-12-29T11:42:29Z</time>
      </trkpt>
      <trkpt lat="47.440956048667431" lon="11.061085229739547">
        <ele>1711.764892578125</ele>
        <time>2013-12-29T11:42:32Z</time>
      </trkpt>
      <trkpt lat="47.440784638747573" lon="11.061133425682783">
        <ele>1710.32275390625</ele>
        <time>2013-12-29T11:42:35Z</time>
      </trkpt>
      <trkpt lat="47.440488673746586" lon="11.061075339093804">
        <ele>1707.438720703125</ele>
        <time>2013-12-29T11:42:41Z</time>
      </trkpt>
      <trkpt lat="47.440180722624063" lon="11.061243480071425">
        <ele>1704.07421875</ele>
        <time>2013-12-29T11:42:47Z</time>
      </trkpt>
      <trkpt lat="47.440150128677487" lon="11.061465684324503">
        <ele>1701.6708984375</ele>
        <time>2013-12-29T11:42:50Z</time>
      </trkpt>
      <trkpt lat="47.440133113414049" lon="11.061501055955887">
        <ele>1701.190185546875</ele>
        <time>2013-12-29T11:42:51Z</time>
      </trkpt>
      <trkpt lat="47.440109895542264" lon="11.061493847519159">
        <ele>1701.190185546875</ele>
        <time>2013-12-29T11:43:00Z</time>
      </trkpt>
      <trkpt lat="47.440107967704535" lon="11.061491332948208">
        <ele>1700.70947265625</ele>
        <time>2013-12-29T11:43:09Z</time>
      </trkpt>
      <trkpt lat="47.440204191952944" lon="11.06162971816957">
        <ele>1697.344970703125</ele>
        <time>2013-12-29T11:43:14Z</time>
      </trkpt>
      <trkpt lat="47.440359592437744" lon="11.061752429232001">
        <ele>1693.01904296875</ele>
        <time>2013-12-29T11:43:17Z</time>
      </trkpt>
      <trkpt lat="47.44041558355093" lon="11.061788219958544">
        <ele>1692.057861328125</ele>
        <time>2013-12-29T11:43:18Z</time>
      </trkpt>
      <trkpt lat="47.440781621262431" lon="11.061969855800271">
        <ele>1690.615478515625</ele>
        <time>2013-12-29T11:43:27Z</time>
      </trkpt>
      <trkpt lat="47.440913300961256" lon="11.062028277665377">
        <ele>1689.654296875</ele>
        <time>2013-12-29T11:43:30Z</time>
      </trkpt>
      <trkpt lat="47.441229969263077" lon="11.062181582674384">
        <ele>1686.770263671875</ele>
        <time>2013-12-29T11:43:38Z</time>
      </trkpt>
      <trkpt lat="47.441456615924835" lon="11.062266742810607">
        <ele>1683.886474609375</ele>
        <time>2013-12-29T11:43:42Z</time>
      </trkpt>
      <trkpt lat="47.441591480746865" lon="11.062311502173543">
        <ele>1681.9638671875</ele>
        <time>2013-12-29T11:43:44Z</time>
      </trkpt>
      <trkpt lat="47.441907059401274" lon="11.062314519658685">
        <ele>1676.6767578125</ele>
        <time>2013-12-29T11:43:48Z</time>
      </trkpt>
      <trkpt lat="47.442000852897763" lon="11.062306137755513">
        <ele>1675.234375</ele>
        <time>2013-12-29T11:43:49Z</time>
      </trkpt>
      <trkpt lat="47.442432856187224" lon="11.062456425279379">
        <ele>1670.90869140625</ele>
        <time>2013-12-29T11:43:54Z</time>
      </trkpt>
      <trkpt lat="47.442498905584216" lon="11.062502274289727">
        <ele>1670.427978515625</ele>
        <time>2013-12-29T11:43:55Z</time>
      </trkpt>
      <trkpt lat="47.442800235003233" lon="11.062729004770517">
        <ele>1667.5439453125</ele>
        <time>2013-12-29T11:44:01Z</time>
      </trkpt>
      <trkpt lat="47.442901488393545" lon="11.062814584001899">
        <ele>1667.0634765625</ele>
        <time>2013-12-29T11:44:04Z</time>
      </trkpt>
      <trkpt lat="47.443199045956135" lon="11.062906198203564">
        <ele>1666.10205078125</ele>
        <time>2013-12-29T11:44:13Z</time>
      </trkpt>
      <trkpt lat="47.443356039002538" lon="11.062866384163499">
        <ele>1666.10205078125</ele>
        <time>2013-12-29T11:44:19Z</time>
      </trkpt>
      <trkpt lat="47.443512193858624" lon="11.062749037519097">
        <ele>1665.62158203125</ele>
        <time>2013-12-29T11:44:26Z</time>
      </trkpt>
      <trkpt lat="47.443657871335745" lon="11.062482492998242">
        <ele>1665.140869140625</ele>
        <time>2013-12-29T11:44:35Z</time>
      </trkpt>
      <trkpt lat="47.443925756961107" lon="11.062170267105103">
        <ele>1663.69873046875</ele>
        <time>2013-12-29T11:44:46Z</time>
      </trkpt>
      <trkpt lat="47.4440798163414" lon="11.06216624379158">
        <ele>1662.2568359375</ele>
        <time>2013-12-29T11:44:50Z</time>
      </trkpt>
      <trkpt lat="47.444449625909328" lon="11.062055351212621">
        <ele>1658.411376953125</ele>
        <time>2013-12-29T11:44:57Z</time>
      </trkpt>
      <trkpt lat="47.444609804078937" lon="11.061995588243008">
        <ele>1655.046875</ele>
        <time>2013-12-29T11:44:59Z</time>
      </trkpt>
      <trkpt lat="47.445011800155044" lon="11.06198837980628">
        <ele>1648.317626953125</ele>
        <time>2013-12-29T11:45:03Z</time>
      </trkpt>
      <trkpt lat="47.445128643885255" lon="11.062017800286412">
        <ele>1646.395263671875</ele>
        <time>2013-12-29T11:45:04Z</time>
      </trkpt>
      <trkpt lat="47.44561705738306" lon="11.062034983187914">
        <ele>1637.262451171875</ele>
        <time>2013-12-29T11:45:08Z</time>
      </trkpt>
      <trkpt lat="47.445833729580045" lon="11.062131291255355">
        <ele>1633.417236328125</ele>
        <time>2013-12-29T11:45:10Z</time>
      </trkpt>
      <trkpt lat="47.446032967418432" lon="11.062301779165864">
        <ele>1631.49462890625</ele>
        <time>2013-12-29T11:45:12Z</time>
      </trkpt>
      <trkpt lat="47.446338403970003" lon="11.062440415844321">
        <ele>1625.7265625</ele>
        <time>2013-12-29T11:45:15Z</time>
      </trkpt>
      <trkpt lat="47.446656161919236" lon="11.062650298699737">
        <ele>1621.88134765625</ele>
        <time>2013-12-29T11:45:19Z</time>
      </trkpt>
      <trkpt lat="47.446771077811718" lon="11.062774267047644">
        <ele>1619.478271484375</ele>
        <time>2013-12-29T11:45:21Z</time>
      </trkpt>
      <trkpt lat="47.447030581533909" lon="11.063121361657977">
        <ele>1616.113525390625</ele>
        <time>2013-12-29T11:45:27Z</time>
      </trkpt>
      <trkpt lat="47.447195537388325" lon="11.063416069373488">
        <ele>1617.074951171875</ele>
        <time>2013-12-29T11:45:34Z</time>
      </trkpt>
      <trkpt lat="47.447335431352258" lon="11.063579935580492">
        <ele>1616.59423828125</ele>
        <time>2013-12-29T11:45:41Z</time>
      </trkpt>
      <trkpt lat="47.447501728311181" lon="11.063644979149103">
        <ele>1616.113525390625</ele>
        <time>2013-12-29T11:45:49Z</time>
      </trkpt>
      <trkpt lat="47.447604071348906" lon="11.063656294718385">
        <ele>1617.074951171875</ele>
        <time>2013-12-29T11:45:57Z</time>
      </trkpt>
      <trkpt lat="47.447716724127531" lon="11.063682362437248">
        <ele>1617.555419921875</ele>
        <time>2013-12-29T11:46:12Z</time>
      </trkpt>
      <trkpt lat="47.44786424562335" lon="11.063690995797515">
        <ele>1617.555419921875</ele>
        <time>2013-12-29T11:46:23Z</time>
      </trkpt>
      <trkpt lat="47.448095334693789" lon="11.063751764595509">
        <ele>1617.555419921875</ele>
        <time>2013-12-29T11:46:34Z</time>
      </trkpt>
      <trkpt lat="47.448316868394613" lon="11.063891407102346">
        <ele>1617.074951171875</ele>
        <time>2013-12-29T11:46:46Z</time>
      </trkpt>
      <trkpt lat="47.448374619707465" lon="11.0639404412359">
        <ele>1616.59423828125</ele>
        <time>2013-12-29T11:46:50Z</time>
      </trkpt>
      <trkpt lat="47.448419546708465" lon="11.064071618020535">
        <ele>1616.59423828125</ele>
        <time>2013-12-29T11:46:56Z</time>
      </trkpt>
      <trkpt lat="47.448435891419649" lon="11.064115790650249">
        <ele>1616.113525390625</ele>
        <time>2013-12-29T11:46:58Z</time>
      </trkpt>
      <trkpt lat="47.448563883081079" lon="11.064381077885628">
        <ele>1614.671630859375</ele>
        <time>2013-12-29T11:47:06Z</time>
      </trkpt>
      <trkpt lat="47.448681900277734" lon="11.064561456441879">
        <ele>1612.7490234375</ele>
        <time>2013-12-29T11:47:09Z</time>
      </trkpt>
      <trkpt lat="47.449007956311107" lon="11.064972002059221">
        <ele>1607.9423828125</ele>
        <time>2013-12-29T11:47:15Z</time>
      </trkpt>
      <trkpt lat="47.44922605343163" lon="11.065214574337006">
        <ele>1606.01953125</ele>
        <time>2013-12-29T11:47:19Z</time>
      </trkpt>
      <trkpt lat="47.449426548555493" lon="11.065528560429811">
        <ele>1604.57763671875</ele>
        <time>2013-12-29T11:47:26Z</time>
      </trkpt>
      <trkpt lat="47.44944104924798" lon="11.06554658152163">
        <ele>1604.57763671875</ele>
        <time>2013-12-29T11:47:30Z</time>
      </trkpt>
      <trkpt lat="47.449548169970512" lon="11.06567457318306">
        <ele>1604.57763671875</ele>
        <time>2013-12-29T11:47:39Z</time>
      </trkpt>
      <trkpt lat="47.449631402269006" lon="11.065828297287226">
        <ele>1604.57763671875</ele>
        <time>2013-12-29T11:47:46Z</time>
      </trkpt>
      <trkpt lat="47.449732571840286" lon="11.065929299220443">
        <ele>1605.058349609375</ele>
        <time>2013-12-29T11:48:00Z</time>
      </trkpt>
      <trkpt lat="47.449859473854303" lon="11.066016303375363">
        <ele>1605.5390625</ele>
        <time>2013-12-29T11:48:17Z</time>
      </trkpt>
      <trkpt lat="47.449931055307388" lon="11.066059889271855">
        <ele>1606.01953125</ele>
        <time>2013-12-29T11:48:29Z</time>
      </trkpt>
      <trkpt lat="47.449998445808887" lon="11.066082939505577">
        <ele>1606.500244140625</ele>
        <time>2013-12-29T11:48:38Z</time>
      </trkpt>
      <trkpt lat="47.450102884322405" lon="11.066159382462502">
        <ele>1606.01953125</ele>
        <time>2013-12-29T11:48:48Z</time>
      </trkpt>
      <trkpt lat="47.450114199891686" lon="11.066160807386041">
        <ele>1606.500244140625</ele>
        <time>2013-12-29T11:48:56Z</time>
      </trkpt>
      <trkpt lat="47.450157534331083" lon="11.066178493201733">
        <ele>1606.01953125</ele>
        <time>2013-12-29T11:50:05Z</time>
      </trkpt>
      <trkpt lat="47.45016130618751" lon="11.066178493201733">
        <ele>1605.5390625</ele>
        <time>2013-12-29T11:50:06Z</time>
      </trkpt>
      <trkpt lat="47.450354928150773" lon="11.066251834854484">
        <ele>1607.9423828125</ele>
        <time>2013-12-29T11:50:17Z</time>
      </trkpt>
      <trkpt lat="47.450499515980482" lon="11.066308664157987">
        <ele>1611.306884765625</ele>
        <time>2013-12-29T11:50:26Z</time>
      </trkpt>
      <trkpt lat="47.450683917850256" lon="11.066363817080855">
        <ele>1614.671630859375</ele>
        <time>2013-12-29T11:50:38Z</time>
      </trkpt>
      <trkpt lat="47.450850550085306" lon="11.066436655819416">
        <ele>1617.555419921875</ele>
        <time>2013-12-29T11:50:48Z</time>
      </trkpt>
      <trkpt lat="47.450929842889309" lon="11.066507985815406">
        <ele>1618.516845703125</ele>
        <time>2013-12-29T11:50:57Z</time>
      </trkpt>
      <trkpt lat="47.450926993042231" lon="11.066607143729925">
        <ele>1618.99755859375</ele>
        <time>2013-12-29T11:51:06Z</time>
      </trkpt>
      <trkpt lat="47.450951971113682" lon="11.06667872518301">
        <ele>1618.516845703125</ele>
        <time>2013-12-29T11:51:15Z</time>
      </trkpt>
      <trkpt lat="47.451038975268602" lon="11.066871006041765">
        <ele>1617.074951171875</ele>
        <time>2013-12-29T11:51:22Z</time>
      </trkpt>
      <trkpt lat="47.451262855902314" lon="11.067246096208692">
        <ele>1614.19091796875</ele>
        <time>2013-12-29T11:51:29Z</time>
      </trkpt>
      <trkpt lat="47.451501991599798" lon="11.06759000569582">
        <ele>1610.826171875</ele>
        <time>2013-12-29T11:51:37Z</time>
      </trkpt>
      <trkpt lat="47.451543398201466" lon="11.067644571885467">
        <ele>1609.86474609375</ele>
        <time>2013-12-29T11:51:38Z</time>
      </trkpt>
      <trkpt lat="47.451782869175076" lon="11.067961240187287">
        <ele>1606.500244140625</ele>
        <time>2013-12-29T11:51:41Z</time>
      </trkpt>
      <trkpt lat="47.45192133821547" lon="11.068127620965242">
        <ele>1603.1357421875</ele>
        <time>2013-12-29T11:51:43Z</time>
      </trkpt>
      <trkpt lat="47.452033571898937" lon="11.068311519920826">
        <ele>1599.29052734375</ele>
        <time>2013-12-29T11:51:45Z</time>
      </trkpt>
      <trkpt lat="47.45209040120244" lon="11.068527353927493">
        <ele>1594.483642578125</ele>
        <time>2013-12-29T11:51:47Z</time>
      </trkpt>
      <trkpt lat="47.452109511941671" lon="11.068639168515801">
        <ele>1593.041748046875</ele>
        <time>2013-12-29T11:51:48Z</time>
      </trkpt>
      <trkpt lat="47.452137088403106" lon="11.068938989192247">
        <ele>1591.119140625</ele>
        <time>2013-12-29T11:51:51Z</time>
      </trkpt>
      <trkpt lat="47.452105237171054" lon="11.069215508177876">
        <ele>1589.196533203125</ele>
        <time>2013-12-29T11:51:54Z</time>
      </trkpt>
      <trkpt lat="47.452075062319636" lon="11.069477442651987">
        <ele>1587.27392578125</ele>
        <time>2013-12-29T11:51:57Z</time>
      </trkpt>
      <trkpt lat="47.452094508334994" lon="11.069784052670002">
        <ele>1583.909423828125</ele>
        <time>2013-12-29T11:52:00Z</time>
      </trkpt>
      <trkpt lat="47.452162150293589" lon="11.06993249617517">
        <ele>1581.98681640625</ele>
        <time>2013-12-29T11:52:02Z</time>
      </trkpt>
      <trkpt lat="47.45223943144083" lon="11.069982619956136">
        <ele>1580.544921875</ele>
        <time>2013-12-29T11:52:05Z</time>
      </trkpt>
      <trkpt lat="47.452220739796758" lon="11.070069372653961">
        <ele>1580.544921875</ele>
        <time>2013-12-29T11:52:07Z</time>
      </trkpt>
      <trkpt lat="47.45224236510694" lon="11.070443456992507">
        <ele>1576.21875</ele>
        <time>2013-12-29T11:52:11Z</time>
      </trkpt>
      <trkpt lat="47.452374463900924" lon="11.070902114734054">
        <ele>1570.450927734375</ele>
        <time>2013-12-29T11:52:15Z</time>
      </trkpt>
      <trkpt lat="47.452452918514609" lon="11.071165557950735">
        <ele>1567.56689453125</ele>
        <time>2013-12-29T11:52:17Z</time>
      </trkpt>
      <trkpt lat="47.45269482024014" lon="11.071589179337025">
        <ele>1563.240966796875</ele>
        <time>2013-12-29T11:52:22Z</time>
      </trkpt>
      <trkpt lat="47.452745027840137" lon="11.071646427735686">
        <ele>1562.76025390625</ele>
        <time>2013-12-29T11:52:23Z</time>
      </trkpt>
      <trkpt lat="47.452838821336627" lon="11.071774167940021">
        <ele>1560.837646484375</ele>
        <time>2013-12-29T11:52:25Z</time>
      </trkpt>
      <trkpt lat="47.45299581438303" lon="11.07195932418108">
        <ele>1558.434326171875</ele>
        <time>2013-12-29T11:52:28Z</time>
      </trkpt>
      <trkpt lat="47.453198488801718" lon="11.072120675817132">
        <ele>1555.06982421875</ele>
        <time>2013-12-29T11:52:31Z</time>
      </trkpt>
      <trkpt lat="47.453325306996703" lon="11.072257217019796">
        <ele>1553.6279296875</ele>
        <time>2013-12-29T11:52:33Z</time>
      </trkpt>
      <trkpt lat="47.453435948118567" lon="11.072422843426466">
        <ele>1550.263427734375</ele>
        <time>2013-12-29T11:52:35Z</time>
      </trkpt>
      <trkpt lat="47.453578356653452" lon="11.072712354362011">
        <ele>1546.8984375</ele>
        <time>2013-12-29T11:52:38Z</time>
      </trkpt>
      <trkpt lat="47.453623451292515" lon="11.072819977998734">
        <ele>1545.45654296875</ele>
        <time>2013-12-29T11:52:39Z</time>
      </trkpt>
      <trkpt lat="47.453797040507197" lon="11.073138993233442">
        <ele>1542.092041015625</ele>
        <time>2013-12-29T11:52:42Z</time>
      </trkpt>
      <trkpt lat="47.453975658863783" lon="11.073492877185345">
        <ele>1537.285400390625</ele>
        <time>2013-12-29T11:52:45Z</time>
      </trkpt>
      <trkpt lat="47.454078253358603" lon="11.073914486914873">
        <ele>1531.998046875</ele>
        <time>2013-12-29T11:52:48Z</time>
      </trkpt>
      <trkpt lat="47.454148242250085" lon="11.074200561270118">
        <ele>1527.672119140625</ele>
        <time>2013-12-29T11:52:50Z</time>
      </trkpt>
      <trkpt lat="47.4542027246207" lon="11.074501890689135">
        <ele>1525.268798828125</ele>
        <time>2013-12-29T11:52:52Z</time>
      </trkpt>
      <trkpt lat="47.454351671040058" lon="11.074864743277431">
        <ele>1519.981689453125</ele>
        <time>2013-12-29T11:52:55Z</time>
      </trkpt>
      <trkpt lat="47.454643612727523" lon="11.075146375223994">
        <ele>1514.6943359375</ele>
        <time>2013-12-29T11:52:59Z</time>
      </trkpt>
      <trkpt lat="47.454706812277436" lon="11.075211251154542">
        <ele>1513.25244140625</ele>
        <time>2013-12-29T11:53:00Z</time>
      </trkpt>
      <trkpt lat="47.454862631857395" lon="11.075603188946843">
        <ele>1509.4072265625</ele>
        <time>2013-12-29T11:53:04Z</time>
      </trkpt>
      <trkpt lat="47.454872187227011" lon="11.075733359903097">
        <ele>1507.96533203125</ele>
        <time>2013-12-29T11:53:05Z</time>
      </trkpt>
      <trkpt lat="47.454912336543202" lon="11.076179360970855">
        <ele>1502.677978515625</ele>
        <time>2013-12-29T11:53:08Z</time>
      </trkpt>
      <trkpt lat="47.45496790856123" lon="11.076488653197885">
        <ele>1498.351806640625</ele>
        <time>2013-12-29T11:53:10Z</time>
      </trkpt>
      <trkpt lat="47.455032868310809" lon="11.076776990666986">
        <ele>1494.9873046875</ele>
        <time>2013-12-29T11:53:12Z</time>
      </trkpt>
      <trkpt lat="47.455072263255715" lon="11.076908502727747">
        <ele>1493.064697265625</ele>
        <time>2013-12-29T11:53:13Z</time>
      </trkpt>
      <trkpt lat="47.455329084768891" lon="11.077228775247931">
        <ele>1487.777587890625</ele>
        <time>2013-12-29T11:53:17Z</time>
      </trkpt>
      <trkpt lat="47.455553216859698" lon="11.077411500737071">
        <ele>1484.4130859375</ele>
        <time>2013-12-29T11:53:20Z</time>
      </trkpt>
      <trkpt lat="47.455754047259688" lon="11.077625909820199">
        <ele>1481.04833984375</ele>
        <time>2013-12-29T11:53:23Z</time>
      </trkpt>
      <trkpt lat="47.455877931788564" lon="11.077765300869942">
        <ele>1479.606201171875</ele>
        <time>2013-12-29T11:53:25Z</time>
      </trkpt>
      <trkpt lat="47.456057304516435" lon="11.077970741316676">
        <ele>1475.760986328125</ele>
        <time>2013-12-29T11:53:28Z</time>
      </trkpt>
      <trkpt lat="47.456118408590555" lon="11.078040227293968">
        <ele>1475.760986328125</ele>
        <time>2013-12-29T11:53:29Z</time>
      </trkpt>
      <trkpt lat="47.456338182091713" lon="11.078350525349379">
        <ele>1470.95458984375</ele>
        <time>2013-12-29T11:53:33Z</time>
      </trkpt>
      <trkpt lat="47.456383109092712" lon="11.078442977741361">
        <ele>1470.95458984375</ele>
        <time>2013-12-29T11:53:34Z</time>
      </trkpt>
      <trkpt lat="47.456527864560485" lon="11.078839106485248">
        <ele>1468.070556640625</ele>
        <time>2013-12-29T11:53:38Z</time>
      </trkpt>
      <trkpt lat="47.4565857835114" lon="11.07904739677906">
        <ele>1466.62841796875</ele>
        <time>2013-12-29T11:53:40Z</time>
      </trkpt>
      <trkpt lat="47.456634901463985" lon="11.079360209405422">
        <ele>1464.705810546875</ele>
        <time>2013-12-29T11:53:43Z</time>
      </trkpt>
      <trkpt lat="47.456636661663651" lon="11.079461295157671">
        <ele>1463.744384765625</ele>
        <time>2013-12-29T11:53:44Z</time>
      </trkpt>
      <trkpt lat="47.45661118067801" lon="11.079873600974679">
        <ele>1459.899169921875</ele>
        <time>2013-12-29T11:53:48Z</time>
      </trkpt>
      <trkpt lat="47.456577988341451" lon="11.080415742471814">
        <ele>1456.053955078125</ele>
        <time>2013-12-29T11:53:53Z</time>
      </trkpt>
      <trkpt lat="47.456573462113738" lon="11.080521354451776">
        <ele>1456.053955078125</ele>
        <time>2013-12-29T11:53:54Z</time>
      </trkpt>
      <trkpt lat="47.456559045240283" lon="11.08095109462738">
        <ele>1452.689453125</ele>
        <time>2013-12-29T11:53:58Z</time>
      </trkpt>
      <trkpt lat="47.456540688872337" lon="11.081493571400642">
        <ele>1448.36328125</ele>
        <time>2013-12-29T11:54:03Z</time>
      </trkpt>
      <trkpt lat="47.4569674115628" lon="11.081745196133852">
        <ele>1446.44091796875</ele>
        <time>2013-12-29T11:54:06Z</time>
      </trkpt>
      <trkpt lat="47.457022564485669" lon="11.081968490034342">
        <ele>1443.076171875</ele>
        <time>2013-12-29T11:54:08Z</time>
      </trkpt>
      <trkpt lat="47.457142677158117" lon="11.082222294062376">
        <ele>1437.7890625</ele>
        <time>2013-12-29T11:54:11Z</time>
      </trkpt>
      <trkpt lat="47.457288941368461" lon="11.082343999296427">
        <ele>1433.943603515625</ele>
        <time>2013-12-29T11:54:13Z</time>
      </trkpt>
      <trkpt lat="47.457492621615529" lon="11.082464028149843">
        <ele>1428.656494140625</ele>
        <time>2013-12-29T11:54:15Z</time>
      </trkpt>
      <trkpt lat="47.457816749811172" lon="11.08253275975585">
        <ele>1423.849853515625</ele>
        <time>2013-12-29T11:54:18Z</time>
      </trkpt>
      <trkpt lat="47.458108104765415" lon="11.082487162202597">
        <ele>1419.043212890625</ele>
        <time>2013-12-29T11:54:21Z</time>
      </trkpt>
      <trkpt lat="47.458289070054889" lon="11.082404097542167">
        <ele>1416.1591796875</ele>
        <time>2013-12-29T11:54:23Z</time>
      </trkpt>
      <trkpt lat="47.458454025909305" lon="11.082320949062705">
        <ele>1412.31396484375</ele>
        <time>2013-12-29T11:54:25Z</time>
      </trkpt>
      <trkpt lat="47.458534659817815" lon="11.082302592694759">
        <ele>1411.352783203125</ele>
        <time>2013-12-29T11:54:26Z</time>
      </trkpt>
      <trkpt lat="47.458771951496601" lon="11.082268394529819">
        <ele>1406.546142578125</ele>
        <time>2013-12-29T11:54:29Z</time>
      </trkpt>
      <trkpt lat="47.459059786051512" lon="11.082482216879725">
        <ele>1401.739501953125</ele>
        <time>2013-12-29T11:54:33Z</time>
      </trkpt>
      <trkpt lat="47.45913153514266" lon="11.08259629458189">
        <ele>1399.81689453125</ele>
        <time>2013-12-29T11:54:34Z</time>
      </trkpt>
      <trkpt lat="47.459364803507924" lon="11.083042211830616">
        <ele>1389.72314453125</ele>
        <time>2013-12-29T11:54:37Z</time>
      </trkpt>
      <trkpt lat="47.459514755755663" lon="11.083325855433941">
        <ele>1385.877685546875</ele>
        <time>2013-12-29T11:54:39Z</time>
      </trkpt>
      <trkpt lat="47.45958348736167" lon="11.08345334418118">
        <ele>1385.877685546875</ele>
        <time>2013-12-29T11:54:40Z</time>
      </trkpt>
      <trkpt lat="47.459854139015079" lon="11.084019457921386">
        <ele>1382.032470703125</ele>
        <time>2013-12-29T11:54:45Z</time>
      </trkpt>
      <trkpt lat="47.459894539788365" lon="11.084111239761114">
        <ele>1382.032470703125</ele>
        <time>2013-12-29T11:54:46Z</time>
      </trkpt>
      <trkpt lat="47.460163095965981" lon="11.084560006856918">
        <ele>1378.66796875</ele>
        <time>2013-12-29T11:54:52Z</time>
      </trkpt>
      <trkpt lat="47.460219506174326" lon="11.084630582481623">
        <ele>1377.22607421875</ele>
        <time>2013-12-29T11:54:53Z</time>
      </trkpt>
      <trkpt lat="47.46041270904243" lon="11.084856223315001">
        <ele>1372.41943359375</ele>
        <time>2013-12-29T11:54:56Z</time>
      </trkpt>
      <trkpt lat="47.460481692105532" lon="11.084933755919337">
        <ele>1370.49658203125</ele>
        <time>2013-12-29T11:54:57Z</time>
      </trkpt>
      <trkpt lat="47.46061940677464" lon="11.085111116990447">
        <ele>1364.248046875</ele>
        <time>2013-12-29T11:54:59Z</time>
      </trkpt>
      <trkpt lat="47.460695933550596" lon="11.085208766162395">
        <ele>1361.844970703125</ele>
        <time>2013-12-29T11:55:00Z</time>
      </trkpt>
      <trkpt lat="47.460997430607677" lon="11.085506239905953">
        <ele>1354.154296875</ele>
        <time>2013-12-29T11:55:03Z</time>
      </trkpt>
      <trkpt lat="47.461204966530204" lon="11.085706651210785">
        <ele>1350.78955078125</ele>
        <time>2013-12-29T11:55:05Z</time>
      </trkpt>
      <trkpt lat="47.46151409111917" lon="11.085961377248168">
        <ele>1345.021728515625</ele>
        <time>2013-12-29T11:55:08Z</time>
      </trkpt>
      <trkpt lat="47.461698073893785" lon="11.086157178506255">
        <ele>1341.6572265625</ele>
        <time>2013-12-29T11:55:10Z</time>
      </trkpt>
      <trkpt lat="47.461840650066733" lon="11.086558420211077">
        <ele>1338.29248046875</ele>
        <time>2013-12-29T11:55:13Z</time>
      </trkpt>
      <trkpt lat="47.461861940100789" lon="11.086822366341949">
        <ele>1337.811767578125</ele>
        <time>2013-12-29T11:55:15Z</time>
      </trkpt>
      <trkpt lat="47.461853474378586" lon="11.087038200348616">
        <ele>1335.88916015625</ele>
        <time>2013-12-29T11:55:17Z</time>
      </trkpt>
      <trkpt lat="47.461790191009641" lon="11.087490571662784">
        <ele>1335.88916015625</ele>
        <time>2013-12-29T11:55:24Z</time>
      </trkpt>
      <trkpt lat="47.461743503808975" lon="11.087801707908511">
        <ele>1335.88916015625</ele>
        <time>2013-12-29T11:55:33Z</time>
      </trkpt>
      <trkpt lat="47.461669491603971" lon="11.088187778368592">
        <ele>1334.927978515625</ele>
        <time>2013-12-29T11:55:42Z</time>
      </trkpt>
      <trkpt lat="47.461571926251054" lon="11.088604861870408">
        <ele>1333.966552734375</ele>
        <time>2013-12-29T11:55:52Z</time>
      </trkpt>
      <trkpt lat="47.461601346731186" lon="11.088872998952866">
        <ele>1333.966552734375</ele>
        <time>2013-12-29T11:55:58Z</time>
      </trkpt>
      <trkpt lat="47.461643842980266" lon="11.089211544021964">
        <ele>1333.005126953125</ele>
        <time>2013-12-29T11:56:07Z</time>
      </trkpt>
      <trkpt lat="47.461658427491784" lon="11.089645978063345">
        <ele>1330.60205078125</ele>
        <time>2013-12-29T11:56:15Z</time>
      </trkpt>
      <trkpt lat="47.461672676727176" lon="11.090391045436263">
        <ele>1327.718017578125</ele>
        <time>2013-12-29T11:56:26Z</time>
      </trkpt>
      <trkpt lat="47.461719866842031" lon="11.091085067018867">
        <ele>1324.353515625</ele>
        <time>2013-12-29T11:56:37Z</time>
      </trkpt>
      <trkpt lat="47.461831932887435" lon="11.091887382790446">
        <ele>1321.949951171875</ele>
        <time>2013-12-29T11:56:52Z</time>
      </trkpt>
      <trkpt lat="47.4619460105896" lon="11.092235650867224">
        <ele>1320.508056640625</ele>
        <time>2013-12-29T11:56:59Z</time>
      </trkpt>
      <trkpt lat="47.462049694731832" lon="11.0925183724612">
        <ele>1317.6240234375</ele>
        <time>2013-12-29T11:57:03Z</time>
      </trkpt>
      <trkpt lat="47.462081210687757" lon="11.092599593102932">
        <ele>1317.6240234375</ele>
        <time>2013-12-29T11:57:04Z</time>
      </trkpt>
      <trkpt lat="47.462256643921137" lon="11.093021957203746">
        <ele>1314.259521484375</ele>
        <time>2013-12-29T11:57:09Z</time>
      </trkpt>
      <trkpt lat="47.462430316954851" lon="11.093383049592376">
        <ele>1310.89501953125</ele>
        <time>2013-12-29T11:57:13Z</time>
      </trkpt>
      <trkpt lat="47.462585382163525" lon="11.093647330999374">
        <ele>1308.01123046875</ele>
        <time>2013-12-29T11:57:16Z</time>
      </trkpt>
      <trkpt lat="47.462803395465016" lon="11.093975398689508">
        <ele>1304.646240234375</ele>
        <time>2013-12-29T11:57:20Z</time>
      </trkpt>
      <trkpt lat="47.462944546714425" lon="11.094457861036062">
        <ele>1300.801025390625</ele>
        <time>2013-12-29T11:57:25Z</time>
      </trkpt>
      <trkpt lat="47.462947396561503" lon="11.094917189329863">
        <ele>1298.397705078125</ele>
        <time>2013-12-29T11:57:31Z</time>
      </trkpt>
      <trkpt lat="47.462946390733123" lon="11.095088347792625">
        <ele>1298.87841796875</ele>
        <time>2013-12-29T11:57:36Z</time>
      </trkpt>
      <trkpt lat="47.462933314964175" lon="11.095323208719492">
        <ele>1298.87841796875</ele>
        <time>2013-12-29T11:57:44Z</time>
      </trkpt>
      <trkpt lat="47.462975895032287" lon="11.095653623342514">
        <ele>1297.917236328125</ele>
        <time>2013-12-29T11:57:52Z</time>
      </trkpt>
      <trkpt lat="47.463057367131114" lon="11.095942128449678">
        <ele>1296.955810546875</ele>
        <time>2013-12-29T11:57:58Z</time>
      </trkpt>
      <trkpt lat="47.463218048214912" lon="11.096247565001249">
        <ele>1296.475341796875</ele>
        <time>2013-12-29T11:58:06Z</time>
      </trkpt>
      <trkpt lat="47.463457183912396" lon="11.096420818939805">
        <ele>1295.513916015625</ele>
        <time>2013-12-29T11:58:15Z</time>
      </trkpt>
      <trkpt lat="47.463664133101702" lon="11.096639921888709">
        <ele>1294.552490234375</ele>
        <time>2013-12-29T11:58:23Z</time>
      </trkpt>
      <trkpt lat="47.463789274916053" lon="11.096774367615581">
        <ele>1294.072021484375</ele>
        <time>2013-12-29T11:58:29Z</time>
      </trkpt>
      <trkpt lat="47.463910896331072" lon="11.097034709528089">
        <ele>1292.630126953125</ele>
        <time>2013-12-29T11:58:36Z</time>
      </trkpt>
      <trkpt lat="47.464015586301684" lon="11.097542652860284">
        <ele>1292.630126953125</ele>
        <time>2013-12-29T11:58:48Z</time>
      </trkpt>
      <trkpt lat="47.464132262393832" lon="11.098084039986134">
        <ele>1289.745849609375</ele>
        <time>2013-12-29T11:59:00Z</time>
      </trkpt>
      <trkpt lat="47.464227983728051" lon="11.09853875823319">
        <ele>1287.342529296875</ele>
        <time>2013-12-29T11:59:06Z</time>
      </trkpt>
      <trkpt lat="47.464272575452924" lon="11.098724417388439">
        <ele>1285.419921875</ele>
        <time>2013-12-29T11:59:08Z</time>
      </trkpt>
      <trkpt lat="47.464416911825538" lon="11.099014095962048">
        <ele>1283.0166015625</ele>
        <time>2013-12-29T11:59:12Z</time>
      </trkpt>
      <trkpt lat="47.464630482718349" lon="11.09918818809092">
        <ele>1277.7294921875</ele>
        <time>2013-12-29T11:59:16Z</time>
      </trkpt>
      <trkpt lat="47.464751601219177" lon="11.099266139790416">
        <ele>1273.403564453125</ele>
        <time>2013-12-29T11:59:18Z</time>
      </trkpt>
      <trkpt lat="47.46487339027226" lon="11.099347025156021">
        <ele>1271.000244140625</ele>
        <time>2013-12-29T11:59:20Z</time>
      </trkpt>
      <trkpt lat="47.465048991143703" lon="11.099609630182385">
        <ele>1266.67431640625</ele>
        <time>2013-12-29T11:59:24Z</time>
      </trkpt>
      <trkpt lat="47.465131301432848" lon="11.099755307659507">
        <ele>1264.751708984375</ele>
        <time>2013-12-29T11:59:26Z</time>
      </trkpt>
      <trkpt lat="47.465254683047533" lon="11.099996119737625">
        <ele>1259.94482421875</ele>
        <time>2013-12-29T11:59:29Z</time>
      </trkpt>
      <trkpt lat="47.465325845405459" lon="11.100256545469165">
        <ele>1255.619140625</ele>
        <time>2013-12-29T11:59:32Z</time>
      </trkpt>
      <trkpt lat="47.465457608923316" lon="11.100360061973333">
        <ele>1250.8125</ele>
        <time>2013-12-29T11:59:36Z</time>
      </trkpt>
      <trkpt lat="47.465530363842845" lon="11.100435080006719">
        <ele>1246.006103515625</ele>
        <time>2013-12-29T11:59:38Z</time>
      </trkpt>
      <trkpt lat="47.465588618069887" lon="11.1005690228194">
        <ele>1242.641357421875</ele>
        <time>2013-12-29T11:59:40Z</time>
      </trkpt>
      <trkpt lat="47.465659277513623" lon="11.100690895691514">
        <ele>1237.35400390625</ele>
        <time>2013-12-29T11:59:42Z</time>
      </trkpt>
      <trkpt lat="47.465757010504603" lon="11.100802039727569">
        <ele>1232.547607421875</ele>
        <time>2013-12-29T11:59:44Z</time>
      </trkpt>
      <trkpt lat="47.465839236974716" lon="11.100929947569966">
        <ele>1229.66357421875</ele>
        <time>2013-12-29T11:59:46Z</time>
      </trkpt>
      <trkpt lat="47.465952141210437" lon="11.101102950051427">
        <ele>1224.85693359375</ele>
        <time>2013-12-29T11:59:49Z</time>
      </trkpt>
      <trkpt lat="47.466062866151333" lon="11.101256255060434">
        <ele>1219.56982421875</ele>
        <time>2013-12-29T11:59:52Z</time>
      </trkpt>
      <trkpt lat="47.466121036559343" lon="11.101379133760929">
        <ele>1216.205078125</ele>
        <time>2013-12-29T11:59:54Z</time>
      </trkpt>
      <trkpt lat="47.466212986037135" lon="11.101556494832039">
        <ele>1210.917724609375</ele>
        <time>2013-12-29T11:59:57Z</time>
      </trkpt>
      <trkpt lat="47.46631876565516" lon="11.101731173694134">
        <ele>1205.14990234375</ele>
        <time>2013-12-29T12:00:00Z</time>
      </trkpt>
      <trkpt lat="47.466348269954324" lon="11.10179596580565">
        <ele>1204.188720703125</ele>
        <time>2013-12-29T12:00:01Z</time>
      </trkpt>
      <trkpt lat="47.466416833922267" lon="11.10192890278995">
        <ele>1200.823974609375</ele>
        <time>2013-12-29T12:00:03Z</time>
      </trkpt>
      <trkpt lat="47.466529738157988" lon="11.10213459469378">
        <ele>1191.69140625</ele>
        <time>2013-12-29T12:00:06Z</time>
      </trkpt>
      <trkpt lat="47.46664079837501" lon="11.102328132838011">
        <ele>1185.44287109375</ele>
        <time>2013-12-29T12:00:09Z</time>
      </trkpt>
      <trkpt lat="47.466723946854472" lon="11.102448496967554">
        <ele>1181.1171875</ele>
        <time>2013-12-29T12:00:11Z</time>
      </trkpt>
      <trkpt lat="47.466801563277841" lon="11.10257288441062">
        <ele>1177.271728515625</ele>
        <time>2013-12-29T12:00:13Z</time>
      </trkpt>
      <trkpt lat="47.466841293498874" lon="11.102638347074389">
        <ele>1174.3876953125</ele>
        <time>2013-12-29T12:00:14Z</time>
      </trkpt>
      <trkpt lat="47.466932907700539" lon="11.102774636819959">
        <ele>1170.061767578125</ele>
        <time>2013-12-29T12:00:16Z</time>
      </trkpt>
      <trkpt lat="47.467109598219395" lon="11.10299114137888">
        <ele>1162.851806640625</ele>
        <time>2013-12-29T12:00:19Z</time>
      </trkpt>
      <trkpt lat="47.467269524931908" lon="11.103257099166512">
        <ele>1155.64208984375</ele>
        <time>2013-12-29T12:00:22Z</time>
      </trkpt>
      <trkpt lat="47.467314954847097" lon="11.103348629549146">
        <ele>1153.719482421875</ele>
        <time>2013-12-29T12:00:23Z</time>
      </trkpt>
      <trkpt lat="47.467527519911528" lon="11.103641241788864">
        <ele>1146.509521484375</ele>
        <time>2013-12-29T12:00:27Z</time>
      </trkpt>
      <trkpt lat="47.46758527122438" lon="11.103703938424587">
        <ele>1145.548095703125</ele>
        <time>2013-12-29T12:00:28Z</time>
      </trkpt>
      <trkpt lat="47.467772690579295" lon="11.103937122970819">
        <ele>1141.702880859375</ele>
        <time>2013-12-29T12:00:32Z</time>
      </trkpt>
      <trkpt lat="47.467884588986635" lon="11.10407643020153">
        <ele>1140.260986328125</ele>
        <time>2013-12-29T12:00:36Z</time>
      </trkpt>
      <trkpt lat="47.467959271743894" lon="11.104124961420894">
        <ele>1137.376953125</ele>
        <time>2013-12-29T12:00:38Z</time>
      </trkpt>
      <trkpt lat="47.468154737725854" lon="11.10430701635778">
        <ele>1130.647705078125</ele>
        <time>2013-12-29T12:00:43Z</time>
      </trkpt>
      <trkpt lat="47.468260517343879" lon="11.104417992755771">
        <ele>1125.3603515625</ele>
        <time>2013-12-29T12:00:46Z</time>
      </trkpt>
      <trkpt lat="47.468289686366916" lon="11.10445361584425">
        <ele>1124.8798828125</ele>
        <time>2013-12-29T12:00:47Z</time>
      </trkpt>
      <trkpt lat="47.46838666498661" lon="11.104556545615196">
        <ele>1118.63134765625</ele>
        <time>2013-12-29T12:00:50Z</time>
      </trkpt>
      <trkpt lat="47.468425389379263" lon="11.104581020772457">
        <ele>1115.2666015625</ele>
        <time>2013-12-29T12:00:51Z</time>
      </trkpt>
      <trkpt lat="47.468536449596286" lon="11.104641202837229">
        <ele>1109.498779296875</ele>
        <time>2013-12-29T12:00:54Z</time>
      </trkpt>
      <trkpt lat="47.468572743237019" lon="11.104672634974122">
        <ele>1106.134033203125</ele>
        <time>2013-12-29T12:00:55Z</time>
      </trkpt>
      <trkpt lat="47.468644073233008" lon="11.104762405157089">
        <ele>1100.846923828125</ele>
        <time>2013-12-29T12:00:57Z</time>
      </trkpt>
      <trkpt lat="47.468710793182254" lon="11.104868017137051">
        <ele>1096.52099609375</ele>
        <time>2013-12-29T12:00:59Z</time>
      </trkpt>
      <trkpt lat="47.468780698254704" lon="11.104969438165426">
        <ele>1093.15625</ele>
        <time>2013-12-29T12:01:01Z</time>
      </trkpt>
      <trkpt lat="47.46885035187006" lon="11.105053089559078">
        <ele>1089.791748046875</ele>
        <time>2013-12-29T12:01:03Z</time>
      </trkpt>
      <trkpt lat="47.468906845897436" lon="11.105135483667254">
        <ele>1086.42724609375</ele>
        <time>2013-12-29T12:01:05Z</time>
      </trkpt>
      <trkpt lat="47.468983037397265" lon="11.105170352384448">
        <ele>1083.54296875</ele>
        <time>2013-12-29T12:01:08Z</time>
      </trkpt>
      <trkpt lat="47.469053780660033" lon="11.105263391509652">
        <ele>1079.217041015625</ele>
        <time>2013-12-29T12:01:11Z</time>
      </trkpt>
      <trkpt lat="47.469144305214286" lon="11.105378055945039">
        <ele>1074.41064453125</ele>
        <time>2013-12-29T12:01:14Z</time>
      </trkpt>
      <trkpt lat="47.469209181144834" lon="11.105446955189109">
        <ele>1070.5654296875</ele>
        <time>2013-12-29T12:01:16Z</time>
      </trkpt>
      <trkpt lat="47.469281014055014" lon="11.105505041778088">
        <ele>1064.316650390625</ele>
        <time>2013-12-29T12:01:18Z</time>
      </trkpt>
      <trkpt lat="47.469355277717113" lon="11.105546113103628">
        <ele>1059.51025390625</ele>
        <time>2013-12-29T12:01:20Z</time>
      </trkpt>
      <trkpt lat="47.469429457560182" lon="11.105589447543025">
        <ele>1055.6650390625</ele>
        <time>2013-12-29T12:01:22Z</time>
      </trkpt>
      <trkpt lat="47.46946600265801" lon="11.105676116421819">
        <ele>1051.3388671875</ele>
        <time>2013-12-29T12:01:24Z</time>
      </trkpt>
      <trkpt lat="47.469505229964852" lon="11.105751721188426">
        <ele>1047.49365234375</ele>
        <time>2013-12-29T12:01:26Z</time>
      </trkpt>
      <trkpt lat="47.469566334038973" lon="11.105832019820809">
        <ele>1042.687255859375</ele>
        <time>2013-12-29T12:01:28Z</time>
      </trkpt>
      <trkpt lat="47.46964143589139" lon="11.105853226035833">
        <ele>1038.842041015625</ele>
        <time>2013-12-29T12:01:30Z</time>
      </trkpt>
      <trkpt lat="47.469710754230618" lon="11.105953976511955">
        <ele>1034.03515625</ele>
        <time>2013-12-29T12:01:33Z</time>
      </trkpt>
      <trkpt lat="47.469769259914756" lon="11.106018936261535">
        <ele>1030.670654296875</ele>
        <time>2013-12-29T12:01:35Z</time>
      </trkpt>
      <trkpt lat="47.46985693462193" lon="11.106053469702601">
        <ele>1027.30615234375</ele>
        <time>2013-12-29T12:01:37Z</time>
      </trkpt>
      <trkpt lat="47.469900855794549" lon="11.106070568785071">
        <ele>1024.90283203125</ele>
        <time>2013-12-29T12:01:38Z</time>
      </trkpt>
      <trkpt lat="47.470073942095041" lon="11.10618238337338">
        <ele>1017.692626953125</ele>
        <time>2013-12-29T12:01:42Z</time>
      </trkpt>
      <trkpt lat="47.47015985660255" lon="11.106219850480556">
        <ele>1012.405517578125</ele>
        <time>2013-12-29T12:01:44Z</time>
      </trkpt>
      <trkpt lat="47.470197156071663" lon="11.106235608458519">
        <ele>1010.963623046875</ele>
        <time>2013-12-29T12:01:45Z</time>
      </trkpt>
      <trkpt lat="47.470325231552124" lon="11.106278691440821">
        <ele>1005.19580078125</ele>
        <time>2013-12-29T12:01:49Z</time>
      </trkpt>
      <trkpt lat="47.470413157716393" lon="11.10632604919374">
        <ele>999.908447265625</ele>
        <time>2013-12-29T12:01:52Z</time>
      </trkpt>
      <trkpt lat="47.470509214326739" lon="11.106336275115609">
        <ele>996.063232421875</ele>
        <time>2013-12-29T12:01:55Z</time>
      </trkpt>
      <trkpt lat="47.470613149926066" lon="11.106375921517611">
        <ele>990.29541015625</ele>
        <time>2013-12-29T12:01:58Z</time>
      </trkpt>
      <trkpt lat="47.470703087747097" lon="11.10639444552362">
        <ele>986.930419921875</ele>
        <time>2013-12-29T12:02:00Z</time>
      </trkpt>
      <trkpt lat="47.470810040831566" lon="11.106430822983384">
        <ele>982.604736328125</ele>
        <time>2013-12-29T12:02:02Z</time>
      </trkpt>
      <trkpt lat="47.470908863469958" lon="11.106469463557005">
        <ele>978.27880859375</ele>
        <time>2013-12-29T12:02:04Z</time>
      </trkpt>
      <trkpt lat="47.471070634201169" lon="11.106499638408422">
        <ele>970.107421875</ele>
        <time>2013-12-29T12:02:07Z</time>
      </trkpt>
      <trkpt lat="47.471189741045237" lon="11.106529897078872">
        <ele>965.78173828125</ele>
        <time>2013-12-29T12:02:09Z</time>
      </trkpt>
      <trkpt lat="47.471251348033547" lon="11.106545655056834">
        <ele>964.339599609375</ele>
        <time>2013-12-29T12:02:10Z</time>
      </trkpt>
      <trkpt lat="47.471429463475943" lon="11.106565939262509">
        <ele>959.533203125</ele>
        <time>2013-12-29T12:02:13Z</time>
      </trkpt>
      <trkpt lat="47.471486292779446" lon="11.106561664491892">
        <ele>958.09130859375</ele>
        <time>2013-12-29T12:02:14Z</time>
      </trkpt>
      <trkpt lat="47.471661139279604" lon="11.106561496853828">
        <ele>952.8037109375</ele>
        <time>2013-12-29T12:02:17Z</time>
      </trkpt>
      <trkpt lat="47.471811762079597" lon="11.106510367244482">
        <ele>950.881103515625</ele>
        <time>2013-12-29T12:02:20Z</time>
      </trkpt>
      <trkpt lat="47.471914440393448" lon="11.106421938166022">
        <ele>948.95849609375</ele>
        <time>2013-12-29T12:02:23Z</time>
      </trkpt>
      <trkpt lat="47.471935898065567" lon="11.106356810778379">
        <ele>948.477783203125</ele>
        <time>2013-12-29T12:02:25Z</time>
      </trkpt>
      <trkpt lat="47.471929779276252" lon="11.106318170204759">
        <ele>947.997314453125</ele>
        <time>2013-12-29T12:02:31Z</time>
      </trkpt>
      <trkpt lat="47.47195852920413" lon="11.106353877112269">
        <ele>947.997314453125</ele>
        <time>2013-12-29T12:02:38Z</time>
      </trkpt>
      <trkpt lat="47.472034133970737" lon="11.106369215995073">
        <ele>946.07470703125</ele>
        <time>2013-12-29T12:02:42Z</time>
      </trkpt>
      <trkpt lat="47.472107224166393" lon="11.106321942061186">
        <ele>942.710205078125</ele>
        <time>2013-12-29T12:02:45Z</time>
      </trkpt>
      <trkpt lat="47.47219305485487" lon="11.106317667290568">
        <ele>938.86474609375</ele>
        <time>2013-12-29T12:02:48Z</time>
      </trkpt>
      <trkpt lat="47.472217697650194" lon="11.106310961768031">
        <ele>938.86474609375</ele>
        <time>2013-12-29T12:02:49Z</time>
      </trkpt>
      <trkpt lat="47.472271593287587" lon="11.106302160769701">
        <ele>935.01953125</ele>
        <time>2013-12-29T12:02:51Z</time>
      </trkpt>
      <trkpt lat="47.472358094528317" lon="11.106210043653846">
        <ele>930.212890625</ele>
        <time>2013-12-29T12:02:54Z</time>
      </trkpt>
      <trkpt lat="47.472422467544675" lon="11.106103761121631">
        <ele>926.36767578125</ele>
        <time>2013-12-29T12:02:57Z</time>
      </trkpt>
      <trkpt lat="47.472475273534656" lon="11.105987252667546">
        <ele>922.04150390625</ele>
        <time>2013-12-29T12:03:00Z</time>
      </trkpt>
      <trkpt lat="47.472495557740331" lon="11.105951881036162">
        <ele>921.560791015625</ele>
        <time>2013-12-29T12:03:01Z</time>
      </trkpt>
      <trkpt lat="47.472550878301263" lon="11.105896979570389">
        <ele>918.677001953125</ele>
        <time>2013-12-29T12:03:03Z</time>
      </trkpt>
      <trkpt lat="47.472645761445165" lon="11.105779632925987">
        <ele>913.870361328125</ele>
        <time>2013-12-29T12:03:06Z</time>
      </trkpt>
      <trkpt lat="47.472750032320619" lon="11.105648204684258">
        <ele>909.544677734375</ele>
        <time>2013-12-29T12:03:09Z</time>
      </trkpt>
      <trkpt lat="47.472807615995407" lon="11.105487607419491">
        <ele>905.69921875</ele>
        <time>2013-12-29T12:03:12Z</time>
      </trkpt>
      <trkpt lat="47.472868217155337" lon="11.105274204164743">
        <ele>900.412109375</ele>
        <time>2013-12-29T12:03:15Z</time>
      </trkpt>
      <trkpt lat="47.472887663170695" lon="11.105158366262913">
        <ele>898.969970703125</ele>
        <time>2013-12-29T12:03:16Z</time>
      </trkpt>
      <trkpt lat="47.472940469160676" lon="11.104872208088636">
        <ele>895.60546875</ele>
        <time>2013-12-29T12:03:18Z</time>
      </trkpt>
      <trkpt lat="47.473097713664174" lon="11.104384632781148">
        <ele>889.356689453125</ele>
        <time>2013-12-29T12:03:21Z</time>
      </trkpt>
      <trkpt lat="47.473286390304565" lon="11.103700837120414">
        <ele>885.511474609375</ele>
        <time>2013-12-29T12:03:26Z</time>
      </trkpt>
      <trkpt lat="47.47332276776433" lon="11.103576952591538">
        <ele>885.511474609375</ele>
        <time>2013-12-29T12:03:27Z</time>
      </trkpt>
      <trkpt lat="47.473427290096879" lon="11.103248381987214">
        <ele>885.511474609375</ele>
        <time>2013-12-29T12:03:31Z</time>
      </trkpt>
      <trkpt lat="47.473408430814743" lon="11.102974377572536">
        <ele>884.55029296875</ele>
        <time>2013-12-29T12:03:36Z</time>
      </trkpt>
      <trkpt lat="47.473395187407732" lon="11.102628204971552">
        <ele>881.185791015625</ele>
        <time>2013-12-29T12:03:39Z</time>
      </trkpt>
      <trkpt lat="47.473398204892874" lon="11.102486969903111">
        <ele>879.74365234375</ele>
        <time>2013-12-29T12:03:40Z</time>
      </trkpt>
      <trkpt lat="47.473418572917581" lon="11.102243810892105">
        <ele>879.262939453125</ele>
        <time>2013-12-29T12:03:42Z</time>
      </trkpt>
      <trkpt lat="47.473432738333941" lon="11.102155884727836">
        <ele>878.3017578125</ele>
        <time>2013-12-29T12:03:43Z</time>
      </trkpt>
      <trkpt lat="47.473525190725923" lon="11.102051446214318">
        <ele>872.53369140625</ele>
        <time>2013-12-29T12:03:46Z</time>
      </trkpt>
      <trkpt lat="47.473620660603046" lon="11.101999897509813">
        <ele>868.6884765625</ele>
        <time>2013-12-29T12:03:48Z</time>
      </trkpt>
      <trkpt lat="47.473779497668147" lon="11.101857740432024">
        <ele>865.323974609375</ele>
        <time>2013-12-29T12:03:51Z</time>
      </trkpt>
      <trkpt lat="47.473909333348274" lon="11.101763192564249">
        <ele>861.95947265625</ele>
        <time>2013-12-29T12:03:54Z</time>
      </trkpt>
      <trkpt lat="47.473989129066467" lon="11.101729497313499">
        <ele>859.0751953125</ele>
        <time>2013-12-29T12:03:56Z</time>
      </trkpt>
      <trkpt lat="47.474059537053108" lon="11.101696891710162">
        <ele>856.671875</ele>
        <time>2013-12-29T12:03:58Z</time>
      </trkpt>
      <trkpt lat="47.474211920052767" lon="11.101608462631702">
        <ele>850.423583984375</ele>
        <time>2013-12-29T12:04:02Z</time>
      </trkpt>
      <trkpt lat="47.474282328039408" lon="11.101557333022356">
        <ele>847.058837890625</ele>
        <time>2013-12-29T12:04:04Z</time>
      </trkpt>
      <trkpt lat="47.47437285259366" lon="11.10147443599999">
        <ele>842.73291015625</ele>
        <time>2013-12-29T12:04:07Z</time>
      </trkpt>
      <trkpt lat="47.474432867020369" lon="11.101424060761929">
        <ele>837.92626953125</ele>
        <time>2013-12-29T12:04:09Z</time>
      </trkpt>
      <trkpt lat="47.474500508978963" lon="11.101369829848409">
        <ele>834.0810546875</ele>
        <time>2013-12-29T12:04:11Z</time>
      </trkpt>
      <trkpt lat="47.474534036591649" lon="11.101335128769279">
        <ele>830.716552734375</ele>
        <time>2013-12-29T12:04:12Z</time>
      </trkpt>
      <trkpt lat="47.47461961582303" lon="11.101295901462436">
        <ele>827.832275390625</ele>
        <time>2013-12-29T12:04:14Z</time>
      </trkpt>
      <trkpt lat="47.474667308852077" lon="11.101272096857429">
        <ele>824.4677734375</ele>
        <time>2013-12-29T12:04:15Z</time>
      </trkpt>
      <trkpt lat="47.474780464544892" lon="11.101269414648414">
        <ele>821.103271484375</ele>
        <time>2013-12-29T12:04:17Z</time>
      </trkpt>
      <trkpt lat="47.474841736257076" lon="11.101274779066443">
        <ele>819.1806640625</ele>
        <time>2013-12-29T12:04:18Z</time>
      </trkpt>
      <trkpt lat="47.475095707923174" lon="11.101343762129545">
        <ele>812.93212890625</ele>
        <time>2013-12-29T12:04:22Z</time>
      </trkpt>
      <trkpt lat="47.475219760090113" lon="11.101383408531547">
        <ele>810.528564453125</ele>
        <time>2013-12-29T12:04:24Z</time>
      </trkpt>
      <trkpt lat="47.475410951301455" lon="11.101457923650742">
        <ele>805.241455078125</ele>
        <time>2013-12-29T12:04:27Z</time>
      </trkpt>
      <trkpt lat="47.475546067580581" lon="11.101506790146232">
        <ele>801.876953125</ele>
        <time>2013-12-29T12:04:29Z</time>
      </trkpt>
      <trkpt lat="47.475760895758867" lon="11.101523973047733">
        <ele>797.551025390625</ele>
        <time>2013-12-29T12:04:32Z</time>
      </trkpt>
      <trkpt lat="47.475986536592245" lon="11.101500922814012">
        <ele>790.821533203125</ele>
        <time>2013-12-29T12:04:35Z</time>
      </trkpt>
      <trkpt lat="47.476147385314107" lon="11.101451553404331">
        <ele>786.976318359375</ele>
        <time>2013-12-29T12:04:37Z</time>
      </trkpt>
      <trkpt lat="47.476386604830623" lon="11.101247705519199">
        <ele>782.650634765625</ele>
        <time>2013-12-29T12:04:40Z</time>
      </trkpt>
      <trkpt lat="47.476455084979534" lon="11.101155923679471">
        <ele>782.169921875</ele>
        <time>2013-12-29T12:04:41Z</time>
      </trkpt>
      <trkpt lat="47.476716265082359" lon="11.100654937326908">
        <ele>777.36328125</ele>
        <time>2013-12-29T12:04:46Z</time>
      </trkpt>
      <trkpt lat="47.476765718311071" lon="11.100563490763307">
        <ele>777.36328125</ele>
        <time>2013-12-29T12:04:47Z</time>
      </trkpt>
      <trkpt lat="47.476861104369164" lon="11.100394930690527">
        <ele>775.921142578125</ele>
        <time>2013-12-29T12:04:49Z</time>
      </trkpt>
      <trkpt lat="47.477041650563478" lon="11.100071221590042">
        <ele>772.075927734375</ele>
        <time>2013-12-29T12:04:53Z</time>
      </trkpt>
      <trkpt lat="47.477217419072986" lon="11.099780956283212">
        <ele>766.30810546875</ele>
        <time>2013-12-29T12:04:56Z</time>
      </trkpt>
      <trkpt lat="47.477423697710037" lon="11.099264295771718">
        <ele>761.020751953125</ele>
        <time>2013-12-29T12:05:00Z</time>
      </trkpt>
      <trkpt lat="47.4775655195117" lon="11.098822569474578">
        <ele>757.175537109375</ele>
        <time>2013-12-29T12:05:03Z</time>
      </trkpt>
      <trkpt lat="47.477692672982812" lon="11.09843130223453">
        <ele>755.2529296875</ele>
        <time>2013-12-29T12:05:06Z</time>
      </trkpt>
      <trkpt lat="47.477834494784474" lon="11.097962083294988">
        <ele>750.927001953125</ele>
        <time>2013-12-29T12:05:10Z</time>
      </trkpt>
      <trkpt lat="47.477877829223871" lon="11.097826631739736">
        <ele>749.00439453125</ele>
        <time>2013-12-29T12:05:11Z</time>
      </trkpt>
      <trkpt lat="47.478165160864592" lon="11.097302846610546">
        <ele>743.236328125</ele>
        <time>2013-12-29T12:05:15Z</time>
      </trkpt>
      <trkpt lat="47.478602863848209" lon="11.096938736736774">
        <ele>738.429931640625</ele>
        <time>2013-12-29T12:05:20Z</time>
      </trkpt>
      <trkpt lat="47.478853818029165" lon="11.096761375665665">
        <ele>735.0654296875</ele>
        <time>2013-12-29T12:05:23Z</time>
      </trkpt>
      <trkpt lat="47.479014834389091" lon="11.096663055941463">
        <ele>734.10400390625</ele>
        <time>2013-12-29T12:05:25Z</time>
      </trkpt>
      <trkpt lat="47.47933292761445" lon="11.096522323787212">
        <ele>730.258544921875</ele>
        <time>2013-12-29T12:05:29Z</time>
      </trkpt>
      <trkpt lat="47.479614391922951" lon="11.09642056748271">
        <ele>727.374755859375</ele>
        <time>2013-12-29T12:05:32Z</time>
      </trkpt>
      <trkpt lat="47.479815557599068" lon="11.096338257193565">
        <ele>724.010009765625</ele>
        <time>2013-12-29T12:05:34Z</time>
      </trkpt>
      <trkpt lat="47.480012029409409" lon="11.096239266917109">
        <ele>721.126220703125</ele>
        <time>2013-12-29T12:05:36Z</time>
      </trkpt>
      <trkpt lat="47.480315370485187" lon="11.096062157303095">
        <ele>716.80029296875</ele>
        <time>2013-12-29T12:05:39Z</time>
      </trkpt>
      <trkpt lat="47.480519637465477" lon="11.095920838415623">
        <ele>713.916015625</ele>
        <time>2013-12-29T12:05:41Z</time>
      </trkpt>
      <trkpt lat="47.480715019628406" lon="11.095772562548518">
        <ele>711.512939453125</ele>
        <time>2013-12-29T12:05:43Z</time>
      </trkpt>
      <trkpt lat="47.480958513915539" lon="11.095585813745856">
        <ele>707.667724609375</ele>
        <time>2013-12-29T12:05:46Z</time>
      </trkpt>
      <trkpt lat="47.481030682101846" lon="11.095531499013305">
        <ele>707.667724609375</ele>
        <time>2013-12-29T12:05:47Z</time>
      </trkpt>
      <trkpt lat="47.48129622079432" lon="11.095278449356556">
        <ele>703.341796875</ele>
        <time>2013-12-29T12:05:51Z</time>
      </trkpt>
      <trkpt lat="47.481362437829375" lon="11.095230001956224">
        <ele>701.419189453125</ele>
        <time>2013-12-29T12:05:52Z</time>
      </trkpt>
      <trkpt lat="47.481607189401984" lon="11.095009976997972">
        <ele>696.612548828125</ele>
        <time>2013-12-29T12:05:57Z</time>
      </trkpt>
      <trkpt lat="47.481631077826023" lon="11.094970162957907">
        <ele>696.612548828125</ele>
        <time>2013-12-29T12:05:58Z</time>
      </trkpt>
      <trkpt lat="47.481696624308825" lon="11.094934791326523">
        <ele>694.689697265625</ele>
        <time>2013-12-29T12:06:01Z</time>
      </trkpt>
      <trkpt lat="47.481712885200977" lon="11.094891624525189">
        <ele>694.689697265625</ele>
        <time>2013-12-29T12:06:03Z</time>
      </trkpt>
      <trkpt lat="47.481873650103807" lon="11.094797411933541">
        <ele>693.728515625</ele>
        <time>2013-12-29T12:06:14Z</time>
      </trkpt>
      <trkpt lat="47.481943303719163" lon="11.094762040302157">
        <ele>693.247802734375</ele>
        <time>2013-12-29T12:06:26Z</time>
      </trkpt>
      <trkpt lat="47.4820018094033" lon="11.094741085544229">
        <ele>692.767333984375</ele>
        <time>2013-12-29T12:06:36Z</time>
      </trkpt>
      <trkpt lat="47.482072217389941" lon="11.094716526567936">
        <ele>693.247802734375</ele>
        <time>2013-12-29T12:06:44Z</time>
      </trkpt>
      <trkpt lat="47.482078084722161" lon="11.094712922349572">
        <ele>692.767333984375</ele>
        <time>2013-12-29T12:06:54Z</time>
      </trkpt>
      <trkpt lat="47.482076324522495" lon="11.09471820294857">
        <ele>693.247802734375</ele>
        <time>2013-12-29T12:07:20Z</time>
      </trkpt>
      <trkpt lat="47.482077497988939" lon="11.094718538224697">
        <ele>692.767333984375</ele>
        <time>2013-12-29T12:07:43Z</time>
      </trkpt>
      <trkpt lat="47.482082946226001" lon="11.094728512689471">
        <ele>693.247802734375</ele>
        <time>2013-12-29T12:07:59Z</time>
      </trkpt>
      <trkpt lat="47.482072468847036" lon="11.094731111079454">
        <ele>693.728515625</ele>
        <time>2013-12-29T12:08:08Z</time>
      </trkpt>
      <trkpt lat="47.482073390856385" lon="11.094731027260423">
        <ele>694.209228515625</ele>
        <time>2013-12-29T12:08:19Z</time>
      </trkpt>
      <trkpt lat="47.482064254581928" lon="11.094723483547568">
        <ele>694.209228515625</ele>
        <time>2013-12-29T12:08:31Z</time>
      </trkpt>
      <trkpt lat="47.482074815779924" lon="11.094716358929873">
        <ele>694.689697265625</ele>
        <time>2013-12-29T12:08:36Z</time>
      </trkpt>
      <trkpt lat="47.482028882950544" lon="11.094450317323208">
        <ele>694.689697265625</ele>
        <time>2013-12-29T12:08:51Z</time>
      </trkpt>
      <trkpt lat="47.481925114989281" lon="11.094148736447096">
        <ele>693.247802734375</ele>
        <time>2013-12-29T12:09:08Z</time>
      </trkpt>
      <trkpt lat="47.481854371726513" lon="11.093947654590011">
        <ele>692.767333984375</ele>
        <time>2013-12-29T12:09:19Z</time>
      </trkpt>
      <trkpt lat="47.481794357299805" lon="11.093660406768322">
        <ele>691.805908203125</ele>
        <time>2013-12-29T12:09:33Z</time>
      </trkpt>
      <trkpt lat="47.481759404763579" lon="11.093299733474851">
        <ele>691.3251953125</ele>
        <time>2013-12-29T12:09:50Z</time>
      </trkpt>
      <trkpt lat="47.481741551309824" lon="11.092936880886555">
        <ele>690.844482421875</ele>
        <time>2013-12-29T12:10:08Z</time>
      </trkpt>
      <trkpt lat="47.481758315116167" lon="11.092578889802098">
        <ele>689.402587890625</ele>
        <time>2013-12-29T12:10:25Z</time>
      </trkpt>
      <trkpt lat="47.48184590600431" lon="11.092362804338336">
        <ele>688.44140625</ele>
        <time>2013-12-29T12:10:38Z</time>
      </trkpt>
      <trkpt lat="47.481992840766907" lon="11.092251492664218">
        <ele>688.44140625</ele>
        <time>2013-12-29T12:10:50Z</time>
      </trkpt>
      <trkpt lat="47.482223343104124" lon="11.092097098007798">
        <ele>687.960693359375</ele>
        <time>2013-12-29T12:11:09Z</time>
      </trkpt>
      <trkpt lat="47.482288721948862" lon="11.092028198763728">
        <ele>687.960693359375</ele>
        <time>2013-12-29T12:11:16Z</time>
      </trkpt>
      <trkpt lat="47.482269192114472" lon="11.091967346146703">
        <ele>687.960693359375</ele>
        <time>2013-12-29T12:11:23Z</time>
      </trkpt>
      <trkpt lat="47.482252763584256" lon="11.091960472986102">
        <ele>687.47998046875</ele>
        <time>2013-12-29T12:11:35Z</time>
      </trkpt>
      <trkpt lat="47.482237759977579" lon="11.091961478814483">
        <ele>687.960693359375</ele>
        <time>2013-12-29T12:11:46Z</time>
      </trkpt>
      <trkpt lat="47.482237257063389" lon="11.091959634795785">
        <ele>687.960693359375</ele>
        <time>2013-12-29T12:12:00Z</time>
      </trkpt>
      <trkpt lat="47.482245303690434" lon="11.091961897909641">
        <ele>687.960693359375</ele>
        <time>2013-12-29T12:12:10Z</time>
      </trkpt>
      <trkpt lat="47.482253182679415" lon="11.091965502128005">
        <ele>688.44140625</ele>
        <time>2013-12-29T12:13:30Z</time>
      </trkpt>
    </trkseg>
  </trk>

</gpx>
